<?xml version="1.0" encoding="UTF-8" standalone="no" ?>
<gpx xmlns="http://www.topografix.com/GPX/1/1" xmlns:xsi="http://www.w3.org/2001/XMLSchema-instance" xsi:schemaLocation="http://www.topografix.com/GPX/1/1 http://www.topografix.com/GPX/1/1/gpx.xsd" version="1.1" creator="VisuGPX - https://www.visugpx.com">
  <metadata>
    <name>La bigue du siron </name>
    <desc><![CDATA[rando courbons la bigue du siron]]></desc>
  </metadata>
  <trk>
    <name><![CDATA[13-JAN-13 16:10:56]]></name>
    <trkseg>
      <trkpt lat="44.10605" lon="6.20579">
        <ele>961.94</ele>
        <time>2013-01-13T09:59:57Z</time>
      </trkpt>
      <trkpt lat="44.10611" lon="6.20572">
        <ele>962.42</ele>
        <time>2013-01-13T10:00:11Z</time>
      </trkpt>
      <trkpt lat="44.10622" lon="6.20567">
        <ele>964.82</ele>
        <time>2013-01-13T10:00:26Z</time>
      </trkpt>
      <trkpt lat="44.10633" lon="6.20569">
        <ele>967.7</ele>
        <time>2013-01-13T10:00:40Z</time>
      </trkpt>
      <trkpt lat="44.10642" lon="6.20565">
        <ele>971.07</ele>
        <time>2013-01-13T10:00:56Z</time>
      </trkpt>
      <trkpt lat="44.1065" lon="6.2056">
        <ele>973.47</ele>
        <time>2013-01-13T10:01:12Z</time>
      </trkpt>
      <trkpt lat="44.10659" lon="6.20563">
        <ele>975.39</ele>
        <time>2013-01-13T10:01:29Z</time>
      </trkpt>
      <trkpt lat="44.10663" lon="6.20574">
        <ele>978.76</ele>
        <time>2013-01-13T10:01:43Z</time>
      </trkpt>
      <trkpt lat="44.10667" lon="6.20585">
        <ele>980.68</ele>
        <time>2013-01-13T10:02:00Z</time>
      </trkpt>
      <trkpt lat="44.10671" lon="6.20596">
        <ele>982.6</ele>
        <time>2013-01-13T10:02:14Z</time>
      </trkpt>
      <trkpt lat="44.10669" lon="6.20602">
        <ele>982.6</ele>
        <time>2013-01-13T10:02:28Z</time>
      </trkpt>
      <trkpt lat="44.10671" lon="6.20592">
        <ele>982.12</ele>
        <time>2013-01-13T10:02:41Z</time>
      </trkpt>
      <trkpt lat="44.10678" lon="6.20576">
        <ele>984.05</ele>
        <time>2013-01-13T10:02:55Z</time>
      </trkpt>
      <trkpt lat="44.1068" lon="6.20572">
        <ele>985.97</ele>
        <time>2013-01-13T10:03:00Z</time>
      </trkpt>
      <trkpt lat="44.1068" lon="6.20572">
        <ele>983.57</ele>
        <time>2013-01-13T10:03:02Z</time>
      </trkpt>
      <trkpt lat="44.10683" lon="6.20567">
        <ele>984.05</ele>
        <time>2013-01-13T10:03:18Z</time>
      </trkpt>
      <trkpt lat="44.10683" lon="6.20566">
        <ele>983.57</ele>
        <time>2013-01-13T10:03:19Z</time>
      </trkpt>
      <trkpt lat="44.10689" lon="6.20559">
        <ele>985.01</ele>
        <time>2013-01-13T10:03:26Z</time>
      </trkpt>
      <trkpt lat="44.10689" lon="6.20557">
        <ele>985.49</ele>
        <time>2013-01-13T10:03:27Z</time>
      </trkpt>
      <trkpt lat="44.10695" lon="6.20539">
        <ele>986.45</ele>
        <time>2013-01-13T10:03:42Z</time>
      </trkpt>
      <trkpt lat="44.10696" lon="6.20536">
        <ele>987.41</ele>
        <time>2013-01-13T10:03:44Z</time>
      </trkpt>
      <trkpt lat="44.10699" lon="6.20514">
        <ele>987.41</ele>
        <time>2013-01-13T10:03:59Z</time>
      </trkpt>
      <trkpt lat="44.10699" lon="6.20513">
        <ele>986.93</ele>
        <time>2013-01-13T10:04:00Z</time>
      </trkpt>
      <trkpt lat="44.10704" lon="6.2049">
        <ele>987.89</ele>
        <time>2013-01-13T10:04:15Z</time>
      </trkpt>
      <trkpt lat="44.10705" lon="6.20474">
        <ele>987.89</ele>
        <time>2013-01-13T10:04:26Z</time>
      </trkpt>
      <trkpt lat="44.10707" lon="6.20449">
        <ele>987.41</ele>
        <time>2013-01-13T10:04:40Z</time>
      </trkpt>
      <trkpt lat="44.10708" lon="6.20448">
        <ele>986.93</ele>
        <time>2013-01-13T10:04:41Z</time>
      </trkpt>
      <trkpt lat="44.10718" lon="6.20431">
        <ele>986.93</ele>
        <time>2013-01-13T10:04:55Z</time>
      </trkpt>
      <trkpt lat="44.10724" lon="6.20423">
        <ele>987.41</ele>
        <time>2013-01-13T10:05:04Z</time>
      </trkpt>
      <trkpt lat="44.10725" lon="6.20422">
        <ele>986.93</ele>
        <time>2013-01-13T10:05:05Z</time>
      </trkpt>
      <trkpt lat="44.10725" lon="6.20421">
        <ele>987.41</ele>
        <time>2013-01-13T10:05:06Z</time>
      </trkpt>
      <trkpt lat="44.10726" lon="6.2042">
        <ele>987.41</ele>
        <time>2013-01-13T10:05:07Z</time>
      </trkpt>
      <trkpt lat="44.10727" lon="6.20411">
        <ele>987.89</ele>
        <time>2013-01-13T10:05:14Z</time>
      </trkpt>
      <trkpt lat="44.10726" lon="6.20403">
        <ele>988.85</ele>
        <time>2013-01-13T10:05:19Z</time>
      </trkpt>
      <trkpt lat="44.10723" lon="6.20376">
        <ele>988.37</ele>
        <time>2013-01-13T10:05:35Z</time>
      </trkpt>
      <trkpt lat="44.10722" lon="6.20354">
        <ele>989.81</ele>
        <time>2013-01-13T10:05:50Z</time>
      </trkpt>
      <trkpt lat="44.10722" lon="6.20353">
        <ele>989.33</ele>
        <time>2013-01-13T10:05:51Z</time>
      </trkpt>
      <trkpt lat="44.10724" lon="6.20351">
        <ele>989.33</ele>
        <time>2013-01-13T10:05:52Z</time>
      </trkpt>
      <trkpt lat="44.10724" lon="6.2035">
        <ele>989.81</ele>
        <time>2013-01-13T10:05:53Z</time>
      </trkpt>
      <trkpt lat="44.10729" lon="6.20335">
        <ele>991.26</ele>
        <time>2013-01-13T10:06:05Z</time>
      </trkpt>
      <trkpt lat="44.10733" lon="6.2032">
        <ele>993.66</ele>
        <time>2013-01-13T10:06:18Z</time>
      </trkpt>
      <trkpt lat="44.10736" lon="6.20304">
        <ele>995.1</ele>
        <time>2013-01-13T10:06:31Z</time>
      </trkpt>
      <trkpt lat="44.10737" lon="6.20284">
        <ele>996.54</ele>
        <time>2013-01-13T10:06:45Z</time>
      </trkpt>
      <trkpt lat="44.10738" lon="6.20259">
        <ele>996.54</ele>
        <time>2013-01-13T10:07:01Z</time>
      </trkpt>
      <trkpt lat="44.10742" lon="6.20236">
        <ele>997.99</ele>
        <time>2013-01-13T10:07:16Z</time>
      </trkpt>
      <trkpt lat="44.10743" lon="6.20225">
        <ele>998.47</ele>
        <time>2013-01-13T10:07:23Z</time>
      </trkpt>
      <trkpt lat="44.10743" lon="6.20223">
        <ele>997.99</ele>
        <time>2013-01-13T10:07:24Z</time>
      </trkpt>
      <trkpt lat="44.10743" lon="6.20222">
        <ele>997.99</ele>
        <time>2013-01-13T10:07:25Z</time>
      </trkpt>
      <trkpt lat="44.10753" lon="6.202">
        <ele>998.95</ele>
        <time>2013-01-13T10:07:40Z</time>
      </trkpt>
      <trkpt lat="44.10762" lon="6.20183">
        <ele>1000.87</ele>
        <time>2013-01-13T10:07:55Z</time>
      </trkpt>
      <trkpt lat="44.10771" lon="6.20162">
        <ele>1001.83</ele>
        <time>2013-01-13T10:08:10Z</time>
      </trkpt>
      <trkpt lat="44.10774" lon="6.20159">
        <ele>1001.83</ele>
        <time>2013-01-13T10:08:13Z</time>
      </trkpt>
      <trkpt lat="44.10776" lon="6.20154">
        <ele>1002.31</ele>
        <time>2013-01-13T10:08:17Z</time>
      </trkpt>
      <trkpt lat="44.10777" lon="6.20152">
        <ele>1002.79</ele>
        <time>2013-01-13T10:08:18Z</time>
      </trkpt>
      <trkpt lat="44.10777" lon="6.20151">
        <ele>1002.31</ele>
        <time>2013-01-13T10:08:19Z</time>
      </trkpt>
      <trkpt lat="44.10778" lon="6.20149">
        <ele>1002.79</ele>
        <time>2013-01-13T10:08:20Z</time>
      </trkpt>
      <trkpt lat="44.10778" lon="6.20148">
        <ele>1002.79</ele>
        <time>2013-01-13T10:08:21Z</time>
      </trkpt>
      <trkpt lat="44.10779" lon="6.20146">
        <ele>1002.31</ele>
        <time>2013-01-13T10:08:22Z</time>
      </trkpt>
      <trkpt lat="44.1078" lon="6.20145">
        <ele>1002.31</ele>
        <time>2013-01-13T10:08:23Z</time>
      </trkpt>
      <trkpt lat="44.10787" lon="6.20125">
        <ele>1003.75</ele>
        <time>2013-01-13T10:08:38Z</time>
      </trkpt>
      <trkpt lat="44.1079" lon="6.2011">
        <ele>1004.72</ele>
        <time>2013-01-13T10:08:47Z</time>
      </trkpt>
      <trkpt lat="44.10791" lon="6.20109">
        <ele>1004.72</ele>
        <time>2013-01-13T10:08:48Z</time>
      </trkpt>
      <trkpt lat="44.10791" lon="6.20108">
        <ele>1004.72</ele>
        <time>2013-01-13T10:08:49Z</time>
      </trkpt>
      <trkpt lat="44.10792" lon="6.20106">
        <ele>1004.72</ele>
        <time>2013-01-13T10:08:50Z</time>
      </trkpt>
      <trkpt lat="44.10793" lon="6.20105">
        <ele>1005.2</ele>
        <time>2013-01-13T10:08:51Z</time>
      </trkpt>
      <trkpt lat="44.10793" lon="6.20104">
        <ele>1004.72</ele>
        <time>2013-01-13T10:08:52Z</time>
      </trkpt>
      <trkpt lat="44.10794" lon="6.20102">
        <ele>1004.72</ele>
        <time>2013-01-13T10:08:53Z</time>
      </trkpt>
      <trkpt lat="44.10795" lon="6.20101">
        <ele>1004.72</ele>
        <time>2013-01-13T10:08:54Z</time>
      </trkpt>
      <trkpt lat="44.10795" lon="6.20099">
        <ele>1004.72</ele>
        <time>2013-01-13T10:08:55Z</time>
      </trkpt>
      <trkpt lat="44.10796" lon="6.20098">
        <ele>1005.2</ele>
        <time>2013-01-13T10:08:56Z</time>
      </trkpt>
      <trkpt lat="44.10796" lon="6.20096">
        <ele>1004.72</ele>
        <time>2013-01-13T10:08:57Z</time>
      </trkpt>
      <trkpt lat="44.10798" lon="6.2009">
        <ele>1005.68</ele>
        <time>2013-01-13T10:09:01Z</time>
      </trkpt>
      <trkpt lat="44.10798" lon="6.20089">
        <ele>1005.68</ele>
        <time>2013-01-13T10:09:02Z</time>
      </trkpt>
      <trkpt lat="44.10798" lon="6.20088">
        <ele>1006.16</ele>
        <time>2013-01-13T10:09:03Z</time>
      </trkpt>
      <trkpt lat="44.10802" lon="6.20062">
        <ele>1006.16</ele>
        <time>2013-01-13T10:09:19Z</time>
      </trkpt>
      <trkpt lat="44.10803" lon="6.20057">
        <ele>1006.16</ele>
        <time>2013-01-13T10:09:22Z</time>
      </trkpt>
      <trkpt lat="44.10804" lon="6.20056">
        <ele>1004.72</ele>
        <time>2013-01-13T10:09:23Z</time>
      </trkpt>
      <trkpt lat="44.10805" lon="6.20055">
        <ele>1004.72</ele>
        <time>2013-01-13T10:09:24Z</time>
      </trkpt>
      <trkpt lat="44.10806" lon="6.20053">
        <ele>1005.2</ele>
        <time>2013-01-13T10:09:25Z</time>
      </trkpt>
      <trkpt lat="44.10807" lon="6.20052">
        <ele>1004.72</ele>
        <time>2013-01-13T10:09:26Z</time>
      </trkpt>
      <trkpt lat="44.10808" lon="6.2005">
        <ele>1004.23</ele>
        <time>2013-01-13T10:09:27Z</time>
      </trkpt>
      <trkpt lat="44.10827" lon="6.20034">
        <ele>1002.31</ele>
        <time>2013-01-13T10:09:43Z</time>
      </trkpt>
      <trkpt lat="44.10828" lon="6.20033">
        <ele>1001.35</ele>
        <time>2013-01-13T10:09:44Z</time>
      </trkpt>
      <trkpt lat="44.10832" lon="6.20028">
        <ele>999.91</ele>
        <time>2013-01-13T10:09:49Z</time>
      </trkpt>
      <trkpt lat="44.10833" lon="6.20026">
        <ele>1000.39</ele>
        <time>2013-01-13T10:09:51Z</time>
      </trkpt>
      <trkpt lat="44.10834" lon="6.20025">
        <ele>999.91</ele>
        <time>2013-01-13T10:09:52Z</time>
      </trkpt>
      <trkpt lat="44.10841" lon="6.20018">
        <ele>998.95</ele>
        <time>2013-01-13T10:10:00Z</time>
      </trkpt>
      <trkpt lat="44.10842" lon="6.20015">
        <ele>998.95</ele>
        <time>2013-01-13T10:10:01Z</time>
      </trkpt>
      <trkpt lat="44.10843" lon="6.20014">
        <ele>998.95</ele>
        <time>2013-01-13T10:10:02Z</time>
      </trkpt>
      <trkpt lat="44.10844" lon="6.20012">
        <ele>998.95</ele>
        <time>2013-01-13T10:10:03Z</time>
      </trkpt>
      <trkpt lat="44.10845" lon="6.20011">
        <ele>998.47</ele>
        <time>2013-01-13T10:10:04Z</time>
      </trkpt>
      <trkpt lat="44.10846" lon="6.20009">
        <ele>999.43</ele>
        <time>2013-01-13T10:10:05Z</time>
      </trkpt>
      <trkpt lat="44.10846" lon="6.20008">
        <ele>998.95</ele>
        <time>2013-01-13T10:10:06Z</time>
      </trkpt>
      <trkpt lat="44.10847" lon="6.20006">
        <ele>998.95</ele>
        <time>2013-01-13T10:10:07Z</time>
      </trkpt>
      <trkpt lat="44.10848" lon="6.20005">
        <ele>998.95</ele>
        <time>2013-01-13T10:10:08Z</time>
      </trkpt>
      <trkpt lat="44.10848" lon="6.20004">
        <ele>998.95</ele>
        <time>2013-01-13T10:10:09Z</time>
      </trkpt>
      <trkpt lat="44.10849" lon="6.20002">
        <ele>999.43</ele>
        <time>2013-01-13T10:10:10Z</time>
      </trkpt>
      <trkpt lat="44.1085" lon="6.20001">
        <ele>999.43</ele>
        <time>2013-01-13T10:10:11Z</time>
      </trkpt>
      <trkpt lat="44.10851" lon="6.19999">
        <ele>999.43</ele>
        <time>2013-01-13T10:10:12Z</time>
      </trkpt>
      <trkpt lat="44.10851" lon="6.19998">
        <ele>999.43</ele>
        <time>2013-01-13T10:10:13Z</time>
      </trkpt>
      <trkpt lat="44.10851" lon="6.19997">
        <ele>999.43</ele>
        <time>2013-01-13T10:10:14Z</time>
      </trkpt>
      <trkpt lat="44.10852" lon="6.19995">
        <ele>999.43</ele>
        <time>2013-01-13T10:10:15Z</time>
      </trkpt>
      <trkpt lat="44.10852" lon="6.19993">
        <ele>998.95</ele>
        <time>2013-01-13T10:10:16Z</time>
      </trkpt>
      <trkpt lat="44.10852" lon="6.19992">
        <ele>999.43</ele>
        <time>2013-01-13T10:10:17Z</time>
      </trkpt>
      <trkpt lat="44.10856" lon="6.19982">
        <ele>1000.87</ele>
        <time>2013-01-13T10:10:24Z</time>
      </trkpt>
      <trkpt lat="44.10861" lon="6.19968">
        <ele>1002.31</ele>
        <time>2013-01-13T10:10:36Z</time>
      </trkpt>
      <trkpt lat="44.10862" lon="6.19968">
        <ele>1002.31</ele>
        <time>2013-01-13T10:10:37Z</time>
      </trkpt>
      <trkpt lat="44.10863" lon="6.19967">
        <ele>1002.31</ele>
        <time>2013-01-13T10:10:38Z</time>
      </trkpt>
      <trkpt lat="44.10877" lon="6.19955">
        <ele>1004.72</ele>
        <time>2013-01-13T10:10:53Z</time>
      </trkpt>
      <trkpt lat="44.10877" lon="6.19954">
        <ele>1005.2</ele>
        <time>2013-01-13T10:10:54Z</time>
      </trkpt>
      <trkpt lat="44.10882" lon="6.19942">
        <ele>1006.16</ele>
        <time>2013-01-13T10:11:04Z</time>
      </trkpt>
      <trkpt lat="44.10886" lon="6.19941">
        <ele>1006.64</ele>
        <time>2013-01-13T10:11:17Z</time>
      </trkpt>
      <trkpt lat="44.10895" lon="6.19933">
        <ele>1008.08</ele>
        <time>2013-01-13T10:11:31Z</time>
      </trkpt>
      <trkpt lat="44.10897" lon="6.19931">
        <ele>1008.56</ele>
        <time>2013-01-13T10:11:34Z</time>
      </trkpt>
      <trkpt lat="44.10909" lon="6.19924">
        <ele>1009.52</ele>
        <time>2013-01-13T10:11:47Z</time>
      </trkpt>
      <trkpt lat="44.10917" lon="6.1992">
        <ele>1011.44</ele>
        <time>2013-01-13T10:11:57Z</time>
      </trkpt>
      <trkpt lat="44.10917" lon="6.19919">
        <ele>1011.44</ele>
        <time>2013-01-13T10:11:58Z</time>
      </trkpt>
      <trkpt lat="44.10918" lon="6.19919">
        <ele>1011.44</ele>
        <time>2013-01-13T10:11:59Z</time>
      </trkpt>
      <trkpt lat="44.10927" lon="6.19914">
        <ele>1013.37</ele>
        <time>2013-01-13T10:12:13Z</time>
      </trkpt>
      <trkpt lat="44.10935" lon="6.19911">
        <ele>1015.29</ele>
        <time>2013-01-13T10:12:28Z</time>
      </trkpt>
      <trkpt lat="44.10943" lon="6.1991">
        <ele>1016.73</ele>
        <time>2013-01-13T10:12:44Z</time>
      </trkpt>
      <trkpt lat="44.10951" lon="6.19906">
        <ele>1019.62</ele>
        <time>2013-01-13T10:13:00Z</time>
      </trkpt>
      <trkpt lat="44.10953" lon="6.1989">
        <ele>1021.54</ele>
        <time>2013-01-13T10:13:15Z</time>
      </trkpt>
      <trkpt lat="44.10955" lon="6.19874">
        <ele>1023.46</ele>
        <time>2013-01-13T10:13:30Z</time>
      </trkpt>
      <trkpt lat="44.1096" lon="6.1987">
        <ele>1023.94</ele>
        <time>2013-01-13T10:13:46Z</time>
      </trkpt>
      <trkpt lat="44.1097" lon="6.19867">
        <ele>1026.34</ele>
        <time>2013-01-13T10:13:59Z</time>
      </trkpt>
      <trkpt lat="44.10974" lon="6.19872">
        <ele>1026.83</ele>
        <time>2013-01-13T10:14:05Z</time>
      </trkpt>
      <trkpt lat="44.10984" lon="6.19867">
        <ele>1029.23</ele>
        <time>2013-01-13T10:14:22Z</time>
      </trkpt>
      <trkpt lat="44.10996" lon="6.19866">
        <ele>1031.63</ele>
        <time>2013-01-13T10:14:40Z</time>
      </trkpt>
      <trkpt lat="44.11004" lon="6.19871">
        <ele>1034.04</ele>
        <time>2013-01-13T10:14:56Z</time>
      </trkpt>
      <trkpt lat="44.11013" lon="6.19876">
        <ele>1035.96</ele>
        <time>2013-01-13T10:15:11Z</time>
      </trkpt>
      <trkpt lat="44.11019" lon="6.19872">
        <ele>1036.92</ele>
        <time>2013-01-13T10:15:22Z</time>
      </trkpt>
      <trkpt lat="44.1102" lon="6.19871">
        <ele>1037.88</ele>
        <time>2013-01-13T10:15:23Z</time>
      </trkpt>
      <trkpt lat="44.11021" lon="6.1987">
        <ele>1037.4</ele>
        <time>2013-01-13T10:15:24Z</time>
      </trkpt>
      <trkpt lat="44.11022" lon="6.19869">
        <ele>1036.92</ele>
        <time>2013-01-13T10:15:25Z</time>
      </trkpt>
      <trkpt lat="44.11023" lon="6.19868">
        <ele>1037.4</ele>
        <time>2013-01-13T10:15:26Z</time>
      </trkpt>
      <trkpt lat="44.11024" lon="6.19866">
        <ele>1036.92</ele>
        <time>2013-01-13T10:15:27Z</time>
      </trkpt>
      <trkpt lat="44.11025" lon="6.19865">
        <ele>1037.4</ele>
        <time>2013-01-13T10:15:28Z</time>
      </trkpt>
      <trkpt lat="44.11028" lon="6.1986">
        <ele>1037.4</ele>
        <time>2013-01-13T10:15:32Z</time>
      </trkpt>
      <trkpt lat="44.11029" lon="6.19859">
        <ele>1037.4</ele>
        <time>2013-01-13T10:15:33Z</time>
      </trkpt>
      <trkpt lat="44.11029" lon="6.19857">
        <ele>1037.4</ele>
        <time>2013-01-13T10:15:34Z</time>
      </trkpt>
      <trkpt lat="44.11031" lon="6.19856">
        <ele>1036.92</ele>
        <time>2013-01-13T10:15:35Z</time>
      </trkpt>
      <trkpt lat="44.11031" lon="6.19855">
        <ele>1036.92</ele>
        <time>2013-01-13T10:15:36Z</time>
      </trkpt>
      <trkpt lat="44.11032" lon="6.19854">
        <ele>1036.92</ele>
        <time>2013-01-13T10:15:37Z</time>
      </trkpt>
      <trkpt lat="44.11036" lon="6.19849">
        <ele>1036.92</ele>
        <time>2013-01-13T10:15:52Z</time>
      </trkpt>
      <trkpt lat="44.11036" lon="6.19847">
        <ele>1035.48</ele>
        <time>2013-01-13T10:16:12Z</time>
      </trkpt>
      <trkpt lat="44.11036" lon="6.19847">
        <ele>1035.48</ele>
        <time>2013-01-13T10:16:35Z</time>
      </trkpt>
      <trkpt lat="44.11036" lon="6.19847">
        <ele>1035</ele>
        <time>2013-01-13T10:16:57Z</time>
      </trkpt>
      <trkpt lat="44.11036" lon="6.19848">
        <ele>1035</ele>
        <time>2013-01-13T10:17:29Z</time>
      </trkpt>
      <trkpt lat="44.11036" lon="6.19847">
        <ele>1035.48</ele>
        <time>2013-01-13T10:17:43Z</time>
      </trkpt>
      <trkpt lat="44.11038" lon="6.19846">
        <ele>1035.48</ele>
        <time>2013-01-13T10:17:49Z</time>
      </trkpt>
      <trkpt lat="44.11039" lon="6.19845">
        <ele>1035.48</ele>
        <time>2013-01-13T10:17:50Z</time>
      </trkpt>
      <trkpt lat="44.11043" lon="6.1984">
        <ele>1034.52</ele>
        <time>2013-01-13T10:17:53Z</time>
      </trkpt>
      <trkpt lat="44.11058" lon="6.19813">
        <ele>1034.52</ele>
        <time>2013-01-13T10:18:10Z</time>
      </trkpt>
      <trkpt lat="44.11066" lon="6.19798">
        <ele>1035.48</ele>
        <time>2013-01-13T10:18:21Z</time>
      </trkpt>
      <trkpt lat="44.11073" lon="6.19793">
        <ele>1035.96</ele>
        <time>2013-01-13T10:18:27Z</time>
      </trkpt>
      <trkpt lat="44.11083" lon="6.19786">
        <ele>1037.4</ele>
        <time>2013-01-13T10:18:38Z</time>
      </trkpt>
      <trkpt lat="44.11086" lon="6.19766">
        <ele>1038.84</ele>
        <time>2013-01-13T10:18:52Z</time>
      </trkpt>
      <trkpt lat="44.11086" lon="6.19762">
        <ele>1038.84</ele>
        <time>2013-01-13T10:18:54Z</time>
      </trkpt>
      <trkpt lat="44.11084" lon="6.19734">
        <ele>1040.28</ele>
        <time>2013-01-13T10:19:11Z</time>
      </trkpt>
      <trkpt lat="44.11082" lon="6.1971">
        <ele>1041.73</ele>
        <time>2013-01-13T10:19:26Z</time>
      </trkpt>
      <trkpt lat="44.11079" lon="6.19694">
        <ele>1042.69</ele>
        <time>2013-01-13T10:19:37Z</time>
      </trkpt>
      <trkpt lat="44.11079" lon="6.19669">
        <ele>1045.57</ele>
        <time>2013-01-13T10:19:54Z</time>
      </trkpt>
      <trkpt lat="44.11078" lon="6.19667">
        <ele>1045.57</ele>
        <time>2013-01-13T10:19:57Z</time>
      </trkpt>
      <trkpt lat="44.11079" lon="6.19652">
        <ele>1048.45</ele>
        <time>2013-01-13T10:20:11Z</time>
      </trkpt>
      <trkpt lat="44.1108" lon="6.19637">
        <ele>1050.38</ele>
        <time>2013-01-13T10:20:24Z</time>
      </trkpt>
      <trkpt lat="44.11081" lon="6.19634">
        <ele>1050.86</ele>
        <time>2013-01-13T10:20:27Z</time>
      </trkpt>
      <trkpt lat="44.11086" lon="6.19624">
        <ele>1051.82</ele>
        <time>2013-01-13T10:20:35Z</time>
      </trkpt>
      <trkpt lat="44.11089" lon="6.19616">
        <ele>1052.3</ele>
        <time>2013-01-13T10:20:43Z</time>
      </trkpt>
      <trkpt lat="44.11095" lon="6.19621">
        <ele>1055.18</ele>
        <time>2013-01-13T10:20:56Z</time>
      </trkpt>
      <trkpt lat="44.11103" lon="6.19635">
        <ele>1056.63</ele>
        <time>2013-01-13T10:21:12Z</time>
      </trkpt>
      <trkpt lat="44.1111" lon="6.19627">
        <ele>1059.51</ele>
        <time>2013-01-13T10:21:27Z</time>
      </trkpt>
      <trkpt lat="44.11116" lon="6.19618">
        <ele>1060.47</ele>
        <time>2013-01-13T10:21:39Z</time>
      </trkpt>
      <trkpt lat="44.11119" lon="6.19615">
        <ele>1061.43</ele>
        <time>2013-01-13T10:21:43Z</time>
      </trkpt>
      <trkpt lat="44.11124" lon="6.19615">
        <ele>1062.39</ele>
        <time>2013-01-13T10:21:50Z</time>
      </trkpt>
      <trkpt lat="44.11129" lon="6.19617">
        <ele>1062.87</ele>
        <time>2013-01-13T10:21:56Z</time>
      </trkpt>
      <trkpt lat="44.11133" lon="6.19618">
        <ele>1063.84</ele>
        <time>2013-01-13T10:22:00Z</time>
      </trkpt>
      <trkpt lat="44.11145" lon="6.19622">
        <ele>1065.28</ele>
        <time>2013-01-13T10:22:15Z</time>
      </trkpt>
      <trkpt lat="44.11152" lon="6.19626">
        <ele>1067.68</ele>
        <time>2013-01-13T10:22:27Z</time>
      </trkpt>
      <trkpt lat="44.11162" lon="6.19627">
        <ele>1069.12</ele>
        <time>2013-01-13T10:22:41Z</time>
      </trkpt>
      <trkpt lat="44.1117" lon="6.19622">
        <ele>1070.08</ele>
        <time>2013-01-13T10:22:53Z</time>
      </trkpt>
      <trkpt lat="44.11182" lon="6.19615">
        <ele>1072.49</ele>
        <time>2013-01-13T10:23:08Z</time>
      </trkpt>
      <trkpt lat="44.11194" lon="6.19608">
        <ele>1074.41</ele>
        <time>2013-01-13T10:23:24Z</time>
      </trkpt>
      <trkpt lat="44.11202" lon="6.19601">
        <ele>1075.85</ele>
        <time>2013-01-13T10:23:37Z</time>
      </trkpt>
      <trkpt lat="44.11211" lon="6.19599">
        <ele>1077.29</ele>
        <time>2013-01-13T10:23:50Z</time>
      </trkpt>
      <trkpt lat="44.11221" lon="6.19596">
        <ele>1078.26</ele>
        <time>2013-01-13T10:24:03Z</time>
      </trkpt>
      <trkpt lat="44.11228" lon="6.19594">
        <ele>1080.18</ele>
        <time>2013-01-13T10:24:11Z</time>
      </trkpt>
      <trkpt lat="44.11239" lon="6.19591">
        <ele>1081.62</ele>
        <time>2013-01-13T10:24:25Z</time>
      </trkpt>
      <trkpt lat="44.1124" lon="6.19591">
        <ele>1081.62</ele>
        <time>2013-01-13T10:24:26Z</time>
      </trkpt>
      <trkpt lat="44.11248" lon="6.19587">
        <ele>1082.58</ele>
        <time>2013-01-13T10:24:35Z</time>
      </trkpt>
      <trkpt lat="44.11253" lon="6.19585">
        <ele>1084.02</ele>
        <time>2013-01-13T10:24:41Z</time>
      </trkpt>
      <trkpt lat="44.11268" lon="6.19582">
        <ele>1085.47</ele>
        <time>2013-01-13T10:24:58Z</time>
      </trkpt>
      <trkpt lat="44.1127" lon="6.19582">
        <ele>1086.91</ele>
        <time>2013-01-13T10:25:02Z</time>
      </trkpt>
      <trkpt lat="44.11279" lon="6.19579">
        <ele>1088.35</ele>
        <time>2013-01-13T10:25:16Z</time>
      </trkpt>
      <trkpt lat="44.11288" lon="6.19575">
        <ele>1089.79</ele>
        <time>2013-01-13T10:25:31Z</time>
      </trkpt>
      <trkpt lat="44.11293" lon="6.19575">
        <ele>1091.23</ele>
        <time>2013-01-13T10:25:37Z</time>
      </trkpt>
      <trkpt lat="44.113" lon="6.19575">
        <ele>1092.2</ele>
        <time>2013-01-13T10:25:49Z</time>
      </trkpt>
      <trkpt lat="44.11307" lon="6.19576">
        <ele>1094.12</ele>
        <time>2013-01-13T10:26:02Z</time>
      </trkpt>
      <trkpt lat="44.11313" lon="6.19579">
        <ele>1096.04</ele>
        <time>2013-01-13T10:26:13Z</time>
      </trkpt>
      <trkpt lat="44.11319" lon="6.19579">
        <ele>1096.04</ele>
        <time>2013-01-13T10:26:19Z</time>
      </trkpt>
      <trkpt lat="44.11327" lon="6.19585">
        <ele>1097.48</ele>
        <time>2013-01-13T10:26:30Z</time>
      </trkpt>
      <trkpt lat="44.11329" lon="6.19587">
        <ele>1097</ele>
        <time>2013-01-13T10:26:32Z</time>
      </trkpt>
      <trkpt lat="44.11335" lon="6.1959">
        <ele>1098.44</ele>
        <time>2013-01-13T10:26:42Z</time>
      </trkpt>
      <trkpt lat="44.11338" lon="6.19591">
        <ele>1098.92</ele>
        <time>2013-01-13T10:26:45Z</time>
      </trkpt>
      <trkpt lat="44.11342" lon="6.1959">
        <ele>1099.4</ele>
        <time>2013-01-13T10:26:49Z</time>
      </trkpt>
      <trkpt lat="44.11345" lon="6.19584">
        <ele>1101.33</ele>
        <time>2013-01-13T10:26:58Z</time>
      </trkpt>
      <trkpt lat="44.1135" lon="6.19573">
        <ele>1102.77</ele>
        <time>2013-01-13T10:27:11Z</time>
      </trkpt>
      <trkpt lat="44.11354" lon="6.19563">
        <ele>1104.69</ele>
        <time>2013-01-13T10:27:24Z</time>
      </trkpt>
      <trkpt lat="44.11361" lon="6.19553">
        <ele>1105.65</ele>
        <time>2013-01-13T10:27:38Z</time>
      </trkpt>
      <trkpt lat="44.11366" lon="6.19549">
        <ele>1107.58</ele>
        <time>2013-01-13T10:27:51Z</time>
      </trkpt>
      <trkpt lat="44.11373" lon="6.19545">
        <ele>1109.02</ele>
        <time>2013-01-13T10:28:05Z</time>
      </trkpt>
      <trkpt lat="44.11379" lon="6.19541">
        <ele>1111.42</ele>
        <time>2013-01-13T10:28:19Z</time>
      </trkpt>
      <trkpt lat="44.11378" lon="6.1955">
        <ele>1112.38</ele>
        <time>2013-01-13T10:28:29Z</time>
      </trkpt>
      <trkpt lat="44.11373" lon="6.19562">
        <ele>1114.79</ele>
        <time>2013-01-13T10:28:44Z</time>
      </trkpt>
      <trkpt lat="44.11371" lon="6.19572">
        <ele>1115.75</ele>
        <time>2013-01-13T10:29:00Z</time>
      </trkpt>
      <trkpt lat="44.11372" lon="6.19579">
        <ele>1117.67</ele>
        <time>2013-01-13T10:29:12Z</time>
      </trkpt>
      <trkpt lat="44.11382" lon="6.19557">
        <ele>1118.15</ele>
        <time>2013-01-13T10:29:28Z</time>
      </trkpt>
      <trkpt lat="44.11383" lon="6.19554">
        <ele>1118.15</ele>
        <time>2013-01-13T10:29:30Z</time>
      </trkpt>
      <trkpt lat="44.11389" lon="6.19548">
        <ele>1119.11</ele>
        <time>2013-01-13T10:29:38Z</time>
      </trkpt>
      <trkpt lat="44.11394" lon="6.19546">
        <ele>1120.07</ele>
        <time>2013-01-13T10:29:46Z</time>
      </trkpt>
      <trkpt lat="44.11395" lon="6.19543">
        <ele>1120.55</ele>
        <time>2013-01-13T10:29:49Z</time>
      </trkpt>
      <trkpt lat="44.11406" lon="6.19532">
        <ele>1122.48</ele>
        <time>2013-01-13T10:30:05Z</time>
      </trkpt>
      <trkpt lat="44.11413" lon="6.19528">
        <ele>1123.92</ele>
        <time>2013-01-13T10:30:19Z</time>
      </trkpt>
      <trkpt lat="44.11417" lon="6.19525">
        <ele>1124.4</ele>
        <time>2013-01-13T10:30:25Z</time>
      </trkpt>
      <trkpt lat="44.11429" lon="6.19516">
        <ele>1125.36</ele>
        <time>2013-01-13T10:30:39Z</time>
      </trkpt>
      <trkpt lat="44.11431" lon="6.19506">
        <ele>1126.32</ele>
        <time>2013-01-13T10:30:50Z</time>
      </trkpt>
      <trkpt lat="44.11432" lon="6.195">
        <ele>1127.76</ele>
        <time>2013-01-13T10:30:56Z</time>
      </trkpt>
      <trkpt lat="44.11438" lon="6.1949">
        <ele>1129.21</ele>
        <time>2013-01-13T10:31:10Z</time>
      </trkpt>
      <trkpt lat="44.11444" lon="6.19487">
        <ele>1131.13</ele>
        <time>2013-01-13T10:31:21Z</time>
      </trkpt>
      <trkpt lat="44.11446" lon="6.19487">
        <ele>1133.05</ele>
        <time>2013-01-13T10:31:26Z</time>
      </trkpt>
      <trkpt lat="44.11454" lon="6.19489">
        <ele>1134.49</ele>
        <time>2013-01-13T10:31:39Z</time>
      </trkpt>
      <trkpt lat="44.11457" lon="6.19489">
        <ele>1134.97</ele>
        <time>2013-01-13T10:31:43Z</time>
      </trkpt>
      <trkpt lat="44.11461" lon="6.19488">
        <ele>1134.01</ele>
        <time>2013-01-13T10:31:47Z</time>
      </trkpt>
      <trkpt lat="44.11473" lon="6.19485">
        <ele>1136.42</ele>
        <time>2013-01-13T10:32:02Z</time>
      </trkpt>
      <trkpt lat="44.11482" lon="6.19491">
        <ele>1138.34</ele>
        <time>2013-01-13T10:32:17Z</time>
      </trkpt>
      <trkpt lat="44.11491" lon="6.19485">
        <ele>1140.26</ele>
        <time>2013-01-13T10:32:32Z</time>
      </trkpt>
      <trkpt lat="44.11504" lon="6.19492">
        <ele>1140.74</ele>
        <time>2013-01-13T10:32:46Z</time>
      </trkpt>
      <trkpt lat="44.11512" lon="6.19493">
        <ele>1142.18</ele>
        <time>2013-01-13T10:32:58Z</time>
      </trkpt>
      <trkpt lat="44.11522" lon="6.19496">
        <ele>1144.59</ele>
        <time>2013-01-13T10:33:14Z</time>
      </trkpt>
      <trkpt lat="44.11531" lon="6.19499">
        <ele>1146.03</ele>
        <time>2013-01-13T10:33:28Z</time>
      </trkpt>
      <trkpt lat="44.1154" lon="6.19501">
        <ele>1148.43</ele>
        <time>2013-01-13T10:33:43Z</time>
      </trkpt>
      <trkpt lat="44.11548" lon="6.19503">
        <ele>1149.87</ele>
        <time>2013-01-13T10:33:56Z</time>
      </trkpt>
      <trkpt lat="44.11557" lon="6.19504">
        <ele>1152.28</ele>
        <time>2013-01-13T10:34:11Z</time>
      </trkpt>
      <trkpt lat="44.11564" lon="6.19505">
        <ele>1153.24</ele>
        <time>2013-01-13T10:34:22Z</time>
      </trkpt>
      <trkpt lat="44.11574" lon="6.19507">
        <ele>1155.64</ele>
        <time>2013-01-13T10:34:34Z</time>
      </trkpt>
      <trkpt lat="44.11583" lon="6.19509">
        <ele>1157.56</ele>
        <time>2013-01-13T10:34:47Z</time>
      </trkpt>
      <trkpt lat="44.1159" lon="6.19511">
        <ele>1159.97</ele>
        <time>2013-01-13T10:35:01Z</time>
      </trkpt>
      <trkpt lat="44.11597" lon="6.19514">
        <ele>1161.41</ele>
        <time>2013-01-13T10:35:15Z</time>
      </trkpt>
      <trkpt lat="44.11604" lon="6.1952">
        <ele>1163.33</ele>
        <time>2013-01-13T10:35:30Z</time>
      </trkpt>
      <trkpt lat="44.11611" lon="6.19522">
        <ele>1164.77</ele>
        <time>2013-01-13T10:35:42Z</time>
      </trkpt>
      <trkpt lat="44.11613" lon="6.19522">
        <ele>1164.77</ele>
        <time>2013-01-13T10:35:44Z</time>
      </trkpt>
      <trkpt lat="44.11624" lon="6.19527">
        <ele>1166.22</ele>
        <time>2013-01-13T10:35:59Z</time>
      </trkpt>
      <trkpt lat="44.11632" lon="6.19535">
        <ele>1168.14</ele>
        <time>2013-01-13T10:36:13Z</time>
      </trkpt>
      <trkpt lat="44.1164" lon="6.19541">
        <ele>1170.54</ele>
        <time>2013-01-13T10:36:27Z</time>
      </trkpt>
      <trkpt lat="44.11648" lon="6.19547">
        <ele>1171.5</ele>
        <time>2013-01-13T10:36:41Z</time>
      </trkpt>
      <trkpt lat="44.11659" lon="6.1954">
        <ele>1172.47</ele>
        <time>2013-01-13T10:36:57Z</time>
      </trkpt>
      <trkpt lat="44.11668" lon="6.19532">
        <ele>1173.43</ele>
        <time>2013-01-13T10:37:11Z</time>
      </trkpt>
      <trkpt lat="44.11673" lon="6.19518">
        <ele>1175.35</ele>
        <time>2013-01-13T10:37:25Z</time>
      </trkpt>
      <trkpt lat="44.11676" lon="6.19502">
        <ele>1176.79</ele>
        <time>2013-01-13T10:37:39Z</time>
      </trkpt>
      <trkpt lat="44.11677" lon="6.19487">
        <ele>1177.75</ele>
        <time>2013-01-13T10:37:51Z</time>
      </trkpt>
      <trkpt lat="44.11686" lon="6.19474">
        <ele>1179.67</ele>
        <time>2013-01-13T10:38:08Z</time>
      </trkpt>
      <trkpt lat="44.11686" lon="6.19475">
        <ele>1180.16</ele>
        <time>2013-01-13T10:38:09Z</time>
      </trkpt>
      <trkpt lat="44.11686" lon="6.19484">
        <ele>1181.6</ele>
        <time>2013-01-13T10:38:17Z</time>
      </trkpt>
      <trkpt lat="44.1169" lon="6.19502">
        <ele>1184</ele>
        <time>2013-01-13T10:38:36Z</time>
      </trkpt>
      <trkpt lat="44.11697" lon="6.19517">
        <ele>1185.44</ele>
        <time>2013-01-13T10:38:52Z</time>
      </trkpt>
      <trkpt lat="44.11705" lon="6.19527">
        <ele>1187.37</ele>
        <time>2013-01-13T10:39:08Z</time>
      </trkpt>
      <trkpt lat="44.11713" lon="6.19533">
        <ele>1189.77</ele>
        <time>2013-01-13T10:39:23Z</time>
      </trkpt>
      <trkpt lat="44.11715" lon="6.19536">
        <ele>1190.25</ele>
        <time>2013-01-13T10:39:26Z</time>
      </trkpt>
      <trkpt lat="44.11719" lon="6.19542">
        <ele>1189.77</ele>
        <time>2013-01-13T10:39:31Z</time>
      </trkpt>
      <trkpt lat="44.11723" lon="6.19549">
        <ele>1189.29</ele>
        <time>2013-01-13T10:39:36Z</time>
      </trkpt>
      <trkpt lat="44.11728" lon="6.19573">
        <ele>1189.29</ele>
        <time>2013-01-13T10:39:51Z</time>
      </trkpt>
      <trkpt lat="44.11734" lon="6.19598">
        <ele>1190.25</ele>
        <time>2013-01-13T10:40:07Z</time>
      </trkpt>
      <trkpt lat="44.11741" lon="6.19617">
        <ele>1191.21</ele>
        <time>2013-01-13T10:40:22Z</time>
      </trkpt>
      <trkpt lat="44.11745" lon="6.19636">
        <ele>1194.09</ele>
        <time>2013-01-13T10:40:38Z</time>
      </trkpt>
      <trkpt lat="44.11747" lon="6.19654">
        <ele>1196.02</ele>
        <time>2013-01-13T10:40:54Z</time>
      </trkpt>
      <trkpt lat="44.1175" lon="6.1967">
        <ele>1198.9</ele>
        <time>2013-01-13T10:41:10Z</time>
      </trkpt>
      <trkpt lat="44.11754" lon="6.19686">
        <ele>1201.3</ele>
        <time>2013-01-13T10:41:27Z</time>
      </trkpt>
      <trkpt lat="44.11757" lon="6.19695">
        <ele>1202.75</ele>
        <time>2013-01-13T10:41:42Z</time>
      </trkpt>
      <trkpt lat="44.11765" lon="6.19698">
        <ele>1205.15</ele>
        <time>2013-01-13T10:41:57Z</time>
      </trkpt>
      <trkpt lat="44.11773" lon="6.19702">
        <ele>1207.07</ele>
        <time>2013-01-13T10:42:12Z</time>
      </trkpt>
      <trkpt lat="44.11782" lon="6.19706">
        <ele>1209.48</ele>
        <time>2013-01-13T10:42:28Z</time>
      </trkpt>
      <trkpt lat="44.11792" lon="6.19708">
        <ele>1211.4</ele>
        <time>2013-01-13T10:42:42Z</time>
      </trkpt>
      <trkpt lat="44.11803" lon="6.19708">
        <ele>1212.84</ele>
        <time>2013-01-13T10:42:57Z</time>
      </trkpt>
      <trkpt lat="44.1181" lon="6.19714">
        <ele>1216.21</ele>
        <time>2013-01-13T10:43:12Z</time>
      </trkpt>
      <trkpt lat="44.1181" lon="6.19713">
        <ele>1216.69</ele>
        <time>2013-01-13T10:43:19Z</time>
      </trkpt>
      <trkpt lat="44.11812" lon="6.19714">
        <ele>1217.17</ele>
        <time>2013-01-13T10:43:21Z</time>
      </trkpt>
      <trkpt lat="44.11814" lon="6.19715">
        <ele>1217.17</ele>
        <time>2013-01-13T10:43:23Z</time>
      </trkpt>
      <trkpt lat="44.11827" lon="6.19719">
        <ele>1219.57</ele>
        <time>2013-01-13T10:43:42Z</time>
      </trkpt>
      <trkpt lat="44.11837" lon="6.1972">
        <ele>1221.49</ele>
        <time>2013-01-13T10:43:59Z</time>
      </trkpt>
      <trkpt lat="44.11847" lon="6.19723">
        <ele>1223.9</ele>
        <time>2013-01-13T10:44:15Z</time>
      </trkpt>
      <trkpt lat="44.11851" lon="6.19723">
        <ele>1225.82</ele>
        <time>2013-01-13T10:44:32Z</time>
      </trkpt>
      <trkpt lat="44.11853" lon="6.19725">
        <ele>1227.26</ele>
        <time>2013-01-13T10:44:42Z</time>
      </trkpt>
      <trkpt lat="44.11854" lon="6.19726">
        <ele>1227.74</ele>
        <time>2013-01-13T10:44:45Z</time>
      </trkpt>
      <trkpt lat="44.11866" lon="6.19729">
        <ele>1229.18</ele>
        <time>2013-01-13T10:44:58Z</time>
      </trkpt>
      <trkpt lat="44.11876" lon="6.1973">
        <ele>1231.59</ele>
        <time>2013-01-13T10:45:14Z</time>
      </trkpt>
      <trkpt lat="44.11884" lon="6.19735">
        <ele>1233.51</ele>
        <time>2013-01-13T10:45:29Z</time>
      </trkpt>
      <trkpt lat="44.11894" lon="6.19735">
        <ele>1235.91</ele>
        <time>2013-01-13T10:45:46Z</time>
      </trkpt>
      <trkpt lat="44.11904" lon="6.19733">
        <ele>1237.35</ele>
        <time>2013-01-13T10:46:01Z</time>
      </trkpt>
      <trkpt lat="44.11912" lon="6.19734">
        <ele>1238.8</ele>
        <time>2013-01-13T10:46:17Z</time>
      </trkpt>
      <trkpt lat="44.11923" lon="6.1974">
        <ele>1240.24</ele>
        <time>2013-01-13T10:46:33Z</time>
      </trkpt>
      <trkpt lat="44.11935" lon="6.19737">
        <ele>1241.68</ele>
        <time>2013-01-13T10:46:50Z</time>
      </trkpt>
      <trkpt lat="44.11949" lon="6.19734">
        <ele>1243.6</ele>
        <time>2013-01-13T10:47:08Z</time>
      </trkpt>
      <trkpt lat="44.1195" lon="6.19733">
        <ele>1243.12</ele>
        <time>2013-01-13T10:47:10Z</time>
      </trkpt>
      <trkpt lat="44.1196" lon="6.1973">
        <ele>1245.04</ele>
        <time>2013-01-13T10:47:23Z</time>
      </trkpt>
      <trkpt lat="44.11971" lon="6.19726">
        <ele>1246.97</ele>
        <time>2013-01-13T10:47:40Z</time>
      </trkpt>
      <trkpt lat="44.11977" lon="6.19721">
        <ele>1249.37</ele>
        <time>2013-01-13T10:47:55Z</time>
      </trkpt>
      <trkpt lat="44.11986" lon="6.19715">
        <ele>1251.29</ele>
        <time>2013-01-13T10:48:10Z</time>
      </trkpt>
      <trkpt lat="44.1199" lon="6.19713">
        <ele>1254.18</ele>
        <time>2013-01-13T10:48:25Z</time>
      </trkpt>
      <trkpt lat="44.1199" lon="6.19713">
        <ele>1255.62</ele>
        <time>2013-01-13T10:48:40Z</time>
      </trkpt>
      <trkpt lat="44.11996" lon="6.19719">
        <ele>1257.06</ele>
        <time>2013-01-13T10:48:52Z</time>
      </trkpt>
      <trkpt lat="44.12013" lon="6.19714">
        <ele>1258.98</ele>
        <time>2013-01-13T10:49:08Z</time>
      </trkpt>
      <trkpt lat="44.1202" lon="6.19714">
        <ele>1261.39</ele>
        <time>2013-01-13T10:49:23Z</time>
      </trkpt>
      <trkpt lat="44.12022" lon="6.19712">
        <ele>1262.35</ele>
        <time>2013-01-13T10:49:36Z</time>
      </trkpt>
      <trkpt lat="44.1203" lon="6.19702">
        <ele>1264.75</ele>
        <time>2013-01-13T10:49:51Z</time>
      </trkpt>
      <trkpt lat="44.12035" lon="6.19697">
        <ele>1265.71</ele>
        <time>2013-01-13T10:50:07Z</time>
      </trkpt>
      <trkpt lat="44.12037" lon="6.19697">
        <ele>1265.71</ele>
        <time>2013-01-13T10:50:10Z</time>
      </trkpt>
      <trkpt lat="44.1204" lon="6.19698">
        <ele>1265.71</ele>
        <time>2013-01-13T10:50:37Z</time>
      </trkpt>
      <trkpt lat="44.1204" lon="6.19698">
        <ele>1264.75</ele>
        <time>2013-01-13T10:51:07Z</time>
      </trkpt>
      <trkpt lat="44.12058" lon="6.19696">
        <ele>1265.71</ele>
        <time>2013-01-13T10:51:25Z</time>
      </trkpt>
      <trkpt lat="44.12074" lon="6.197">
        <ele>1267.16</ele>
        <time>2013-01-13T10:51:34Z</time>
      </trkpt>
      <trkpt lat="44.12084" lon="6.19702">
        <ele>1269.56</ele>
        <time>2013-01-13T10:51:50Z</time>
      </trkpt>
      <trkpt lat="44.12087" lon="6.19701">
        <ele>1270.04</ele>
        <time>2013-01-13T10:51:53Z</time>
      </trkpt>
      <trkpt lat="44.12101" lon="6.19698">
        <ele>1271</ele>
        <time>2013-01-13T10:52:10Z</time>
      </trkpt>
      <trkpt lat="44.12111" lon="6.19693">
        <ele>1273.88</ele>
        <time>2013-01-13T10:52:26Z</time>
      </trkpt>
      <trkpt lat="44.1212" lon="6.19695">
        <ele>1275.81</ele>
        <time>2013-01-13T10:52:42Z</time>
      </trkpt>
      <trkpt lat="44.12128" lon="6.19696">
        <ele>1277.25</ele>
        <time>2013-01-13T10:52:55Z</time>
      </trkpt>
      <trkpt lat="44.1213" lon="6.19694">
        <ele>1277.73</ele>
        <time>2013-01-13T10:52:57Z</time>
      </trkpt>
      <trkpt lat="44.12145" lon="6.19687">
        <ele>1276.77</ele>
        <time>2013-01-13T10:53:14Z</time>
      </trkpt>
      <trkpt lat="44.12154" lon="6.19677">
        <ele>1278.69</ele>
        <time>2013-01-13T10:53:29Z</time>
      </trkpt>
      <trkpt lat="44.12156" lon="6.19679">
        <ele>1280.13</ele>
        <time>2013-01-13T10:53:40Z</time>
      </trkpt>
      <trkpt lat="44.12174" lon="6.19688">
        <ele>1282.54</ele>
        <time>2013-01-13T10:53:59Z</time>
      </trkpt>
      <trkpt lat="44.12181" lon="6.19692">
        <ele>1283.98</ele>
        <time>2013-01-13T10:54:07Z</time>
      </trkpt>
      <trkpt lat="44.12195" lon="6.19691">
        <ele>1285.42</ele>
        <time>2013-01-13T10:54:24Z</time>
      </trkpt>
      <trkpt lat="44.12196" lon="6.1969">
        <ele>1285.9</ele>
        <time>2013-01-13T10:54:25Z</time>
      </trkpt>
      <trkpt lat="44.12199" lon="6.19686">
        <ele>1285.42</ele>
        <time>2013-01-13T10:54:29Z</time>
      </trkpt>
      <trkpt lat="44.12216" lon="6.19679">
        <ele>1287.34</ele>
        <time>2013-01-13T10:54:48Z</time>
      </trkpt>
      <trkpt lat="44.12228" lon="6.19674">
        <ele>1287.82</ele>
        <time>2013-01-13T10:55:03Z</time>
      </trkpt>
      <trkpt lat="44.12241" lon="6.1967">
        <ele>1290.71</ele>
        <time>2013-01-13T10:55:18Z</time>
      </trkpt>
      <trkpt lat="44.12245" lon="6.19669">
        <ele>1291.67</ele>
        <time>2013-01-13T10:55:23Z</time>
      </trkpt>
      <trkpt lat="44.12259" lon="6.19666">
        <ele>1293.11</ele>
        <time>2013-01-13T10:55:39Z</time>
      </trkpt>
      <trkpt lat="44.12262" lon="6.19667">
        <ele>1293.59</ele>
        <time>2013-01-13T10:55:45Z</time>
      </trkpt>
      <trkpt lat="44.12267" lon="6.19677">
        <ele>1294.55</ele>
        <time>2013-01-13T10:56:00Z</time>
      </trkpt>
      <trkpt lat="44.12276" lon="6.19689">
        <ele>1296.96</ele>
        <time>2013-01-13T10:56:18Z</time>
      </trkpt>
      <trkpt lat="44.12287" lon="6.19701">
        <ele>1299.84</ele>
        <time>2013-01-13T10:56:34Z</time>
      </trkpt>
      <trkpt lat="44.12291" lon="6.19707">
        <ele>1300.32</ele>
        <time>2013-01-13T10:56:41Z</time>
      </trkpt>
      <trkpt lat="44.12307" lon="6.19721">
        <ele>1300.8</ele>
        <time>2013-01-13T10:57:00Z</time>
      </trkpt>
      <trkpt lat="44.12308" lon="6.19722">
        <ele>1301.28</ele>
        <time>2013-01-13T10:57:03Z</time>
      </trkpt>
      <trkpt lat="44.1231" lon="6.19722">
        <ele>1301.28</ele>
        <time>2013-01-13T10:57:05Z</time>
      </trkpt>
      <trkpt lat="44.12315" lon="6.19722">
        <ele>1300.8</ele>
        <time>2013-01-13T10:57:09Z</time>
      </trkpt>
      <trkpt lat="44.12318" lon="6.19729">
        <ele>1301.76</ele>
        <time>2013-01-13T10:57:16Z</time>
      </trkpt>
      <trkpt lat="44.12331" lon="6.19741">
        <ele>1303.2</ele>
        <time>2013-01-13T10:57:33Z</time>
      </trkpt>
      <trkpt lat="44.12331" lon="6.19743">
        <ele>1303.69</ele>
        <time>2013-01-13T10:57:35Z</time>
      </trkpt>
      <trkpt lat="44.12338" lon="6.19758">
        <ele>1305.13</ele>
        <time>2013-01-13T10:57:50Z</time>
      </trkpt>
      <trkpt lat="44.1234" lon="6.19763">
        <ele>1305.13</ele>
        <time>2013-01-13T10:57:54Z</time>
      </trkpt>
      <trkpt lat="44.1234" lon="6.19765">
        <ele>1305.13</ele>
        <time>2013-01-13T10:57:56Z</time>
      </trkpt>
      <trkpt lat="44.12341" lon="6.19781">
        <ele>1307.53</ele>
        <time>2013-01-13T10:58:12Z</time>
      </trkpt>
      <trkpt lat="44.12342" lon="6.19794">
        <ele>1310.9</ele>
        <time>2013-01-13T10:58:26Z</time>
      </trkpt>
      <trkpt lat="44.12345" lon="6.19807">
        <ele>1312.34</ele>
        <time>2013-01-13T10:58:41Z</time>
      </trkpt>
      <trkpt lat="44.12342" lon="6.19817">
        <ele>1314.26</ele>
        <time>2013-01-13T10:58:56Z</time>
      </trkpt>
      <trkpt lat="44.12346" lon="6.19824">
        <ele>1314.74</ele>
        <time>2013-01-13T10:59:09Z</time>
      </trkpt>
      <trkpt lat="44.1235" lon="6.19828">
        <ele>1314.26</ele>
        <time>2013-01-13T10:59:16Z</time>
      </trkpt>
      <trkpt lat="44.12355" lon="6.19832">
        <ele>1314.74</ele>
        <time>2013-01-13T10:59:23Z</time>
      </trkpt>
      <trkpt lat="44.12358" lon="6.19844">
        <ele>1317.14</ele>
        <time>2013-01-13T10:59:39Z</time>
      </trkpt>
      <trkpt lat="44.12365" lon="6.1985">
        <ele>1319.07</ele>
        <time>2013-01-13T10:59:54Z</time>
      </trkpt>
      <trkpt lat="44.12373" lon="6.19849">
        <ele>1320.51</ele>
        <time>2013-01-13T11:00:07Z</time>
      </trkpt>
      <trkpt lat="44.1238" lon="6.19853">
        <ele>1323.39</ele>
        <time>2013-01-13T11:00:20Z</time>
      </trkpt>
      <trkpt lat="44.12384" lon="6.19852">
        <ele>1324.35</ele>
        <time>2013-01-13T11:00:28Z</time>
      </trkpt>
      <trkpt lat="44.12393" lon="6.19842">
        <ele>1325.31</ele>
        <time>2013-01-13T11:00:45Z</time>
      </trkpt>
      <trkpt lat="44.12403" lon="6.19842">
        <ele>1326.76</ele>
        <time>2013-01-13T11:01:00Z</time>
      </trkpt>
      <trkpt lat="44.12414" lon="6.19842">
        <ele>1329.16</ele>
        <time>2013-01-13T11:01:18Z</time>
      </trkpt>
      <trkpt lat="44.1242" lon="6.19846">
        <ele>1331.56</ele>
        <time>2013-01-13T11:01:32Z</time>
      </trkpt>
      <trkpt lat="44.12425" lon="6.19845">
        <ele>1332.52</ele>
        <time>2013-01-13T11:01:50Z</time>
      </trkpt>
      <trkpt lat="44.12426" lon="6.19845">
        <ele>1332.04</ele>
        <time>2013-01-13T11:02:07Z</time>
      </trkpt>
      <trkpt lat="44.12431" lon="6.19845">
        <ele>1332.52</ele>
        <time>2013-01-13T11:02:11Z</time>
      </trkpt>
      <trkpt lat="44.12444" lon="6.19843">
        <ele>1334.93</ele>
        <time>2013-01-13T11:02:28Z</time>
      </trkpt>
      <trkpt lat="44.12457" lon="6.19846">
        <ele>1336.85</ele>
        <time>2013-01-13T11:02:46Z</time>
      </trkpt>
      <trkpt lat="44.12468" lon="6.19849">
        <ele>1339.25</ele>
        <time>2013-01-13T11:03:01Z</time>
      </trkpt>
      <trkpt lat="44.12469" lon="6.19849">
        <ele>1340.22</ele>
        <time>2013-01-13T11:03:08Z</time>
      </trkpt>
      <trkpt lat="44.12474" lon="6.19847">
        <ele>1340.22</ele>
        <time>2013-01-13T11:03:12Z</time>
      </trkpt>
      <trkpt lat="44.12489" lon="6.19849">
        <ele>1341.66</ele>
        <time>2013-01-13T11:03:27Z</time>
      </trkpt>
      <trkpt lat="44.12508" lon="6.19847">
        <ele>1341.66</ele>
        <time>2013-01-13T11:03:44Z</time>
      </trkpt>
      <trkpt lat="44.12518" lon="6.19842">
        <ele>1343.1</ele>
        <time>2013-01-13T11:04:00Z</time>
      </trkpt>
      <trkpt lat="44.12522" lon="6.19841">
        <ele>1344.06</ele>
        <time>2013-01-13T11:04:12Z</time>
      </trkpt>
      <trkpt lat="44.12532" lon="6.19832">
        <ele>1344.54</ele>
        <time>2013-01-13T11:04:23Z</time>
      </trkpt>
      <trkpt lat="44.12546" lon="6.1982">
        <ele>1345.98</ele>
        <time>2013-01-13T11:04:41Z</time>
      </trkpt>
      <trkpt lat="44.12557" lon="6.19809">
        <ele>1347.43</ele>
        <time>2013-01-13T11:04:56Z</time>
      </trkpt>
      <trkpt lat="44.12569" lon="6.19796">
        <ele>1349.83</ele>
        <time>2013-01-13T11:05:14Z</time>
      </trkpt>
      <trkpt lat="44.12579" lon="6.19789">
        <ele>1351.75</ele>
        <time>2013-01-13T11:05:28Z</time>
      </trkpt>
      <trkpt lat="44.12583" lon="6.19786">
        <ele>1353.67</ele>
        <time>2013-01-13T11:05:38Z</time>
      </trkpt>
      <trkpt lat="44.12591" lon="6.19781">
        <ele>1353.67</ele>
        <time>2013-01-13T11:05:47Z</time>
      </trkpt>
      <trkpt lat="44.12607" lon="6.19774">
        <ele>1355.12</ele>
        <time>2013-01-13T11:06:03Z</time>
      </trkpt>
      <trkpt lat="44.1262" lon="6.19775">
        <ele>1357.04</ele>
        <time>2013-01-13T11:06:19Z</time>
      </trkpt>
      <trkpt lat="44.12635" lon="6.19774">
        <ele>1360.4</ele>
        <time>2013-01-13T11:06:36Z</time>
      </trkpt>
      <trkpt lat="44.12648" lon="6.19771">
        <ele>1361.36</ele>
        <time>2013-01-13T11:06:52Z</time>
      </trkpt>
      <trkpt lat="44.12658" lon="6.19771">
        <ele>1363.77</ele>
        <time>2013-01-13T11:07:08Z</time>
      </trkpt>
      <trkpt lat="44.12672" lon="6.19771">
        <ele>1366.65</ele>
        <time>2013-01-13T11:07:25Z</time>
      </trkpt>
      <trkpt lat="44.12682" lon="6.19773">
        <ele>1368.09</ele>
        <time>2013-01-13T11:07:39Z</time>
      </trkpt>
      <trkpt lat="44.12693" lon="6.19773">
        <ele>1370.5</ele>
        <time>2013-01-13T11:07:55Z</time>
      </trkpt>
      <trkpt lat="44.12704" lon="6.19767">
        <ele>1372.42</ele>
        <time>2013-01-13T11:08:10Z</time>
      </trkpt>
      <trkpt lat="44.12717" lon="6.19768">
        <ele>1374.34</ele>
        <time>2013-01-13T11:08:25Z</time>
      </trkpt>
      <trkpt lat="44.12725" lon="6.19767">
        <ele>1376.75</ele>
        <time>2013-01-13T11:08:40Z</time>
      </trkpt>
      <trkpt lat="44.1273" lon="6.19766">
        <ele>1377.23</ele>
        <time>2013-01-13T11:09:04Z</time>
      </trkpt>
      <trkpt lat="44.12745" lon="6.19761">
        <ele>1378.19</ele>
        <time>2013-01-13T11:09:19Z</time>
      </trkpt>
      <trkpt lat="44.12753" lon="6.19755">
        <ele>1379.15</ele>
        <time>2013-01-13T11:09:34Z</time>
      </trkpt>
      <trkpt lat="44.12758" lon="6.19754">
        <ele>1380.11</ele>
        <time>2013-01-13T11:09:39Z</time>
      </trkpt>
      <trkpt lat="44.12771" lon="6.19752">
        <ele>1381.55</ele>
        <time>2013-01-13T11:09:53Z</time>
      </trkpt>
      <trkpt lat="44.12777" lon="6.19746">
        <ele>1382.99</ele>
        <time>2013-01-13T11:10:06Z</time>
      </trkpt>
      <trkpt lat="44.12789" lon="6.19741">
        <ele>1384.44</ele>
        <time>2013-01-13T11:10:20Z</time>
      </trkpt>
      <trkpt lat="44.1279" lon="6.1974">
        <ele>1384.92</ele>
        <time>2013-01-13T11:10:22Z</time>
      </trkpt>
      <trkpt lat="44.12803" lon="6.19733">
        <ele>1387.32</ele>
        <time>2013-01-13T11:10:39Z</time>
      </trkpt>
      <trkpt lat="44.12808" lon="6.1973">
        <ele>1387.32</ele>
        <time>2013-01-13T11:10:44Z</time>
      </trkpt>
      <trkpt lat="44.12824" lon="6.19726">
        <ele>1390.2</ele>
        <time>2013-01-13T11:11:02Z</time>
      </trkpt>
      <trkpt lat="44.12833" lon="6.19723">
        <ele>1392.13</ele>
        <time>2013-01-13T11:11:16Z</time>
      </trkpt>
      <trkpt lat="44.1284" lon="6.19721">
        <ele>1393.09</ele>
        <time>2013-01-13T11:11:25Z</time>
      </trkpt>
      <trkpt lat="44.1285" lon="6.19716">
        <ele>1395.49</ele>
        <time>2013-01-13T11:11:40Z</time>
      </trkpt>
      <trkpt lat="44.12859" lon="6.1971">
        <ele>1396.93</ele>
        <time>2013-01-13T11:11:55Z</time>
      </trkpt>
      <trkpt lat="44.12868" lon="6.19711">
        <ele>1399.34</ele>
        <time>2013-01-13T11:12:09Z</time>
      </trkpt>
      <trkpt lat="44.12877" lon="6.19713">
        <ele>1401.74</ele>
        <time>2013-01-13T11:12:24Z</time>
      </trkpt>
      <trkpt lat="44.12883" lon="6.19707">
        <ele>1402.22</ele>
        <time>2013-01-13T11:12:37Z</time>
      </trkpt>
      <trkpt lat="44.12893" lon="6.19704">
        <ele>1403.66</ele>
        <time>2013-01-13T11:12:51Z</time>
      </trkpt>
      <trkpt lat="44.12901" lon="6.19701">
        <ele>1403.66</ele>
        <time>2013-01-13T11:13:07Z</time>
      </trkpt>
      <trkpt lat="44.12901" lon="6.19701">
        <ele>1401.74</ele>
        <time>2013-01-13T11:13:15Z</time>
      </trkpt>
      <trkpt lat="44.12901" lon="6.19701">
        <ele>1404.62</ele>
        <time>2013-01-13T11:13:17Z</time>
      </trkpt>
      <trkpt lat="44.12901" lon="6.19701">
        <ele>1400.3</ele>
        <time>2013-01-13T11:13:21Z</time>
      </trkpt>
      <trkpt lat="44.12901" lon="6.19701">
        <ele>1403.66</ele>
        <time>2013-01-13T11:13:22Z</time>
      </trkpt>
      <trkpt lat="44.12901" lon="6.19701">
        <ele>1401.26</ele>
        <time>2013-01-13T11:13:26Z</time>
      </trkpt>
      <trkpt lat="44.12901" lon="6.19701">
        <ele>1404.62</ele>
        <time>2013-01-13T11:13:27Z</time>
      </trkpt>
      <trkpt lat="44.12901" lon="6.19701">
        <ele>1398.86</ele>
        <time>2013-01-13T11:13:28Z</time>
      </trkpt>
      <trkpt lat="44.12901" lon="6.19701">
        <ele>1406.55</ele>
        <time>2013-01-13T11:13:29Z</time>
      </trkpt>
      <trkpt lat="44.12901" lon="6.19701">
        <ele>1400.78</ele>
        <time>2013-01-13T11:13:31Z</time>
      </trkpt>
      <trkpt lat="44.12901" lon="6.19701">
        <ele>1405.58</ele>
        <time>2013-01-13T11:13:32Z</time>
      </trkpt>
      <trkpt lat="44.12901" lon="6.19701">
        <ele>1401.26</ele>
        <time>2013-01-13T11:13:33Z</time>
      </trkpt>
      <trkpt lat="44.12901" lon="6.19701">
        <ele>1406.55</ele>
        <time>2013-01-13T11:13:34Z</time>
      </trkpt>
      <trkpt lat="44.12901" lon="6.19701">
        <ele>1403.66</ele>
        <time>2013-01-13T11:13:35Z</time>
      </trkpt>
      <trkpt lat="44.12901" lon="6.19701">
        <ele>1399.82</ele>
        <time>2013-01-13T11:13:37Z</time>
      </trkpt>
      <trkpt lat="44.12901" lon="6.19701">
        <ele>1404.62</ele>
        <time>2013-01-13T11:13:38Z</time>
      </trkpt>
      <trkpt lat="44.129" lon="6.19702">
        <ele>1404.14</ele>
        <time>2013-01-13T11:13:52Z</time>
      </trkpt>
      <trkpt lat="44.12899" lon="6.19702">
        <ele>1403.18</ele>
        <time>2013-01-13T11:14:07Z</time>
      </trkpt>
      <trkpt lat="44.12899" lon="6.19703">
        <ele>1403.18</ele>
        <time>2013-01-13T11:14:36Z</time>
      </trkpt>
      <trkpt lat="44.12899" lon="6.19703">
        <ele>1402.7</ele>
        <time>2013-01-13T11:15:06Z</time>
      </trkpt>
      <trkpt lat="44.12899" lon="6.19703">
        <ele>1402.7</ele>
        <time>2013-01-13T11:15:45Z</time>
      </trkpt>
      <trkpt lat="44.12899" lon="6.19704">
        <ele>1403.66</ele>
        <time>2013-01-13T11:16:08Z</time>
      </trkpt>
      <trkpt lat="44.12902" lon="6.19701">
        <ele>1404.14</ele>
        <time>2013-01-13T11:16:29Z</time>
      </trkpt>
      <trkpt lat="44.12912" lon="6.19693">
        <ele>1405.58</ele>
        <time>2013-01-13T11:16:43Z</time>
      </trkpt>
      <trkpt lat="44.12913" lon="6.19695">
        <ele>1405.1</ele>
        <time>2013-01-13T11:16:58Z</time>
      </trkpt>
      <trkpt lat="44.12912" lon="6.19697">
        <ele>1404.62</ele>
        <time>2013-01-13T11:17:15Z</time>
      </trkpt>
      <trkpt lat="44.12912" lon="6.19697">
        <ele>1401.26</ele>
        <time>2013-01-13T11:17:31Z</time>
      </trkpt>
      <trkpt lat="44.12912" lon="6.19697">
        <ele>1405.1</ele>
        <time>2013-01-13T11:17:32Z</time>
      </trkpt>
      <trkpt lat="44.12912" lon="6.19697">
        <ele>1401.26</ele>
        <time>2013-01-13T11:17:34Z</time>
      </trkpt>
      <trkpt lat="44.12912" lon="6.19697">
        <ele>1405.1</ele>
        <time>2013-01-13T11:17:35Z</time>
      </trkpt>
      <trkpt lat="44.12913" lon="6.19698">
        <ele>1402.7</ele>
        <time>2013-01-13T11:17:44Z</time>
      </trkpt>
      <trkpt lat="44.12913" lon="6.19698">
        <ele>1404.62</ele>
        <time>2013-01-13T11:17:46Z</time>
      </trkpt>
      <trkpt lat="44.12913" lon="6.19698">
        <ele>1399.82</ele>
        <time>2013-01-13T11:17:50Z</time>
      </trkpt>
      <trkpt lat="44.12913" lon="6.19698">
        <ele>1406.55</ele>
        <time>2013-01-13T11:17:51Z</time>
      </trkpt>
      <trkpt lat="44.12913" lon="6.19698">
        <ele>1403.66</ele>
        <time>2013-01-13T11:18:03Z</time>
      </trkpt>
      <trkpt lat="44.12913" lon="6.19698">
        <ele>1404.14</ele>
        <time>2013-01-13T11:18:04Z</time>
      </trkpt>
      <trkpt lat="44.12913" lon="6.19705">
        <ele>1404.14</ele>
        <time>2013-01-13T11:18:09Z</time>
      </trkpt>
      <trkpt lat="44.1292" lon="6.19704">
        <ele>1402.22</ele>
        <time>2013-01-13T11:18:20Z</time>
      </trkpt>
      <trkpt lat="44.1293" lon="6.19685">
        <ele>1401.26</ele>
        <time>2013-01-13T11:18:36Z</time>
      </trkpt>
      <trkpt lat="44.12942" lon="6.19662">
        <ele>1401.74</ele>
        <time>2013-01-13T11:18:51Z</time>
      </trkpt>
      <trkpt lat="44.12945" lon="6.19659">
        <ele>1401.26</ele>
        <time>2013-01-13T11:18:55Z</time>
      </trkpt>
      <trkpt lat="44.12962" lon="6.19647">
        <ele>1401.74</ele>
        <time>2013-01-13T11:19:11Z</time>
      </trkpt>
      <trkpt lat="44.12979" lon="6.19642">
        <ele>1402.22</ele>
        <time>2013-01-13T11:19:27Z</time>
      </trkpt>
      <trkpt lat="44.12993" lon="6.1963">
        <ele>1402.7</ele>
        <time>2013-01-13T11:19:42Z</time>
      </trkpt>
      <trkpt lat="44.13012" lon="6.1962">
        <ele>1400.78</ele>
        <time>2013-01-13T11:19:58Z</time>
      </trkpt>
      <trkpt lat="44.13025" lon="6.19615">
        <ele>1399.82</ele>
        <time>2013-01-13T11:20:12Z</time>
      </trkpt>
      <trkpt lat="44.13038" lon="6.19603">
        <ele>1399.82</ele>
        <time>2013-01-13T11:20:28Z</time>
      </trkpt>
      <trkpt lat="44.13045" lon="6.19599">
        <ele>1399.82</ele>
        <time>2013-01-13T11:20:36Z</time>
      </trkpt>
      <trkpt lat="44.13057" lon="6.19597">
        <ele>1400.78</ele>
        <time>2013-01-13T11:20:46Z</time>
      </trkpt>
      <trkpt lat="44.13062" lon="6.19597">
        <ele>1400.3</ele>
        <time>2013-01-13T11:20:49Z</time>
      </trkpt>
      <trkpt lat="44.1308" lon="6.19601">
        <ele>1401.74</ele>
        <time>2013-01-13T11:21:04Z</time>
      </trkpt>
      <trkpt lat="44.13092" lon="6.19602">
        <ele>1402.22</ele>
        <time>2013-01-13T11:21:15Z</time>
      </trkpt>
      <trkpt lat="44.13098" lon="6.19604">
        <ele>1402.7</ele>
        <time>2013-01-13T11:21:20Z</time>
      </trkpt>
      <trkpt lat="44.13118" lon="6.19606">
        <ele>1403.66</ele>
        <time>2013-01-13T11:21:36Z</time>
      </trkpt>
      <trkpt lat="44.13124" lon="6.19608">
        <ele>1404.14</ele>
        <time>2013-01-13T11:21:43Z</time>
      </trkpt>
      <trkpt lat="44.13134" lon="6.19613">
        <ele>1407.03</ele>
        <time>2013-01-13T11:21:58Z</time>
      </trkpt>
      <trkpt lat="44.13138" lon="6.19616">
        <ele>1407.03</ele>
        <time>2013-01-13T11:22:03Z</time>
      </trkpt>
      <trkpt lat="44.13152" lon="6.19627">
        <ele>1405.58</ele>
        <time>2013-01-13T11:22:18Z</time>
      </trkpt>
      <trkpt lat="44.13168" lon="6.19634">
        <ele>1403.18</ele>
        <time>2013-01-13T11:22:33Z</time>
      </trkpt>
      <trkpt lat="44.1319" lon="6.19634">
        <ele>1402.22</ele>
        <time>2013-01-13T11:22:49Z</time>
      </trkpt>
      <trkpt lat="44.13203" lon="6.19634">
        <ele>1403.18</ele>
        <time>2013-01-13T11:22:59Z</time>
      </trkpt>
      <trkpt lat="44.13206" lon="6.19633">
        <ele>1402.7</ele>
        <time>2013-01-13T11:23:03Z</time>
      </trkpt>
      <trkpt lat="44.13222" lon="6.19627">
        <ele>1402.7</ele>
        <time>2013-01-13T11:23:17Z</time>
      </trkpt>
      <trkpt lat="44.13236" lon="6.19617">
        <ele>1403.18</ele>
        <time>2013-01-13T11:23:32Z</time>
      </trkpt>
      <trkpt lat="44.13239" lon="6.19614">
        <ele>1402.7</ele>
        <time>2013-01-13T11:23:36Z</time>
      </trkpt>
      <trkpt lat="44.13262" lon="6.19609">
        <ele>1401.26</ele>
        <time>2013-01-13T11:23:55Z</time>
      </trkpt>
      <trkpt lat="44.13278" lon="6.19611">
        <ele>1399.34</ele>
        <time>2013-01-13T11:24:11Z</time>
      </trkpt>
      <trkpt lat="44.13292" lon="6.19605">
        <ele>1398.86</ele>
        <time>2013-01-13T11:24:25Z</time>
      </trkpt>
      <trkpt lat="44.13306" lon="6.19599">
        <ele>1399.82</ele>
        <time>2013-01-13T11:24:41Z</time>
      </trkpt>
      <trkpt lat="44.13312" lon="6.19595">
        <ele>1399.34</ele>
        <time>2013-01-13T11:24:47Z</time>
      </trkpt>
      <trkpt lat="44.13324" lon="6.19587">
        <ele>1399.34</ele>
        <time>2013-01-13T11:25:00Z</time>
      </trkpt>
      <trkpt lat="44.13336" lon="6.19575">
        <ele>1400.78</ele>
        <time>2013-01-13T11:25:14Z</time>
      </trkpt>
      <trkpt lat="44.13348" lon="6.19558">
        <ele>1397.89</ele>
        <time>2013-01-13T11:25:31Z</time>
      </trkpt>
      <trkpt lat="44.13355" lon="6.19544">
        <ele>1395.97</ele>
        <time>2013-01-13T11:25:42Z</time>
      </trkpt>
      <trkpt lat="44.13361" lon="6.19525">
        <ele>1394.05</ele>
        <time>2013-01-13T11:25:56Z</time>
      </trkpt>
      <trkpt lat="44.13363" lon="6.19519">
        <ele>1394.05</ele>
        <time>2013-01-13T11:26:01Z</time>
      </trkpt>
      <trkpt lat="44.13372" lon="6.19506">
        <ele>1393.09</ele>
        <time>2013-01-13T11:26:14Z</time>
      </trkpt>
      <trkpt lat="44.13373" lon="6.19505">
        <ele>1393.09</ele>
        <time>2013-01-13T11:26:15Z</time>
      </trkpt>
      <trkpt lat="44.13385" lon="6.19499">
        <ele>1392.13</ele>
        <time>2013-01-13T11:26:32Z</time>
      </trkpt>
      <trkpt lat="44.13385" lon="6.19499">
        <ele>1392.61</ele>
        <time>2013-01-13T11:26:33Z</time>
      </trkpt>
      <trkpt lat="44.13392" lon="6.19491">
        <ele>1391.17</ele>
        <time>2013-01-13T11:26:48Z</time>
      </trkpt>
      <trkpt lat="44.134" lon="6.19486">
        <ele>1390.68</ele>
        <time>2013-01-13T11:27:04Z</time>
      </trkpt>
      <trkpt lat="44.13409" lon="6.1948">
        <ele>1390.68</ele>
        <time>2013-01-13T11:27:19Z</time>
      </trkpt>
      <trkpt lat="44.13417" lon="6.19469">
        <ele>1391.65</ele>
        <time>2013-01-13T11:27:33Z</time>
      </trkpt>
      <trkpt lat="44.1343" lon="6.19451">
        <ele>1392.13</ele>
        <time>2013-01-13T11:27:49Z</time>
      </trkpt>
      <trkpt lat="44.13439" lon="6.19437">
        <ele>1393.09</ele>
        <time>2013-01-13T11:28:03Z</time>
      </trkpt>
      <trkpt lat="44.13442" lon="6.19432">
        <ele>1392.61</ele>
        <time>2013-01-13T11:28:08Z</time>
      </trkpt>
      <trkpt lat="44.13457" lon="6.19413">
        <ele>1393.09</ele>
        <time>2013-01-13T11:28:26Z</time>
      </trkpt>
      <trkpt lat="44.13459" lon="6.19411">
        <ele>1393.09</ele>
        <time>2013-01-13T11:28:29Z</time>
      </trkpt>
      <trkpt lat="44.13465" lon="6.19405">
        <ele>1393.57</ele>
        <time>2013-01-13T11:28:44Z</time>
      </trkpt>
      <trkpt lat="44.13468" lon="6.19403">
        <ele>1393.57</ele>
        <time>2013-01-13T11:28:53Z</time>
      </trkpt>
      <trkpt lat="44.13472" lon="6.19402">
        <ele>1393.09</ele>
        <time>2013-01-13T11:29:09Z</time>
      </trkpt>
      <trkpt lat="44.13474" lon="6.19396">
        <ele>1394.05</ele>
        <time>2013-01-13T11:29:14Z</time>
      </trkpt>
      <trkpt lat="44.13476" lon="6.19391">
        <ele>1393.57</ele>
        <time>2013-01-13T11:29:17Z</time>
      </trkpt>
      <trkpt lat="44.1348" lon="6.19381">
        <ele>1393.57</ele>
        <time>2013-01-13T11:29:23Z</time>
      </trkpt>
      <trkpt lat="44.13496" lon="6.1936">
        <ele>1394.53</ele>
        <time>2013-01-13T11:29:40Z</time>
      </trkpt>
      <trkpt lat="44.13512" lon="6.19349">
        <ele>1395.49</ele>
        <time>2013-01-13T11:29:55Z</time>
      </trkpt>
      <trkpt lat="44.13525" lon="6.19346">
        <ele>1395.01</ele>
        <time>2013-01-13T11:30:10Z</time>
      </trkpt>
      <trkpt lat="44.1354" lon="6.19345">
        <ele>1396.45</ele>
        <time>2013-01-13T11:30:25Z</time>
      </trkpt>
      <trkpt lat="44.1355" lon="6.19332">
        <ele>1397.89</ele>
        <time>2013-01-13T11:30:39Z</time>
      </trkpt>
      <trkpt lat="44.13556" lon="6.19324">
        <ele>1398.86</ele>
        <time>2013-01-13T11:30:46Z</time>
      </trkpt>
      <trkpt lat="44.13559" lon="6.19321">
        <ele>1398.37</ele>
        <time>2013-01-13T11:30:50Z</time>
      </trkpt>
      <trkpt lat="44.13577" lon="6.19308">
        <ele>1399.82</ele>
        <time>2013-01-13T11:31:07Z</time>
      </trkpt>
      <trkpt lat="44.1359" lon="6.19298">
        <ele>1402.22</ele>
        <time>2013-01-13T11:31:21Z</time>
      </trkpt>
      <trkpt lat="44.13601" lon="6.19286">
        <ele>1404.14</ele>
        <time>2013-01-13T11:31:36Z</time>
      </trkpt>
      <trkpt lat="44.1361" lon="6.19281">
        <ele>1406.55</ele>
        <time>2013-01-13T11:31:51Z</time>
      </trkpt>
      <trkpt lat="44.13615" lon="6.19276">
        <ele>1408.95</ele>
        <time>2013-01-13T11:32:05Z</time>
      </trkpt>
      <trkpt lat="44.13616" lon="6.19272">
        <ele>1408.95</ele>
        <time>2013-01-13T11:32:08Z</time>
      </trkpt>
      <trkpt lat="44.13625" lon="6.19261">
        <ele>1410.87</ele>
        <time>2013-01-13T11:32:22Z</time>
      </trkpt>
      <trkpt lat="44.13635" lon="6.19251">
        <ele>1414.72</ele>
        <time>2013-01-13T11:32:37Z</time>
      </trkpt>
      <trkpt lat="44.13636" lon="6.19251">
        <ele>1414.24</ele>
        <time>2013-01-13T11:32:38Z</time>
      </trkpt>
      <trkpt lat="44.13641" lon="6.19254">
        <ele>1415.2</ele>
        <time>2013-01-13T11:32:51Z</time>
      </trkpt>
      <trkpt lat="44.13645" lon="6.1925">
        <ele>1418.08</ele>
        <time>2013-01-13T11:33:03Z</time>
      </trkpt>
      <trkpt lat="44.13653" lon="6.19248">
        <ele>1419.52</ele>
        <time>2013-01-13T11:33:17Z</time>
      </trkpt>
      <trkpt lat="44.1366" lon="6.19244">
        <ele>1421.45</ele>
        <time>2013-01-13T11:33:33Z</time>
      </trkpt>
      <trkpt lat="44.13668" lon="6.19241">
        <ele>1423.37</ele>
        <time>2013-01-13T11:33:48Z</time>
      </trkpt>
      <trkpt lat="44.13674" lon="6.19242">
        <ele>1425.29</ele>
        <time>2013-01-13T11:34:02Z</time>
      </trkpt>
      <trkpt lat="44.13682" lon="6.19243">
        <ele>1427.21</ele>
        <time>2013-01-13T11:34:17Z</time>
      </trkpt>
      <trkpt lat="44.13685" lon="6.19243">
        <ele>1427.7</ele>
        <time>2013-01-13T11:34:20Z</time>
      </trkpt>
      <trkpt lat="44.13697" lon="6.19237">
        <ele>1428.66</ele>
        <time>2013-01-13T11:34:34Z</time>
      </trkpt>
      <trkpt lat="44.13704" lon="6.19233">
        <ele>1427.21</ele>
        <time>2013-01-13T11:34:42Z</time>
      </trkpt>
      <trkpt lat="44.13723" lon="6.19224">
        <ele>1428.18</ele>
        <time>2013-01-13T11:35:00Z</time>
      </trkpt>
      <trkpt lat="44.1374" lon="6.19217">
        <ele>1429.14</ele>
        <time>2013-01-13T11:35:17Z</time>
      </trkpt>
      <trkpt lat="44.13754" lon="6.19216">
        <ele>1431.06</ele>
        <time>2013-01-13T11:35:31Z</time>
      </trkpt>
      <trkpt lat="44.13764" lon="6.19215">
        <ele>1433.46</ele>
        <time>2013-01-13T11:35:47Z</time>
      </trkpt>
      <trkpt lat="44.13771" lon="6.19212">
        <ele>1436.35</ele>
        <time>2013-01-13T11:36:02Z</time>
      </trkpt>
      <trkpt lat="44.13778" lon="6.19207">
        <ele>1438.75</ele>
        <time>2013-01-13T11:36:17Z</time>
      </trkpt>
      <trkpt lat="44.13783" lon="6.19205">
        <ele>1439.71</ele>
        <time>2013-01-13T11:36:30Z</time>
      </trkpt>
      <trkpt lat="44.13788" lon="6.19198">
        <ele>1441.15</ele>
        <time>2013-01-13T11:36:46Z</time>
      </trkpt>
      <trkpt lat="44.13787" lon="6.19188">
        <ele>1442.6</ele>
        <time>2013-01-13T11:36:59Z</time>
      </trkpt>
      <trkpt lat="44.1379" lon="6.19181">
        <ele>1444.52</ele>
        <time>2013-01-13T11:37:13Z</time>
      </trkpt>
      <trkpt lat="44.13792" lon="6.19172">
        <ele>1445.96</ele>
        <time>2013-01-13T11:37:26Z</time>
      </trkpt>
      <trkpt lat="44.13798" lon="6.19162">
        <ele>1447.88</ele>
        <time>2013-01-13T11:37:40Z</time>
      </trkpt>
      <trkpt lat="44.13807" lon="6.19156">
        <ele>1448.84</ele>
        <time>2013-01-13T11:37:54Z</time>
      </trkpt>
      <trkpt lat="44.13814" lon="6.19147">
        <ele>1450.77</ele>
        <time>2013-01-13T11:38:10Z</time>
      </trkpt>
      <trkpt lat="44.13821" lon="6.19139">
        <ele>1451.73</ele>
        <time>2013-01-13T11:38:23Z</time>
      </trkpt>
      <trkpt lat="44.13833" lon="6.19139">
        <ele>1453.65</ele>
        <time>2013-01-13T11:38:39Z</time>
      </trkpt>
      <trkpt lat="44.13842" lon="6.1914">
        <ele>1455.57</ele>
        <time>2013-01-13T11:38:55Z</time>
      </trkpt>
      <trkpt lat="44.13851" lon="6.19138">
        <ele>1457.5</ele>
        <time>2013-01-13T11:39:12Z</time>
      </trkpt>
      <trkpt lat="44.13859" lon="6.1915">
        <ele>1459.42</ele>
        <time>2013-01-13T11:39:28Z</time>
      </trkpt>
      <trkpt lat="44.13866" lon="6.19163">
        <ele>1460.38</ele>
        <time>2013-01-13T11:39:43Z</time>
      </trkpt>
      <trkpt lat="44.1387" lon="6.19165">
        <ele>1460.86</ele>
        <time>2013-01-13T11:39:49Z</time>
      </trkpt>
      <trkpt lat="44.13878" lon="6.19176">
        <ele>1462.3</ele>
        <time>2013-01-13T11:40:03Z</time>
      </trkpt>
      <trkpt lat="44.13886" lon="6.19193">
        <ele>1464.23</ele>
        <time>2013-01-13T11:40:20Z</time>
      </trkpt>
      <trkpt lat="44.13886" lon="6.19194">
        <ele>1463.74</ele>
        <time>2013-01-13T11:40:21Z</time>
      </trkpt>
      <trkpt lat="44.13893" lon="6.19204">
        <ele>1465.19</ele>
        <time>2013-01-13T11:40:36Z</time>
      </trkpt>
      <trkpt lat="44.13901" lon="6.19219">
        <ele>1468.07</ele>
        <time>2013-01-13T11:40:52Z</time>
      </trkpt>
      <trkpt lat="44.13909" lon="6.19231">
        <ele>1469.51</ele>
        <time>2013-01-13T11:41:09Z</time>
      </trkpt>
      <trkpt lat="44.13914" lon="6.19242">
        <ele>1470.95</ele>
        <time>2013-01-13T11:41:25Z</time>
      </trkpt>
      <trkpt lat="44.13924" lon="6.19248">
        <ele>1472.88</ele>
        <time>2013-01-13T11:41:41Z</time>
      </trkpt>
      <trkpt lat="44.13928" lon="6.1925">
        <ele>1473.84</ele>
        <time>2013-01-13T11:41:47Z</time>
      </trkpt>
      <trkpt lat="44.13937" lon="6.19256">
        <ele>1475.76</ele>
        <time>2013-01-13T11:42:00Z</time>
      </trkpt>
      <trkpt lat="44.13942" lon="6.1926">
        <ele>1475.76</ele>
        <time>2013-01-13T11:42:05Z</time>
      </trkpt>
      <trkpt lat="44.13953" lon="6.19263">
        <ele>1477.68</ele>
        <time>2013-01-13T11:42:20Z</time>
      </trkpt>
      <trkpt lat="44.13961" lon="6.19265">
        <ele>1479.13</ele>
        <time>2013-01-13T11:42:32Z</time>
      </trkpt>
      <trkpt lat="44.13972" lon="6.19266">
        <ele>1481.05</ele>
        <time>2013-01-13T11:42:46Z</time>
      </trkpt>
      <trkpt lat="44.13974" lon="6.19266">
        <ele>1482.01</ele>
        <time>2013-01-13T11:42:49Z</time>
      </trkpt>
      <trkpt lat="44.13989" lon="6.19262">
        <ele>1484.41</ele>
        <time>2013-01-13T11:43:07Z</time>
      </trkpt>
      <trkpt lat="44.13996" lon="6.19252">
        <ele>1486.34</ele>
        <time>2013-01-13T11:43:22Z</time>
      </trkpt>
      <trkpt lat="44.14004" lon="6.19244">
        <ele>1484.89</ele>
        <time>2013-01-13T11:43:37Z</time>
      </trkpt>
      <trkpt lat="44.14004" lon="6.19244">
        <ele>1489.22</ele>
        <time>2013-01-13T11:43:38Z</time>
      </trkpt>
      <trkpt lat="44.14004" lon="6.19245">
        <ele>1482.97</ele>
        <time>2013-01-13T11:43:46Z</time>
      </trkpt>
      <trkpt lat="44.14004" lon="6.19245">
        <ele>1487.78</ele>
        <time>2013-01-13T11:43:47Z</time>
      </trkpt>
      <trkpt lat="44.14004" lon="6.19245">
        <ele>1490.66</ele>
        <time>2013-01-13T11:43:49Z</time>
      </trkpt>
      <trkpt lat="44.14004" lon="6.19245">
        <ele>1487.78</ele>
        <time>2013-01-13T11:43:50Z</time>
      </trkpt>
      <trkpt lat="44.14004" lon="6.19245">
        <ele>1483.45</ele>
        <time>2013-01-13T11:43:52Z</time>
      </trkpt>
      <trkpt lat="44.14004" lon="6.19245">
        <ele>1491.14</ele>
        <time>2013-01-13T11:43:53Z</time>
      </trkpt>
      <trkpt lat="44.14004" lon="6.19245">
        <ele>1486.34</ele>
        <time>2013-01-13T11:43:54Z</time>
      </trkpt>
      <trkpt lat="44.14004" lon="6.19245">
        <ele>1489.7</ele>
        <time>2013-01-13T11:43:56Z</time>
      </trkpt>
      <trkpt lat="44.14004" lon="6.19245">
        <ele>1485.85</ele>
        <time>2013-01-13T11:43:58Z</time>
      </trkpt>
      <trkpt lat="44.14004" lon="6.19245">
        <ele>1491.62</ele>
        <time>2013-01-13T11:43:59Z</time>
      </trkpt>
      <trkpt lat="44.14004" lon="6.19245">
        <ele>1482.49</ele>
        <time>2013-01-13T11:44:00Z</time>
      </trkpt>
      <trkpt lat="44.14004" lon="6.19245">
        <ele>1488.74</ele>
        <time>2013-01-13T11:44:01Z</time>
      </trkpt>
      <trkpt lat="44.14004" lon="6.19245">
        <ele>1483.93</ele>
        <time>2013-01-13T11:44:02Z</time>
      </trkpt>
      <trkpt lat="44.14004" lon="6.19245">
        <ele>1487.3</ele>
        <time>2013-01-13T11:44:03Z</time>
      </trkpt>
      <trkpt lat="44.14004" lon="6.19245">
        <ele>1490.66</ele>
        <time>2013-01-13T11:44:04Z</time>
      </trkpt>
      <trkpt lat="44.14004" lon="6.19245">
        <ele>1487.78</ele>
        <time>2013-01-13T11:44:05Z</time>
      </trkpt>
      <trkpt lat="44.14004" lon="6.19245">
        <ele>1483.45</ele>
        <time>2013-01-13T11:44:08Z</time>
      </trkpt>
      <trkpt lat="44.14004" lon="6.19245">
        <ele>1491.14</ele>
        <time>2013-01-13T11:44:09Z</time>
      </trkpt>
      <trkpt lat="44.14004" lon="6.19245">
        <ele>1487.78</ele>
        <time>2013-01-13T11:44:10Z</time>
      </trkpt>
      <trkpt lat="44.14003" lon="6.19239">
        <ele>1488.74</ele>
        <time>2013-01-13T11:44:29Z</time>
      </trkpt>
      <trkpt lat="44.14004" lon="6.19233">
        <ele>1489.22</ele>
        <time>2013-01-13T11:44:35Z</time>
      </trkpt>
      <trkpt lat="44.14005" lon="6.19222">
        <ele>1491.62</ele>
        <time>2013-01-13T11:44:45Z</time>
      </trkpt>
      <trkpt lat="44.14004" lon="6.19204">
        <ele>1493.55</ele>
        <time>2013-01-13T11:45:01Z</time>
      </trkpt>
      <trkpt lat="44.14004" lon="6.19202">
        <ele>1494.03</ele>
        <time>2013-01-13T11:45:03Z</time>
      </trkpt>
      <trkpt lat="44.14002" lon="6.19196">
        <ele>1494.03</ele>
        <time>2013-01-13T11:45:09Z</time>
      </trkpt>
      <trkpt lat="44.14001" lon="6.19187">
        <ele>1494.99</ele>
        <time>2013-01-13T11:45:17Z</time>
      </trkpt>
      <trkpt lat="44.14" lon="6.19185">
        <ele>1495.47</ele>
        <time>2013-01-13T11:45:19Z</time>
      </trkpt>
      <trkpt lat="44.13996" lon="6.1917">
        <ele>1497.39</ele>
        <time>2013-01-13T11:45:34Z</time>
      </trkpt>
      <trkpt lat="44.13994" lon="6.19156">
        <ele>1498.83</ele>
        <time>2013-01-13T11:45:49Z</time>
      </trkpt>
      <trkpt lat="44.13994" lon="6.19141">
        <ele>1500.76</ele>
        <time>2013-01-13T11:46:05Z</time>
      </trkpt>
      <trkpt lat="44.13995" lon="6.19136">
        <ele>1501.24</ele>
        <time>2013-01-13T11:46:19Z</time>
      </trkpt>
      <trkpt lat="44.13997" lon="6.19128">
        <ele>1504.6</ele>
        <time>2013-01-13T11:46:32Z</time>
      </trkpt>
      <trkpt lat="44.14" lon="6.19119">
        <ele>1506.52</ele>
        <time>2013-01-13T11:46:48Z</time>
      </trkpt>
      <trkpt lat="44.14003" lon="6.19116">
        <ele>1508.45</ele>
        <time>2013-01-13T11:47:02Z</time>
      </trkpt>
      <trkpt lat="44.14002" lon="6.19107">
        <ele>1509.89</ele>
        <time>2013-01-13T11:47:17Z</time>
      </trkpt>
      <trkpt lat="44.13997" lon="6.19087">
        <ele>1510.85</ele>
        <time>2013-01-13T11:47:33Z</time>
      </trkpt>
      <trkpt lat="44.13995" lon="6.19069">
        <ele>1511.81</ele>
        <time>2013-01-13T11:47:47Z</time>
      </trkpt>
      <trkpt lat="44.13998" lon="6.19056">
        <ele>1513.73</ele>
        <time>2013-01-13T11:48:01Z</time>
      </trkpt>
      <trkpt lat="44.13999" lon="6.19052">
        <ele>1514.21</ele>
        <time>2013-01-13T11:48:05Z</time>
      </trkpt>
      <trkpt lat="44.14003" lon="6.19034">
        <ele>1515.18</ele>
        <time>2013-01-13T11:48:21Z</time>
      </trkpt>
      <trkpt lat="44.14008" lon="6.19034">
        <ele>1518.06</ele>
        <time>2013-01-13T11:48:36Z</time>
      </trkpt>
      <trkpt lat="44.14011" lon="6.19039">
        <ele>1519.98</ele>
        <time>2013-01-13T11:48:51Z</time>
      </trkpt>
      <trkpt lat="44.14011" lon="6.19039">
        <ele>1522.39</ele>
        <time>2013-01-13T11:49:06Z</time>
      </trkpt>
      <trkpt lat="44.14019" lon="6.19057">
        <ele>1523.83</ele>
        <time>2013-01-13T11:49:23Z</time>
      </trkpt>
      <trkpt lat="44.1403" lon="6.19061">
        <ele>1525.27</ele>
        <time>2013-01-13T11:49:38Z</time>
      </trkpt>
      <trkpt lat="44.14037" lon="6.19063">
        <ele>1527.19</ele>
        <time>2013-01-13T11:49:52Z</time>
      </trkpt>
      <trkpt lat="44.14041" lon="6.19064">
        <ele>1527.67</ele>
        <time>2013-01-13T11:50:16Z</time>
      </trkpt>
      <trkpt lat="44.14048" lon="6.19064">
        <ele>1529.59</ele>
        <time>2013-01-13T11:50:33Z</time>
      </trkpt>
      <trkpt lat="44.14056" lon="6.19064">
        <ele>1532.48</ele>
        <time>2013-01-13T11:50:51Z</time>
      </trkpt>
      <trkpt lat="44.14061" lon="6.1906">
        <ele>1534.88</ele>
        <time>2013-01-13T11:51:07Z</time>
      </trkpt>
      <trkpt lat="44.14061" lon="6.1906">
        <ele>1537.29</ele>
        <time>2013-01-13T11:51:21Z</time>
      </trkpt>
      <trkpt lat="44.14066" lon="6.1905">
        <ele>1539.21</ele>
        <time>2013-01-13T11:51:40Z</time>
      </trkpt>
      <trkpt lat="44.14066" lon="6.1905">
        <ele>1541.13</ele>
        <time>2013-01-13T11:51:56Z</time>
      </trkpt>
      <trkpt lat="44.14066" lon="6.1905">
        <ele>1543.05</ele>
        <time>2013-01-13T11:52:12Z</time>
      </trkpt>
      <trkpt lat="44.14074" lon="6.19045">
        <ele>1544.98</ele>
        <time>2013-01-13T11:52:27Z</time>
      </trkpt>
      <trkpt lat="44.14088" lon="6.19042">
        <ele>1546.42</ele>
        <time>2013-01-13T11:52:41Z</time>
      </trkpt>
      <trkpt lat="44.14093" lon="6.19042">
        <ele>1547.38</ele>
        <time>2013-01-13T11:52:56Z</time>
      </trkpt>
      <trkpt lat="44.14093" lon="6.1903">
        <ele>1548.82</ele>
        <time>2013-01-13T11:53:11Z</time>
      </trkpt>
      <trkpt lat="44.141" lon="6.1902">
        <ele>1551.22</ele>
        <time>2013-01-13T11:53:27Z</time>
      </trkpt>
      <trkpt lat="44.14105" lon="6.19019">
        <ele>1552.67</ele>
        <time>2013-01-13T11:53:44Z</time>
      </trkpt>
      <trkpt lat="44.14108" lon="6.19016">
        <ele>1554.59</ele>
        <time>2013-01-13T11:54:05Z</time>
      </trkpt>
      <trkpt lat="44.14115" lon="6.19012">
        <ele>1556.03</ele>
        <time>2013-01-13T11:54:19Z</time>
      </trkpt>
      <trkpt lat="44.1412" lon="6.19009">
        <ele>1558.43</ele>
        <time>2013-01-13T11:54:33Z</time>
      </trkpt>
      <trkpt lat="44.14127" lon="6.19002">
        <ele>1560.36</ele>
        <time>2013-01-13T11:54:48Z</time>
      </trkpt>
      <trkpt lat="44.14134" lon="6.18992">
        <ele>1562.28</ele>
        <time>2013-01-13T11:55:04Z</time>
      </trkpt>
      <trkpt lat="44.14137" lon="6.18987">
        <ele>1562.76</ele>
        <time>2013-01-13T11:55:19Z</time>
      </trkpt>
      <trkpt lat="44.14145" lon="6.18976">
        <ele>1563.72</ele>
        <time>2013-01-13T11:55:34Z</time>
      </trkpt>
      <trkpt lat="44.14152" lon="6.1896">
        <ele>1565.16</ele>
        <time>2013-01-13T11:55:50Z</time>
      </trkpt>
      <trkpt lat="44.1416" lon="6.1895">
        <ele>1567.57</ele>
        <time>2013-01-13T11:56:05Z</time>
      </trkpt>
      <trkpt lat="44.14162" lon="6.18947">
        <ele>1568.53</ele>
        <time>2013-01-13T11:56:09Z</time>
      </trkpt>
      <trkpt lat="44.14167" lon="6.18939">
        <ele>1568.53</ele>
        <time>2013-01-13T11:56:17Z</time>
      </trkpt>
      <trkpt lat="44.14176" lon="6.1893">
        <ele>1569.49</ele>
        <time>2013-01-13T11:56:30Z</time>
      </trkpt>
      <trkpt lat="44.14182" lon="6.18926">
        <ele>1571.41</ele>
        <time>2013-01-13T11:56:44Z</time>
      </trkpt>
      <trkpt lat="44.14185" lon="6.18923">
        <ele>1572.85</ele>
        <time>2013-01-13T11:56:58Z</time>
      </trkpt>
      <trkpt lat="44.14195" lon="6.18912">
        <ele>1572.85</ele>
        <time>2013-01-13T11:57:12Z</time>
      </trkpt>
      <trkpt lat="44.14206" lon="6.18896">
        <ele>1574.3</ele>
        <time>2013-01-13T11:57:28Z</time>
      </trkpt>
      <trkpt lat="44.14215" lon="6.18883">
        <ele>1575.26</ele>
        <time>2013-01-13T11:57:44Z</time>
      </trkpt>
      <trkpt lat="44.14226" lon="6.18877">
        <ele>1576.7</ele>
        <time>2013-01-13T11:57:59Z</time>
      </trkpt>
      <trkpt lat="44.14233" lon="6.18871">
        <ele>1579.58</ele>
        <time>2013-01-13T11:58:14Z</time>
      </trkpt>
      <trkpt lat="44.1424" lon="6.18867">
        <ele>1580.54</ele>
        <time>2013-01-13T11:58:27Z</time>
      </trkpt>
      <trkpt lat="44.14247" lon="6.18862">
        <ele>1582.95</ele>
        <time>2013-01-13T11:58:43Z</time>
      </trkpt>
      <trkpt lat="44.14252" lon="6.18856">
        <ele>1584.39</ele>
        <time>2013-01-13T11:58:57Z</time>
      </trkpt>
      <trkpt lat="44.14258" lon="6.18855">
        <ele>1586.31</ele>
        <time>2013-01-13T11:59:12Z</time>
      </trkpt>
      <trkpt lat="44.14262" lon="6.1885">
        <ele>1586.79</ele>
        <time>2013-01-13T11:59:28Z</time>
      </trkpt>
      <trkpt lat="44.14273" lon="6.18852">
        <ele>1588.72</ele>
        <time>2013-01-13T11:59:44Z</time>
      </trkpt>
      <trkpt lat="44.1428" lon="6.18858">
        <ele>1590.16</ele>
        <time>2013-01-13T11:59:59Z</time>
      </trkpt>
      <trkpt lat="44.14286" lon="6.18863">
        <ele>1590.16</ele>
        <time>2013-01-13T12:00:15Z</time>
      </trkpt>
      <trkpt lat="44.14291" lon="6.18868">
        <ele>1591.12</ele>
        <time>2013-01-13T12:00:37Z</time>
      </trkpt>
      <trkpt lat="44.14296" lon="6.18874">
        <ele>1592.56</ele>
        <time>2013-01-13T12:00:51Z</time>
      </trkpt>
      <trkpt lat="44.14307" lon="6.18881">
        <ele>1594.48</ele>
        <time>2013-01-13T12:01:06Z</time>
      </trkpt>
      <trkpt lat="44.14316" lon="6.18889">
        <ele>1596.41</ele>
        <time>2013-01-13T12:01:22Z</time>
      </trkpt>
      <trkpt lat="44.14324" lon="6.18895">
        <ele>1597.37</ele>
        <time>2013-01-13T12:01:36Z</time>
      </trkpt>
      <trkpt lat="44.14336" lon="6.189">
        <ele>1599.77</ele>
        <time>2013-01-13T12:01:55Z</time>
      </trkpt>
      <trkpt lat="44.14345" lon="6.18906">
        <ele>1601.69</ele>
        <time>2013-01-13T12:02:12Z</time>
      </trkpt>
      <trkpt lat="44.14352" lon="6.18909">
        <ele>1604.1</ele>
        <time>2013-01-13T12:02:27Z</time>
      </trkpt>
      <trkpt lat="44.14359" lon="6.18912">
        <ele>1606.5</ele>
        <time>2013-01-13T12:02:44Z</time>
      </trkpt>
      <trkpt lat="44.14365" lon="6.18915">
        <ele>1607.94</ele>
        <time>2013-01-13T12:03:00Z</time>
      </trkpt>
      <trkpt lat="44.14369" lon="6.18917">
        <ele>1609.86</ele>
        <time>2013-01-13T12:03:14Z</time>
      </trkpt>
      <trkpt lat="44.14377" lon="6.18919">
        <ele>1612.27</ele>
        <time>2013-01-13T12:03:30Z</time>
      </trkpt>
      <trkpt lat="44.14381" lon="6.18921">
        <ele>1614.19</ele>
        <time>2013-01-13T12:03:46Z</time>
      </trkpt>
      <trkpt lat="44.14384" lon="6.1892">
        <ele>1615.63</ele>
        <time>2013-01-13T12:04:04Z</time>
      </trkpt>
      <trkpt lat="44.14389" lon="6.18921">
        <ele>1617.07</ele>
        <time>2013-01-13T12:04:17Z</time>
      </trkpt>
      <trkpt lat="44.14396" lon="6.18923">
        <ele>1618.52</ele>
        <time>2013-01-13T12:04:33Z</time>
      </trkpt>
      <trkpt lat="44.14404" lon="6.18925">
        <ele>1621.4</ele>
        <time>2013-01-13T12:04:50Z</time>
      </trkpt>
      <trkpt lat="44.14409" lon="6.18927">
        <ele>1622.36</ele>
        <time>2013-01-13T12:05:08Z</time>
      </trkpt>
      <trkpt lat="44.14415" lon="6.18931">
        <ele>1623.8</ele>
        <time>2013-01-13T12:05:24Z</time>
      </trkpt>
      <trkpt lat="44.14422" lon="6.18933">
        <ele>1626.21</ele>
        <time>2013-01-13T12:05:39Z</time>
      </trkpt>
      <trkpt lat="44.14426" lon="6.18934">
        <ele>1627.65</ele>
        <time>2013-01-13T12:05:53Z</time>
      </trkpt>
      <trkpt lat="44.14431" lon="6.18932">
        <ele>1630.53</ele>
        <time>2013-01-13T12:06:10Z</time>
      </trkpt>
      <trkpt lat="44.14438" lon="6.18935">
        <ele>1631.49</ele>
        <time>2013-01-13T12:06:25Z</time>
      </trkpt>
      <trkpt lat="44.14443" lon="6.1894">
        <ele>1633.42</ele>
        <time>2013-01-13T12:06:40Z</time>
      </trkpt>
      <trkpt lat="44.14448" lon="6.18943">
        <ele>1635.34</ele>
        <time>2013-01-13T12:06:56Z</time>
      </trkpt>
      <trkpt lat="44.14452" lon="6.18945">
        <ele>1636.3</ele>
        <time>2013-01-13T12:07:11Z</time>
      </trkpt>
      <trkpt lat="44.14453" lon="6.1894">
        <ele>1638.22</ele>
        <time>2013-01-13T12:07:27Z</time>
      </trkpt>
      <trkpt lat="44.14459" lon="6.18936">
        <ele>1640.63</ele>
        <time>2013-01-13T12:07:41Z</time>
      </trkpt>
      <trkpt lat="44.14462" lon="6.18932">
        <ele>1642.07</ele>
        <time>2013-01-13T12:07:57Z</time>
      </trkpt>
      <trkpt lat="44.14465" lon="6.18929">
        <ele>1643.51</ele>
        <time>2013-01-13T12:08:13Z</time>
      </trkpt>
      <trkpt lat="44.14468" lon="6.18929">
        <ele>1645.43</ele>
        <time>2013-01-13T12:08:29Z</time>
      </trkpt>
      <trkpt lat="44.14473" lon="6.18932">
        <ele>1647.84</ele>
        <time>2013-01-13T12:08:46Z</time>
      </trkpt>
      <trkpt lat="44.14478" lon="6.18932">
        <ele>1649.76</ele>
        <time>2013-01-13T12:09:01Z</time>
      </trkpt>
      <trkpt lat="44.14479" lon="6.18931">
        <ele>1651.2</ele>
        <time>2013-01-13T12:09:16Z</time>
      </trkpt>
      <trkpt lat="44.1448" lon="6.1893">
        <ele>1652.16</ele>
        <time>2013-01-13T12:09:41Z</time>
      </trkpt>
      <trkpt lat="44.14483" lon="6.18927">
        <ele>1653.12</ele>
        <time>2013-01-13T12:09:55Z</time>
      </trkpt>
      <trkpt lat="44.14485" lon="6.18924">
        <ele>1654.09</ele>
        <time>2013-01-13T12:10:12Z</time>
      </trkpt>
      <trkpt lat="44.14487" lon="6.18921">
        <ele>1655.05</ele>
        <time>2013-01-13T12:10:28Z</time>
      </trkpt>
      <trkpt lat="44.14487" lon="6.18921">
        <ele>1655.05</ele>
        <time>2013-01-13T12:10:43Z</time>
      </trkpt>
      <trkpt lat="44.14486" lon="6.18924">
        <ele>1654.57</ele>
        <time>2013-01-13T12:10:59Z</time>
      </trkpt>
      <trkpt lat="44.14486" lon="6.18924">
        <ele>1654.09</ele>
        <time>2013-01-13T12:11:26Z</time>
      </trkpt>
      <trkpt lat="44.14486" lon="6.18923">
        <ele>1654.57</ele>
        <time>2013-01-13T12:11:54Z</time>
      </trkpt>
      <trkpt lat="44.14487" lon="6.18922">
        <ele>1655.05</ele>
        <time>2013-01-13T12:12:20Z</time>
      </trkpt>
      <trkpt lat="44.14486" lon="6.1892">
        <ele>1654.09</ele>
        <time>2013-01-13T12:12:32Z</time>
      </trkpt>
      <trkpt lat="44.14487" lon="6.18922">
        <ele>1653.6</ele>
        <time>2013-01-13T12:12:48Z</time>
      </trkpt>
      <trkpt lat="44.14487" lon="6.18922">
        <ele>1653.12</ele>
        <time>2013-01-13T12:13:17Z</time>
      </trkpt>
      <trkpt lat="44.14486" lon="6.18922">
        <ele>1653.6</ele>
        <time>2013-01-13T12:13:45Z</time>
      </trkpt>
      <trkpt lat="44.14487" lon="6.18922">
        <ele>1657.93</ele>
        <time>2013-01-13T12:14:11Z</time>
      </trkpt>
      <trkpt lat="44.14487" lon="6.18922">
        <ele>1653.12</ele>
        <time>2013-01-13T12:14:12Z</time>
      </trkpt>
      <trkpt lat="44.14487" lon="6.18922">
        <ele>1656.97</ele>
        <time>2013-01-13T12:14:26Z</time>
      </trkpt>
      <trkpt lat="44.14487" lon="6.18922">
        <ele>1653.12</ele>
        <time>2013-01-13T12:14:27Z</time>
      </trkpt>
      <trkpt lat="44.14486" lon="6.18922">
        <ele>1653.6</ele>
        <time>2013-01-13T12:14:55Z</time>
      </trkpt>
      <trkpt lat="44.14486" lon="6.18922">
        <ele>1653.6</ele>
        <time>2013-01-13T12:15:31Z</time>
      </trkpt>
      <trkpt lat="44.14486" lon="6.18922">
        <ele>1653.12</ele>
        <time>2013-01-13T12:16:07Z</time>
      </trkpt>
      <trkpt lat="44.14486" lon="6.18922">
        <ele>1653.12</ele>
        <time>2013-01-13T12:16:39Z</time>
      </trkpt>
      <trkpt lat="44.14486" lon="6.18921">
        <ele>1653.12</ele>
        <time>2013-01-13T12:16:57Z</time>
      </trkpt>
      <trkpt lat="44.14486" lon="6.18922">
        <ele>1653.12</ele>
        <time>2013-01-13T12:17:33Z</time>
      </trkpt>
      <trkpt lat="44.14486" lon="6.18922">
        <ele>1653.12</ele>
        <time>2013-01-13T12:18:12Z</time>
      </trkpt>
      <trkpt lat="44.14487" lon="6.18921">
        <ele>1652.64</ele>
        <time>2013-01-13T12:18:49Z</time>
      </trkpt>
      <trkpt lat="44.14487" lon="6.18921">
        <ele>1653.6</ele>
        <time>2013-01-13T12:19:12Z</time>
      </trkpt>
      <trkpt lat="44.14487" lon="6.18922">
        <ele>1652.64</ele>
        <time>2013-01-13T12:19:38Z</time>
      </trkpt>
      <trkpt lat="44.14488" lon="6.18921">
        <ele>1653.12</ele>
        <time>2013-01-13T12:20:03Z</time>
      </trkpt>
      <trkpt lat="44.14488" lon="6.18921">
        <ele>1653.12</ele>
        <time>2013-01-13T12:20:28Z</time>
      </trkpt>
      <trkpt lat="44.14488" lon="6.18922">
        <ele>1652.64</ele>
        <time>2013-01-13T12:20:50Z</time>
      </trkpt>
      <trkpt lat="44.14488" lon="6.18922">
        <ele>1652.64</ele>
        <time>2013-01-13T12:21:20Z</time>
      </trkpt>
      <trkpt lat="44.14487" lon="6.18922">
        <ele>1653.12</ele>
        <time>2013-01-13T12:21:54Z</time>
      </trkpt>
      <trkpt lat="44.14487" lon="6.18922">
        <ele>1653.12</ele>
        <time>2013-01-13T12:22:29Z</time>
      </trkpt>
      <trkpt lat="44.14488" lon="6.18922">
        <ele>1652.64</ele>
        <time>2013-01-13T12:23:06Z</time>
      </trkpt>
      <trkpt lat="44.14488" lon="6.18922">
        <ele>1652.64</ele>
        <time>2013-01-13T12:23:44Z</time>
      </trkpt>
      <trkpt lat="44.14488" lon="6.18922">
        <ele>1652.16</ele>
        <time>2013-01-13T12:24:17Z</time>
      </trkpt>
      <trkpt lat="44.14488" lon="6.18922">
        <ele>1652.16</ele>
        <time>2013-01-13T12:24:50Z</time>
      </trkpt>
      <trkpt lat="44.14488" lon="6.18922">
        <ele>1652.16</ele>
        <time>2013-01-13T12:25:22Z</time>
      </trkpt>
      <trkpt lat="44.14488" lon="6.18923">
        <ele>1652.16</ele>
        <time>2013-01-13T12:25:57Z</time>
      </trkpt>
      <trkpt lat="44.14488" lon="6.18923">
        <ele>1652.16</ele>
        <time>2013-01-13T12:26:31Z</time>
      </trkpt>
      <trkpt lat="44.14488" lon="6.18923">
        <ele>1651.68</ele>
        <time>2013-01-13T12:27:05Z</time>
      </trkpt>
      <trkpt lat="44.14488" lon="6.18923">
        <ele>1652.64</ele>
        <time>2013-01-13T12:27:37Z</time>
      </trkpt>
      <trkpt lat="44.14488" lon="6.18922">
        <ele>1652.16</ele>
        <time>2013-01-13T12:28:10Z</time>
      </trkpt>
      <trkpt lat="44.14488" lon="6.18922">
        <ele>1651.68</ele>
        <time>2013-01-13T12:28:38Z</time>
      </trkpt>
      <trkpt lat="44.14488" lon="6.18922">
        <ele>1652.16</ele>
        <time>2013-01-13T12:29:10Z</time>
      </trkpt>
      <trkpt lat="44.14488" lon="6.18922">
        <ele>1652.16</ele>
        <time>2013-01-13T12:29:48Z</time>
      </trkpt>
      <trkpt lat="44.14488" lon="6.18922">
        <ele>1652.16</ele>
        <time>2013-01-13T12:30:20Z</time>
      </trkpt>
      <trkpt lat="44.14488" lon="6.18922">
        <ele>1652.16</ele>
        <time>2013-01-13T12:30:58Z</time>
      </trkpt>
      <trkpt lat="44.14488" lon="6.18922">
        <ele>1652.16</ele>
        <time>2013-01-13T12:31:32Z</time>
      </trkpt>
      <trkpt lat="44.14488" lon="6.18922">
        <ele>1652.16</ele>
        <time>2013-01-13T12:32:09Z</time>
      </trkpt>
      <trkpt lat="44.14488" lon="6.18922">
        <ele>1652.64</ele>
        <time>2013-01-13T12:32:28Z</time>
      </trkpt>
      <trkpt lat="44.14487" lon="6.18922">
        <ele>1651.2</ele>
        <time>2013-01-13T12:32:53Z</time>
      </trkpt>
      <trkpt lat="44.14487" lon="6.18922">
        <ele>1652.16</ele>
        <time>2013-01-13T12:33:18Z</time>
      </trkpt>
      <trkpt lat="44.14487" lon="6.18922">
        <ele>1652.16</ele>
        <time>2013-01-13T12:33:47Z</time>
      </trkpt>
      <trkpt lat="44.14486" lon="6.18922">
        <ele>1651.68</ele>
        <time>2013-01-13T12:34:22Z</time>
      </trkpt>
      <trkpt lat="44.14486" lon="6.18923">
        <ele>1651.2</ele>
        <time>2013-01-13T12:34:56Z</time>
      </trkpt>
      <trkpt lat="44.14486" lon="6.18923">
        <ele>1650.72</ele>
        <time>2013-01-13T12:35:27Z</time>
      </trkpt>
      <trkpt lat="44.14486" lon="6.18923">
        <ele>1652.16</ele>
        <time>2013-01-13T12:35:44Z</time>
      </trkpt>
      <trkpt lat="44.14486" lon="6.18923">
        <ele>1650.72</ele>
        <time>2013-01-13T12:36:09Z</time>
      </trkpt>
      <trkpt lat="44.14487" lon="6.18922">
        <ele>1651.2</ele>
        <time>2013-01-13T12:36:42Z</time>
      </trkpt>
      <trkpt lat="44.14486" lon="6.18922">
        <ele>1651.2</ele>
        <time>2013-01-13T12:37:22Z</time>
      </trkpt>
      <trkpt lat="44.14486" lon="6.18922">
        <ele>1650.72</ele>
        <time>2013-01-13T12:37:54Z</time>
      </trkpt>
      <trkpt lat="44.14486" lon="6.18922">
        <ele>1649.76</ele>
        <time>2013-01-13T12:38:18Z</time>
      </trkpt>
      <trkpt lat="44.14486" lon="6.18922">
        <ele>1649.76</ele>
        <time>2013-01-13T12:38:48Z</time>
      </trkpt>
      <trkpt lat="44.14486" lon="6.18921">
        <ele>1650.72</ele>
        <time>2013-01-13T12:39:23Z</time>
      </trkpt>
      <trkpt lat="44.14486" lon="6.18921">
        <ele>1650.24</ele>
        <time>2013-01-13T12:39:53Z</time>
      </trkpt>
      <trkpt lat="44.14486" lon="6.18921">
        <ele>1651.2</ele>
        <time>2013-01-13T12:40:26Z</time>
      </trkpt>
      <trkpt lat="44.14486" lon="6.18921">
        <ele>1649.76</ele>
        <time>2013-01-13T12:41:01Z</time>
      </trkpt>
      <trkpt lat="44.14486" lon="6.18921">
        <ele>1650.72</ele>
        <time>2013-01-13T12:41:18Z</time>
      </trkpt>
      <trkpt lat="44.14486" lon="6.18921">
        <ele>1650.72</ele>
        <time>2013-01-13T12:41:54Z</time>
      </trkpt>
      <trkpt lat="44.14486" lon="6.18921">
        <ele>1650.24</ele>
        <time>2013-01-13T12:42:22Z</time>
      </trkpt>
      <trkpt lat="44.14486" lon="6.18921">
        <ele>1650.24</ele>
        <time>2013-01-13T12:42:55Z</time>
      </trkpt>
      <trkpt lat="44.14486" lon="6.18921">
        <ele>1649.76</ele>
        <time>2013-01-13T12:43:27Z</time>
      </trkpt>
      <trkpt lat="44.14486" lon="6.18921">
        <ele>1650.24</ele>
        <time>2013-01-13T12:43:58Z</time>
      </trkpt>
      <trkpt lat="44.14486" lon="6.18921">
        <ele>1650.72</ele>
        <time>2013-01-13T12:44:27Z</time>
      </trkpt>
      <trkpt lat="44.14486" lon="6.18921">
        <ele>1650.24</ele>
        <time>2013-01-13T12:44:58Z</time>
      </trkpt>
      <trkpt lat="44.14486" lon="6.18921">
        <ele>1650.72</ele>
        <time>2013-01-13T12:45:30Z</time>
      </trkpt>
      <trkpt lat="44.14486" lon="6.18921">
        <ele>1649.76</ele>
        <time>2013-01-13T12:46:01Z</time>
      </trkpt>
      <trkpt lat="44.14486" lon="6.18921">
        <ele>1649.28</ele>
        <time>2013-01-13T12:46:36Z</time>
      </trkpt>
      <trkpt lat="44.14486" lon="6.18921">
        <ele>1649.76</ele>
        <time>2013-01-13T12:47:09Z</time>
      </trkpt>
      <trkpt lat="44.14486" lon="6.18921">
        <ele>1649.76</ele>
        <time>2013-01-13T12:47:42Z</time>
      </trkpt>
      <trkpt lat="44.14486" lon="6.18921">
        <ele>1649.76</ele>
        <time>2013-01-13T12:48:17Z</time>
      </trkpt>
      <trkpt lat="44.14486" lon="6.18921">
        <ele>1650.24</ele>
        <time>2013-01-13T12:48:49Z</time>
      </trkpt>
      <trkpt lat="44.14486" lon="6.18921">
        <ele>1649.76</ele>
        <time>2013-01-13T12:49:25Z</time>
      </trkpt>
      <trkpt lat="44.14485" lon="6.18921">
        <ele>1649.76</ele>
        <time>2013-01-13T12:50:02Z</time>
      </trkpt>
      <trkpt lat="44.14486" lon="6.18921">
        <ele>1650.24</ele>
        <time>2013-01-13T12:50:41Z</time>
      </trkpt>
      <trkpt lat="44.14486" lon="6.18921">
        <ele>1649.76</ele>
        <time>2013-01-13T12:51:20Z</time>
      </trkpt>
      <trkpt lat="44.14486" lon="6.18921">
        <ele>1650.24</ele>
        <time>2013-01-13T12:51:34Z</time>
      </trkpt>
      <trkpt lat="44.14486" lon="6.18921">
        <ele>1650.24</ele>
        <time>2013-01-13T12:52:09Z</time>
      </trkpt>
      <trkpt lat="44.14486" lon="6.18921">
        <ele>1650.24</ele>
        <time>2013-01-13T12:52:41Z</time>
      </trkpt>
      <trkpt lat="44.14487" lon="6.18922">
        <ele>1649.76</ele>
        <time>2013-01-13T12:53:00Z</time>
      </trkpt>
      <trkpt lat="44.14487" lon="6.18922">
        <ele>1650.72</ele>
        <time>2013-01-13T12:53:23Z</time>
      </trkpt>
      <trkpt lat="44.14483" lon="6.18926">
        <ele>1649.76</ele>
        <time>2013-01-13T12:53:37Z</time>
      </trkpt>
      <trkpt lat="44.14479" lon="6.18934">
        <ele>1646.4</ele>
        <time>2013-01-13T12:53:49Z</time>
      </trkpt>
      <trkpt lat="44.14472" lon="6.18934">
        <ele>1643.51</ele>
        <time>2013-01-13T12:54:03Z</time>
      </trkpt>
      <trkpt lat="44.14469" lon="6.18933">
        <ele>1642.07</ele>
        <time>2013-01-13T12:54:16Z</time>
      </trkpt>
      <trkpt lat="44.14463" lon="6.18932">
        <ele>1638.7</ele>
        <time>2013-01-13T12:54:27Z</time>
      </trkpt>
      <trkpt lat="44.14457" lon="6.18936">
        <ele>1635.34</ele>
        <time>2013-01-13T12:54:39Z</time>
      </trkpt>
      <trkpt lat="44.14454" lon="6.18938">
        <ele>1634.86</ele>
        <time>2013-01-13T12:54:48Z</time>
      </trkpt>
      <trkpt lat="44.14448" lon="6.18936">
        <ele>1631.49</ele>
        <time>2013-01-13T12:55:00Z</time>
      </trkpt>
      <trkpt lat="44.14441" lon="6.18934">
        <ele>1628.61</ele>
        <time>2013-01-13T12:55:13Z</time>
      </trkpt>
      <trkpt lat="44.14436" lon="6.18935">
        <ele>1627.17</ele>
        <time>2013-01-13T12:55:21Z</time>
      </trkpt>
      <trkpt lat="44.1443" lon="6.18934">
        <ele>1625.73</ele>
        <time>2013-01-13T12:55:36Z</time>
      </trkpt>
      <trkpt lat="44.1443" lon="6.18934">
        <ele>1625.25</ele>
        <time>2013-01-13T12:55:37Z</time>
      </trkpt>
      <trkpt lat="44.1442" lon="6.18935">
        <ele>1621.4</ele>
        <time>2013-01-13T12:55:48Z</time>
      </trkpt>
      <trkpt lat="44.14415" lon="6.18934">
        <ele>1619.96</ele>
        <time>2013-01-13T12:55:55Z</time>
      </trkpt>
      <trkpt lat="44.14412" lon="6.18933">
        <ele>1618.52</ele>
        <time>2013-01-13T12:56:00Z</time>
      </trkpt>
      <trkpt lat="44.14407" lon="6.18929">
        <ele>1617.56</ele>
        <time>2013-01-13T12:56:05Z</time>
      </trkpt>
      <trkpt lat="44.14403" lon="6.18927">
        <ele>1616.11</ele>
        <time>2013-01-13T12:56:09Z</time>
      </trkpt>
      <trkpt lat="44.14392" lon="6.18922">
        <ele>1613.71</ele>
        <time>2013-01-13T12:56:19Z</time>
      </trkpt>
      <trkpt lat="44.14381" lon="6.18921">
        <ele>1609.86</ele>
        <time>2013-01-13T12:56:30Z</time>
      </trkpt>
      <trkpt lat="44.14377" lon="6.18923">
        <ele>1608.9</ele>
        <time>2013-01-13T12:56:36Z</time>
      </trkpt>
      <trkpt lat="44.14368" lon="6.18921">
        <ele>1605.54</ele>
        <time>2013-01-13T12:56:47Z</time>
      </trkpt>
      <trkpt lat="44.14367" lon="6.1892">
        <ele>1605.06</ele>
        <time>2013-01-13T12:56:49Z</time>
      </trkpt>
      <trkpt lat="44.14359" lon="6.18919">
        <ele>1603.14</ele>
        <time>2013-01-13T12:57:02Z</time>
      </trkpt>
      <trkpt lat="44.14356" lon="6.18915">
        <ele>1601.69</ele>
        <time>2013-01-13T12:57:08Z</time>
      </trkpt>
      <trkpt lat="44.14351" lon="6.18912">
        <ele>1599.29</ele>
        <time>2013-01-13T12:57:13Z</time>
      </trkpt>
      <trkpt lat="44.14346" lon="6.1891">
        <ele>1598.81</ele>
        <time>2013-01-13T12:57:17Z</time>
      </trkpt>
      <trkpt lat="44.14335" lon="6.18905">
        <ele>1595.93</ele>
        <time>2013-01-13T12:57:29Z</time>
      </trkpt>
      <trkpt lat="44.14331" lon="6.18902">
        <ele>1594</ele>
        <time>2013-01-13T12:57:32Z</time>
      </trkpt>
      <trkpt lat="44.14313" lon="6.1889">
        <ele>1591.12</ele>
        <time>2013-01-13T12:57:46Z</time>
      </trkpt>
      <trkpt lat="44.14312" lon="6.18889">
        <ele>1590.16</ele>
        <time>2013-01-13T12:57:47Z</time>
      </trkpt>
      <trkpt lat="44.14302" lon="6.18882">
        <ele>1589.2</ele>
        <time>2013-01-13T12:57:54Z</time>
      </trkpt>
      <trkpt lat="44.1429" lon="6.18874">
        <ele>1587.27</ele>
        <time>2013-01-13T12:58:04Z</time>
      </trkpt>
      <trkpt lat="44.14277" lon="6.18856">
        <ele>1584.39</ele>
        <time>2013-01-13T12:58:17Z</time>
      </trkpt>
      <trkpt lat="44.14275" lon="6.18855">
        <ele>1583.91</ele>
        <time>2013-01-13T12:58:24Z</time>
      </trkpt>
      <trkpt lat="44.14268" lon="6.18852">
        <ele>1582.95</ele>
        <time>2013-01-13T12:58:32Z</time>
      </trkpt>
      <trkpt lat="44.14261" lon="6.18856">
        <ele>1581.03</ele>
        <time>2013-01-13T12:58:39Z</time>
      </trkpt>
      <trkpt lat="44.14252" lon="6.18857">
        <ele>1579.1</ele>
        <time>2013-01-13T12:58:46Z</time>
      </trkpt>
      <trkpt lat="44.14244" lon="6.18862">
        <ele>1576.22</ele>
        <time>2013-01-13T12:58:53Z</time>
      </trkpt>
      <trkpt lat="44.14237" lon="6.18868">
        <ele>1573.82</ele>
        <time>2013-01-13T12:59:00Z</time>
      </trkpt>
      <trkpt lat="44.14225" lon="6.18873">
        <ele>1570.93</ele>
        <time>2013-01-13T12:59:10Z</time>
      </trkpt>
      <trkpt lat="44.14214" lon="6.18885">
        <ele>1568.53</ele>
        <time>2013-01-13T12:59:20Z</time>
      </trkpt>
      <trkpt lat="44.14198" lon="6.18905">
        <ele>1566.61</ele>
        <time>2013-01-13T12:59:33Z</time>
      </trkpt>
      <trkpt lat="44.14187" lon="6.18919">
        <ele>1565.16</ele>
        <time>2013-01-13T12:59:48Z</time>
      </trkpt>
      <trkpt lat="44.14184" lon="6.18927">
        <ele>1565.16</ele>
        <time>2013-01-13T12:59:58Z</time>
      </trkpt>
      <trkpt lat="44.1418" lon="6.18927">
        <ele>1564.2</ele>
        <time>2013-01-13T13:00:02Z</time>
      </trkpt>
      <trkpt lat="44.14167" lon="6.18939">
        <ele>1561.32</ele>
        <time>2013-01-13T13:00:12Z</time>
      </trkpt>
      <trkpt lat="44.14152" lon="6.18958">
        <ele>1558.92</ele>
        <time>2013-01-13T13:00:26Z</time>
      </trkpt>
      <trkpt lat="44.1415" lon="6.18961">
        <ele>1557.95</ele>
        <time>2013-01-13T13:00:28Z</time>
      </trkpt>
      <trkpt lat="44.1414" lon="6.18983">
        <ele>1555.55</ele>
        <time>2013-01-13T13:00:41Z</time>
      </trkpt>
      <trkpt lat="44.14128" lon="6.18999">
        <ele>1552.67</ele>
        <time>2013-01-13T13:00:53Z</time>
      </trkpt>
      <trkpt lat="44.14122" lon="6.19005">
        <ele>1550.74</ele>
        <time>2013-01-13T13:00:59Z</time>
      </trkpt>
      <trkpt lat="44.14116" lon="6.19009">
        <ele>1548.82</ele>
        <time>2013-01-13T13:01:04Z</time>
      </trkpt>
      <trkpt lat="44.14107" lon="6.19014">
        <ele>1545.46</ele>
        <time>2013-01-13T13:01:12Z</time>
      </trkpt>
      <trkpt lat="44.14102" lon="6.19018">
        <ele>1544.98</ele>
        <time>2013-01-13T13:01:17Z</time>
      </trkpt>
      <trkpt lat="44.14098" lon="6.19018">
        <ele>1543.53</ele>
        <time>2013-01-13T13:01:21Z</time>
      </trkpt>
      <trkpt lat="44.14092" lon="6.19021">
        <ele>1541.61</ele>
        <time>2013-01-13T13:01:27Z</time>
      </trkpt>
      <trkpt lat="44.14086" lon="6.19024">
        <ele>1538.73</ele>
        <time>2013-01-13T13:01:34Z</time>
      </trkpt>
      <trkpt lat="44.14081" lon="6.19028">
        <ele>1537.29</ele>
        <time>2013-01-13T13:01:40Z</time>
      </trkpt>
      <trkpt lat="44.14075" lon="6.19033">
        <ele>1534.88</ele>
        <time>2013-01-13T13:01:47Z</time>
      </trkpt>
      <trkpt lat="44.14072" lon="6.19036">
        <ele>1533.92</ele>
        <time>2013-01-13T13:01:51Z</time>
      </trkpt>
      <trkpt lat="44.14068" lon="6.19038">
        <ele>1532</ele>
        <time>2013-01-13T13:01:56Z</time>
      </trkpt>
      <trkpt lat="44.14066" lon="6.1904">
        <ele>1531.04</ele>
        <time>2013-01-13T13:01:58Z</time>
      </trkpt>
      <trkpt lat="44.14062" lon="6.1905">
        <ele>1527.67</ele>
        <time>2013-01-13T13:02:08Z</time>
      </trkpt>
      <trkpt lat="44.14059" lon="6.1906">
        <ele>1525.75</ele>
        <time>2013-01-13T13:02:14Z</time>
      </trkpt>
      <trkpt lat="44.14052" lon="6.19065">
        <ele>1522.87</ele>
        <time>2013-01-13T13:02:22Z</time>
      </trkpt>
      <trkpt lat="44.14043" lon="6.19065">
        <ele>1519.98</ele>
        <time>2013-01-13T13:02:30Z</time>
      </trkpt>
      <trkpt lat="44.14036" lon="6.19065">
        <ele>1518.06</ele>
        <time>2013-01-13T13:02:36Z</time>
      </trkpt>
      <trkpt lat="44.14024" lon="6.19066">
        <ele>1514.21</ele>
        <time>2013-01-13T13:02:47Z</time>
      </trkpt>
      <trkpt lat="44.14018" lon="6.19066">
        <ele>1513.25</ele>
        <time>2013-01-13T13:02:52Z</time>
      </trkpt>
      <trkpt lat="44.14012" lon="6.19063">
        <ele>1509.41</ele>
        <time>2013-01-13T13:03:05Z</time>
      </trkpt>
      <trkpt lat="44.14008" lon="6.19061">
        <ele>1507.48</ele>
        <time>2013-01-13T13:03:16Z</time>
      </trkpt>
      <trkpt lat="44.14002" lon="6.1906">
        <ele>1505.56</ele>
        <time>2013-01-13T13:03:21Z</time>
      </trkpt>
      <trkpt lat="44.13998" lon="6.1906">
        <ele>1504.12</ele>
        <time>2013-01-13T13:03:25Z</time>
      </trkpt>
      <trkpt lat="44.13991" lon="6.19063">
        <ele>1501.72</ele>
        <time>2013-01-13T13:03:31Z</time>
      </trkpt>
      <trkpt lat="44.13983" lon="6.19066">
        <ele>1499.31</ele>
        <time>2013-01-13T13:03:39Z</time>
      </trkpt>
      <trkpt lat="44.13972" lon="6.19074">
        <ele>1495.95</ele>
        <time>2013-01-13T13:03:50Z</time>
      </trkpt>
      <trkpt lat="44.13963" lon="6.19077">
        <ele>1493.06</ele>
        <time>2013-01-13T13:03:59Z</time>
      </trkpt>
      <trkpt lat="44.13959" lon="6.19082">
        <ele>1491.14</ele>
        <time>2013-01-13T13:04:05Z</time>
      </trkpt>
      <trkpt lat="44.13957" lon="6.19084">
        <ele>1489.7</ele>
        <time>2013-01-13T13:04:10Z</time>
      </trkpt>
      <trkpt lat="44.13953" lon="6.19088">
        <ele>1487.78</ele>
        <time>2013-01-13T13:04:14Z</time>
      </trkpt>
      <trkpt lat="44.13947" lon="6.19094">
        <ele>1484.89</ele>
        <time>2013-01-13T13:04:21Z</time>
      </trkpt>
      <trkpt lat="44.13939" lon="6.19101">
        <ele>1482.01</ele>
        <time>2013-01-13T13:04:30Z</time>
      </trkpt>
      <trkpt lat="44.13934" lon="6.19104">
        <ele>1479.61</ele>
        <time>2013-01-13T13:04:36Z</time>
      </trkpt>
      <trkpt lat="44.13928" lon="6.1911">
        <ele>1475.76</ele>
        <time>2013-01-13T13:04:44Z</time>
      </trkpt>
      <trkpt lat="44.13927" lon="6.1911">
        <ele>1475.76</ele>
        <time>2013-01-13T13:04:45Z</time>
      </trkpt>
      <trkpt lat="44.13926" lon="6.19112">
        <ele>1474.32</ele>
        <time>2013-01-13T13:04:48Z</time>
      </trkpt>
      <trkpt lat="44.13921" lon="6.19117">
        <ele>1473.36</ele>
        <time>2013-01-13T13:04:54Z</time>
      </trkpt>
      <trkpt lat="44.13914" lon="6.19127">
        <ele>1469.03</ele>
        <time>2013-01-13T13:05:04Z</time>
      </trkpt>
      <trkpt lat="44.13911" lon="6.19132">
        <ele>1467.11</ele>
        <time>2013-01-13T13:05:11Z</time>
      </trkpt>
      <trkpt lat="44.13903" lon="6.19131">
        <ele>1463.26</ele>
        <time>2013-01-13T13:05:25Z</time>
      </trkpt>
      <trkpt lat="44.13896" lon="6.19131">
        <ele>1460.38</ele>
        <time>2013-01-13T13:05:32Z</time>
      </trkpt>
      <trkpt lat="44.13894" lon="6.19129">
        <ele>1459.42</ele>
        <time>2013-01-13T13:05:36Z</time>
      </trkpt>
      <trkpt lat="44.13886" lon="6.19132">
        <ele>1456.05</ele>
        <time>2013-01-13T13:05:45Z</time>
      </trkpt>
      <trkpt lat="44.13881" lon="6.19132">
        <ele>1454.61</ele>
        <time>2013-01-13T13:05:49Z</time>
      </trkpt>
      <trkpt lat="44.13877" lon="6.19134">
        <ele>1453.17</ele>
        <time>2013-01-13T13:05:53Z</time>
      </trkpt>
      <trkpt lat="44.13875" lon="6.19135">
        <ele>1452.69</ele>
        <time>2013-01-13T13:05:55Z</time>
      </trkpt>
      <trkpt lat="44.13867" lon="6.19134">
        <ele>1450.77</ele>
        <time>2013-01-13T13:06:02Z</time>
      </trkpt>
      <trkpt lat="44.13863" lon="6.19135">
        <ele>1449.81</ele>
        <time>2013-01-13T13:06:06Z</time>
      </trkpt>
      <trkpt lat="44.13847" lon="6.1914">
        <ele>1445.96</ele>
        <time>2013-01-13T13:06:22Z</time>
      </trkpt>
      <trkpt lat="44.13831" lon="6.19139">
        <ele>1442.6</ele>
        <time>2013-01-13T13:06:37Z</time>
      </trkpt>
      <trkpt lat="44.13821" lon="6.19141">
        <ele>1441.15</ele>
        <time>2013-01-13T13:06:46Z</time>
      </trkpt>
      <trkpt lat="44.13816" lon="6.19144">
        <ele>1440.19</ele>
        <time>2013-01-13T13:06:51Z</time>
      </trkpt>
      <trkpt lat="44.13798" lon="6.19143">
        <ele>1438.27</ele>
        <time>2013-01-13T13:07:08Z</time>
      </trkpt>
      <trkpt lat="44.13786" lon="6.19139">
        <ele>1437.79</ele>
        <time>2013-01-13T13:07:20Z</time>
      </trkpt>
      <trkpt lat="44.13782" lon="6.19143">
        <ele>1437.79</ele>
        <time>2013-01-13T13:07:24Z</time>
      </trkpt>
      <trkpt lat="44.13777" lon="6.19154">
        <ele>1436.35</ele>
        <time>2013-01-13T13:07:33Z</time>
      </trkpt>
      <trkpt lat="44.13771" lon="6.19158">
        <ele>1435.87</ele>
        <time>2013-01-13T13:07:38Z</time>
      </trkpt>
      <trkpt lat="44.13769" lon="6.19159">
        <ele>1435.87</ele>
        <time>2013-01-13T13:07:41Z</time>
      </trkpt>
      <trkpt lat="44.13768" lon="6.19161">
        <ele>1435.39</ele>
        <time>2013-01-13T13:07:43Z</time>
      </trkpt>
      <trkpt lat="44.13768" lon="6.19168">
        <ele>1434.91</ele>
        <time>2013-01-13T13:07:48Z</time>
      </trkpt>
      <trkpt lat="44.13759" lon="6.19175">
        <ele>1432.02</ele>
        <time>2013-01-13T13:07:59Z</time>
      </trkpt>
      <trkpt lat="44.13752" lon="6.19175">
        <ele>1429.62</ele>
        <time>2013-01-13T13:08:08Z</time>
      </trkpt>
      <trkpt lat="44.13745" lon="6.19174">
        <ele>1427.7</ele>
        <time>2013-01-13T13:08:18Z</time>
      </trkpt>
      <trkpt lat="44.13741" lon="6.19187">
        <ele>1424.81</ele>
        <time>2013-01-13T13:08:28Z</time>
      </trkpt>
      <trkpt lat="44.13731" lon="6.19201">
        <ele>1421.93</ele>
        <time>2013-01-13T13:08:39Z</time>
      </trkpt>
      <trkpt lat="44.1372" lon="6.19214">
        <ele>1419.52</ele>
        <time>2013-01-13T13:08:53Z</time>
      </trkpt>
      <trkpt lat="44.13707" lon="6.19232">
        <ele>1417.12</ele>
        <time>2013-01-13T13:09:09Z</time>
      </trkpt>
      <trkpt lat="44.13703" lon="6.19234">
        <ele>1416.64</ele>
        <time>2013-01-13T13:09:19Z</time>
      </trkpt>
      <trkpt lat="44.13698" lon="6.19238">
        <ele>1416.16</ele>
        <time>2013-01-13T13:09:25Z</time>
      </trkpt>
      <trkpt lat="44.13687" lon="6.19245">
        <ele>1416.64</ele>
        <time>2013-01-13T13:09:36Z</time>
      </trkpt>
      <trkpt lat="44.13678" lon="6.19245">
        <ele>1415.68</ele>
        <time>2013-01-13T13:09:45Z</time>
      </trkpt>
      <trkpt lat="44.13671" lon="6.19243">
        <ele>1413.28</ele>
        <time>2013-01-13T13:09:54Z</time>
      </trkpt>
      <trkpt lat="44.13662" lon="6.19244">
        <ele>1410.87</ele>
        <time>2013-01-13T13:10:08Z</time>
      </trkpt>
      <trkpt lat="44.13657" lon="6.19246">
        <ele>1409.43</ele>
        <time>2013-01-13T13:10:14Z</time>
      </trkpt>
      <trkpt lat="44.13653" lon="6.19248">
        <ele>1408.95</ele>
        <time>2013-01-13T13:10:18Z</time>
      </trkpt>
      <trkpt lat="44.13641" lon="6.19252">
        <ele>1405.58</ele>
        <time>2013-01-13T13:10:33Z</time>
      </trkpt>
      <trkpt lat="44.1364" lon="6.19253">
        <ele>1405.58</ele>
        <time>2013-01-13T13:10:36Z</time>
      </trkpt>
      <trkpt lat="44.13638" lon="6.19255">
        <ele>1404.14</ele>
        <time>2013-01-13T13:10:38Z</time>
      </trkpt>
      <trkpt lat="44.13629" lon="6.19254">
        <ele>1401.74</ele>
        <time>2013-01-13T13:10:51Z</time>
      </trkpt>
      <trkpt lat="44.13625" lon="6.19258">
        <ele>1400.3</ele>
        <time>2013-01-13T13:10:58Z</time>
      </trkpt>
      <trkpt lat="44.13612" lon="6.19274">
        <ele>1397.41</ele>
        <time>2013-01-13T13:11:14Z</time>
      </trkpt>
      <trkpt lat="44.13605" lon="6.19282">
        <ele>1394.53</ele>
        <time>2013-01-13T13:11:27Z</time>
      </trkpt>
      <trkpt lat="44.13596" lon="6.19287">
        <ele>1392.13</ele>
        <time>2013-01-13T13:11:41Z</time>
      </trkpt>
      <trkpt lat="44.13592" lon="6.19289">
        <ele>1391.17</ele>
        <time>2013-01-13T13:11:45Z</time>
      </trkpt>
      <trkpt lat="44.13588" lon="6.19298">
        <ele>1390.68</ele>
        <time>2013-01-13T13:11:57Z</time>
      </trkpt>
      <trkpt lat="44.13573" lon="6.19309">
        <ele>1388.76</ele>
        <time>2013-01-13T13:12:11Z</time>
      </trkpt>
      <trkpt lat="44.13569" lon="6.19315">
        <ele>1387.32</ele>
        <time>2013-01-13T13:12:16Z</time>
      </trkpt>
      <trkpt lat="44.13568" lon="6.19316">
        <ele>1387.8</ele>
        <time>2013-01-13T13:12:17Z</time>
      </trkpt>
      <trkpt lat="44.13551" lon="6.19328">
        <ele>1386.36</ele>
        <time>2013-01-13T13:12:33Z</time>
      </trkpt>
      <trkpt lat="44.13539" lon="6.19342">
        <ele>1384.44</ele>
        <time>2013-01-13T13:12:48Z</time>
      </trkpt>
      <trkpt lat="44.13537" lon="6.19345">
        <ele>1383.96</ele>
        <time>2013-01-13T13:12:52Z</time>
      </trkpt>
      <trkpt lat="44.13524" lon="6.19347">
        <ele>1382.99</ele>
        <time>2013-01-13T13:13:05Z</time>
      </trkpt>
      <trkpt lat="44.13512" lon="6.19346">
        <ele>1382.99</ele>
        <time>2013-01-13T13:13:19Z</time>
      </trkpt>
      <trkpt lat="44.135" lon="6.19354">
        <ele>1382.03</ele>
        <time>2013-01-13T13:13:31Z</time>
      </trkpt>
      <trkpt lat="44.13488" lon="6.19367">
        <ele>1382.03</ele>
        <time>2013-01-13T13:13:45Z</time>
      </trkpt>
      <trkpt lat="44.13475" lon="6.19389">
        <ele>1380.59</ele>
        <time>2013-01-13T13:14:04Z</time>
      </trkpt>
      <trkpt lat="44.13467" lon="6.19405">
        <ele>1380.59</ele>
        <time>2013-01-13T13:14:18Z</time>
      </trkpt>
      <trkpt lat="44.13466" lon="6.19406">
        <ele>1380.59</ele>
        <time>2013-01-13T13:14:20Z</time>
      </trkpt>
      <trkpt lat="44.13453" lon="6.19419">
        <ele>1380.59</ele>
        <time>2013-01-13T13:14:34Z</time>
      </trkpt>
      <trkpt lat="44.1344" lon="6.19435">
        <ele>1380.11</ele>
        <time>2013-01-13T13:14:49Z</time>
      </trkpt>
      <trkpt lat="44.13429" lon="6.1945">
        <ele>1379.15</ele>
        <time>2013-01-13T13:15:04Z</time>
      </trkpt>
      <trkpt lat="44.13422" lon="6.19464">
        <ele>1378.67</ele>
        <time>2013-01-13T13:15:19Z</time>
      </trkpt>
      <trkpt lat="44.13411" lon="6.19477">
        <ele>1378.19</ele>
        <time>2013-01-13T13:15:36Z</time>
      </trkpt>
      <trkpt lat="44.134" lon="6.19487">
        <ele>1377.71</ele>
        <time>2013-01-13T13:15:52Z</time>
      </trkpt>
      <trkpt lat="44.1339" lon="6.19494">
        <ele>1377.23</ele>
        <time>2013-01-13T13:16:06Z</time>
      </trkpt>
      <trkpt lat="44.13382" lon="6.19501">
        <ele>1378.67</ele>
        <time>2013-01-13T13:16:21Z</time>
      </trkpt>
      <trkpt lat="44.13369" lon="6.19509">
        <ele>1380.11</ele>
        <time>2013-01-13T13:16:36Z</time>
      </trkpt>
      <trkpt lat="44.13365" lon="6.19514">
        <ele>1381.07</ele>
        <time>2013-01-13T13:16:43Z</time>
      </trkpt>
      <trkpt lat="44.13358" lon="6.19533">
        <ele>1381.07</ele>
        <time>2013-01-13T13:17:00Z</time>
      </trkpt>
      <trkpt lat="44.13354" lon="6.19546">
        <ele>1382.51</ele>
        <time>2013-01-13T13:17:14Z</time>
      </trkpt>
      <trkpt lat="44.13352" lon="6.1955">
        <ele>1382.99</ele>
        <time>2013-01-13T13:17:28Z</time>
      </trkpt>
      <trkpt lat="44.13347" lon="6.19558">
        <ele>1384.92</ele>
        <time>2013-01-13T13:17:43Z</time>
      </trkpt>
      <trkpt lat="44.13339" lon="6.19571">
        <ele>1386.84</ele>
        <time>2013-01-13T13:17:58Z</time>
      </trkpt>
      <trkpt lat="44.13335" lon="6.19577">
        <ele>1387.32</ele>
        <time>2013-01-13T13:18:04Z</time>
      </trkpt>
      <trkpt lat="44.13332" lon="6.19582">
        <ele>1386.36</ele>
        <time>2013-01-13T13:18:10Z</time>
      </trkpt>
      <trkpt lat="44.13317" lon="6.19593">
        <ele>1385.88</ele>
        <time>2013-01-13T13:18:27Z</time>
      </trkpt>
      <trkpt lat="44.13314" lon="6.19596">
        <ele>1386.36</ele>
        <time>2013-01-13T13:18:31Z</time>
      </trkpt>
      <trkpt lat="44.1331" lon="6.19598">
        <ele>1385.88</ele>
        <time>2013-01-13T13:18:36Z</time>
      </trkpt>
      <trkpt lat="44.13298" lon="6.19603">
        <ele>1386.84</ele>
        <time>2013-01-13T13:18:49Z</time>
      </trkpt>
      <trkpt lat="44.1329" lon="6.19608">
        <ele>1387.32</ele>
        <time>2013-01-13T13:19:03Z</time>
      </trkpt>
      <trkpt lat="44.13273" lon="6.19614">
        <ele>1386.84</ele>
        <time>2013-01-13T13:19:21Z</time>
      </trkpt>
      <trkpt lat="44.13262" lon="6.19614">
        <ele>1387.32</ele>
        <time>2013-01-13T13:19:35Z</time>
      </trkpt>
      <trkpt lat="44.1325" lon="6.19616">
        <ele>1388.76</ele>
        <time>2013-01-13T13:19:50Z</time>
      </trkpt>
      <trkpt lat="44.13239" lon="6.19619">
        <ele>1389.72</ele>
        <time>2013-01-13T13:20:05Z</time>
      </trkpt>
      <trkpt lat="44.13224" lon="6.19631">
        <ele>1389.24</ele>
        <time>2013-01-13T13:20:20Z</time>
      </trkpt>
      <trkpt lat="44.13219" lon="6.19634">
        <ele>1389.72</ele>
        <time>2013-01-13T13:20:25Z</time>
      </trkpt>
      <trkpt lat="44.1321" lon="6.19636">
        <ele>1389.24</ele>
        <time>2013-01-13T13:20:33Z</time>
      </trkpt>
      <trkpt lat="44.13194" lon="6.19636">
        <ele>1389.72</ele>
        <time>2013-01-13T13:20:50Z</time>
      </trkpt>
      <trkpt lat="44.13186" lon="6.19637">
        <ele>1389.24</ele>
        <time>2013-01-13T13:21:03Z</time>
      </trkpt>
      <trkpt lat="44.13177" lon="6.19637">
        <ele>1388.76</ele>
        <time>2013-01-13T13:21:12Z</time>
      </trkpt>
      <trkpt lat="44.13164" lon="6.19632">
        <ele>1390.2</ele>
        <time>2013-01-13T13:21:27Z</time>
      </trkpt>
      <trkpt lat="44.13154" lon="6.19627">
        <ele>1391.17</ele>
        <time>2013-01-13T13:21:42Z</time>
      </trkpt>
      <trkpt lat="44.13144" lon="6.19621">
        <ele>1393.57</ele>
        <time>2013-01-13T13:21:55Z</time>
      </trkpt>
      <trkpt lat="44.13139" lon="6.19618">
        <ele>1394.05</ele>
        <time>2013-01-13T13:22:01Z</time>
      </trkpt>
      <trkpt lat="44.13129" lon="6.1961">
        <ele>1393.57</ele>
        <time>2013-01-13T13:22:15Z</time>
      </trkpt>
      <trkpt lat="44.13121" lon="6.19608">
        <ele>1391.17</ele>
        <time>2013-01-13T13:22:26Z</time>
      </trkpt>
      <trkpt lat="44.13105" lon="6.19606">
        <ele>1389.72</ele>
        <time>2013-01-13T13:22:41Z</time>
      </trkpt>
      <trkpt lat="44.13088" lon="6.19603">
        <ele>1389.24</ele>
        <time>2013-01-13T13:22:58Z</time>
      </trkpt>
      <trkpt lat="44.13078" lon="6.19603">
        <ele>1388.28</ele>
        <time>2013-01-13T13:23:08Z</time>
      </trkpt>
      <trkpt lat="44.13064" lon="6.19602">
        <ele>1387.32</ele>
        <time>2013-01-13T13:23:22Z</time>
      </trkpt>
      <trkpt lat="44.13056" lon="6.19598">
        <ele>1387.32</ele>
        <time>2013-01-13T13:23:30Z</time>
      </trkpt>
      <trkpt lat="44.1305" lon="6.19599">
        <ele>1386.84</ele>
        <time>2013-01-13T13:23:37Z</time>
      </trkpt>
      <trkpt lat="44.13044" lon="6.19601">
        <ele>1386.36</ele>
        <time>2013-01-13T13:23:43Z</time>
      </trkpt>
      <trkpt lat="44.13033" lon="6.19611">
        <ele>1386.36</ele>
        <time>2013-01-13T13:23:56Z</time>
      </trkpt>
      <trkpt lat="44.13019" lon="6.1962">
        <ele>1386.36</ele>
        <time>2013-01-13T13:24:12Z</time>
      </trkpt>
      <trkpt lat="44.13008" lon="6.19622">
        <ele>1387.32</ele>
        <time>2013-01-13T13:24:23Z</time>
      </trkpt>
      <trkpt lat="44.12994" lon="6.19632">
        <ele>1388.76</ele>
        <time>2013-01-13T13:24:39Z</time>
      </trkpt>
      <trkpt lat="44.12986" lon="6.19638">
        <ele>1388.76</ele>
        <time>2013-01-13T13:24:47Z</time>
      </trkpt>
      <trkpt lat="44.12971" lon="6.19647">
        <ele>1388.76</ele>
        <time>2013-01-13T13:25:02Z</time>
      </trkpt>
      <trkpt lat="44.12957" lon="6.19651">
        <ele>1387.32</ele>
        <time>2013-01-13T13:25:18Z</time>
      </trkpt>
      <trkpt lat="44.12943" lon="6.19659">
        <ele>1388.76</ele>
        <time>2013-01-13T13:25:36Z</time>
      </trkpt>
      <trkpt lat="44.12931" lon="6.19672">
        <ele>1389.72</ele>
        <time>2013-01-13T13:25:52Z</time>
      </trkpt>
      <trkpt lat="44.12921" lon="6.19683">
        <ele>1391.17</ele>
        <time>2013-01-13T13:26:07Z</time>
      </trkpt>
      <trkpt lat="44.12911" lon="6.19697">
        <ele>1390.68</ele>
        <time>2013-01-13T13:26:23Z</time>
      </trkpt>
      <trkpt lat="44.12896" lon="6.19704">
        <ele>1389.72</ele>
        <time>2013-01-13T13:26:42Z</time>
      </trkpt>
      <trkpt lat="44.12886" lon="6.19705">
        <ele>1388.28</ele>
        <time>2013-01-13T13:26:55Z</time>
      </trkpt>
      <trkpt lat="44.12883" lon="6.19705">
        <ele>1387.8</ele>
        <time>2013-01-13T13:27:07Z</time>
      </trkpt>
      <trkpt lat="44.12882" lon="6.19716">
        <ele>1388.28</ele>
        <time>2013-01-13T13:27:22Z</time>
      </trkpt>
      <trkpt lat="44.1288" lon="6.19713">
        <ele>1387.32</ele>
        <time>2013-01-13T13:27:33Z</time>
      </trkpt>
      <trkpt lat="44.1288" lon="6.19713">
        <ele>1385.88</ele>
        <time>2013-01-13T13:27:36Z</time>
      </trkpt>
      <trkpt lat="44.1288" lon="6.19713">
        <ele>1385.88</ele>
        <time>2013-01-13T13:28:14Z</time>
      </trkpt>
      <trkpt lat="44.1288" lon="6.19713">
        <ele>1385.88</ele>
        <time>2013-01-13T13:28:45Z</time>
      </trkpt>
      <trkpt lat="44.12879" lon="6.19713">
        <ele>1386.84</ele>
        <time>2013-01-13T13:29:15Z</time>
      </trkpt>
      <trkpt lat="44.12879" lon="6.19713">
        <ele>1387.32</ele>
        <time>2013-01-13T13:29:31Z</time>
      </trkpt>
      <trkpt lat="44.12882" lon="6.19715">
        <ele>1387.32</ele>
        <time>2013-01-13T13:29:44Z</time>
      </trkpt>
      <trkpt lat="44.12875" lon="6.19713">
        <ele>1386.36</ele>
        <time>2013-01-13T13:30:01Z</time>
      </trkpt>
      <trkpt lat="44.12875" lon="6.19713">
        <ele>1386.84</ele>
        <time>2013-01-13T13:30:26Z</time>
      </trkpt>
      <trkpt lat="44.12874" lon="6.19713">
        <ele>1385.88</ele>
        <time>2013-01-13T13:30:50Z</time>
      </trkpt>
      <trkpt lat="44.12871" lon="6.19712">
        <ele>1385.88</ele>
        <time>2013-01-13T13:30:56Z</time>
      </trkpt>
      <trkpt lat="44.12867" lon="6.19711">
        <ele>1384.92</ele>
        <time>2013-01-13T13:31:14Z</time>
      </trkpt>
      <trkpt lat="44.12865" lon="6.1971">
        <ele>1384.44</ele>
        <time>2013-01-13T13:31:24Z</time>
      </trkpt>
      <trkpt lat="44.12854" lon="6.19711">
        <ele>1382.03</ele>
        <time>2013-01-13T13:31:39Z</time>
      </trkpt>
      <trkpt lat="44.12845" lon="6.19718">
        <ele>1378.67</ele>
        <time>2013-01-13T13:31:54Z</time>
      </trkpt>
      <trkpt lat="44.12838" lon="6.19722">
        <ele>1378.19</ele>
        <time>2013-01-13T13:32:09Z</time>
      </trkpt>
      <trkpt lat="44.12837" lon="6.19723">
        <ele>1377.71</ele>
        <time>2013-01-13T13:32:10Z</time>
      </trkpt>
      <trkpt lat="44.12823" lon="6.1973">
        <ele>1374.82</ele>
        <time>2013-01-13T13:32:27Z</time>
      </trkpt>
      <trkpt lat="44.1281" lon="6.19733">
        <ele>1373.38</ele>
        <time>2013-01-13T13:32:43Z</time>
      </trkpt>
      <trkpt lat="44.128" lon="6.19738">
        <ele>1370.98</ele>
        <time>2013-01-13T13:32:57Z</time>
      </trkpt>
      <trkpt lat="44.12786" lon="6.19743">
        <ele>1369.54</ele>
        <time>2013-01-13T13:33:13Z</time>
      </trkpt>
      <trkpt lat="44.12771" lon="6.19749">
        <ele>1366.65</ele>
        <time>2013-01-13T13:33:29Z</time>
      </trkpt>
      <trkpt lat="44.12757" lon="6.19755">
        <ele>1365.21</ele>
        <time>2013-01-13T13:33:46Z</time>
      </trkpt>
      <trkpt lat="44.12744" lon="6.19761">
        <ele>1363.29</ele>
        <time>2013-01-13T13:34:01Z</time>
      </trkpt>
      <trkpt lat="44.1273" lon="6.19767">
        <ele>1362.33</ele>
        <time>2013-01-13T13:34:18Z</time>
      </trkpt>
      <trkpt lat="44.12718" lon="6.1977">
        <ele>1361.36</ele>
        <time>2013-01-13T13:34:32Z</time>
      </trkpt>
      <trkpt lat="44.12712" lon="6.19771">
        <ele>1359.92</ele>
        <time>2013-01-13T13:34:43Z</time>
      </trkpt>
      <trkpt lat="44.12701" lon="6.19773">
        <ele>1358.48</ele>
        <time>2013-01-13T13:34:57Z</time>
      </trkpt>
      <trkpt lat="44.12692" lon="6.19775">
        <ele>1356.56</ele>
        <time>2013-01-13T13:35:06Z</time>
      </trkpt>
      <trkpt lat="44.12685" lon="6.19777">
        <ele>1355.6</ele>
        <time>2013-01-13T13:35:14Z</time>
      </trkpt>
      <trkpt lat="44.12675" lon="6.19777">
        <ele>1353.19</ele>
        <time>2013-01-13T13:35:29Z</time>
      </trkpt>
      <trkpt lat="44.12668" lon="6.19777">
        <ele>1352.23</ele>
        <time>2013-01-13T13:35:39Z</time>
      </trkpt>
      <trkpt lat="44.12655" lon="6.19779">
        <ele>1349.83</ele>
        <time>2013-01-13T13:35:53Z</time>
      </trkpt>
      <trkpt lat="44.12654" lon="6.19778">
        <ele>1349.83</ele>
        <time>2013-01-13T13:36:10Z</time>
      </trkpt>
      <trkpt lat="44.12647" lon="6.19778">
        <ele>1348.39</ele>
        <time>2013-01-13T13:36:28Z</time>
      </trkpt>
      <trkpt lat="44.12635" lon="6.19778">
        <ele>1346.46</ele>
        <time>2013-01-13T13:36:43Z</time>
      </trkpt>
      <trkpt lat="44.12629" lon="6.1978">
        <ele>1345.98</ele>
        <time>2013-01-13T13:36:49Z</time>
      </trkpt>
      <trkpt lat="44.12616" lon="6.1978">
        <ele>1343.1</ele>
        <time>2013-01-13T13:37:05Z</time>
      </trkpt>
      <trkpt lat="44.12605" lon="6.19781">
        <ele>1341.66</ele>
        <time>2013-01-13T13:37:18Z</time>
      </trkpt>
      <trkpt lat="44.12599" lon="6.19782">
        <ele>1341.66</ele>
        <time>2013-01-13T13:37:35Z</time>
      </trkpt>
      <trkpt lat="44.12598" lon="6.19782">
        <ele>1341.18</ele>
        <time>2013-01-13T13:37:37Z</time>
      </trkpt>
      <trkpt lat="44.12587" lon="6.19787">
        <ele>1340.22</ele>
        <time>2013-01-13T13:37:51Z</time>
      </trkpt>
      <trkpt lat="44.12581" lon="6.19791">
        <ele>1339.25</ele>
        <time>2013-01-13T13:37:58Z</time>
      </trkpt>
      <trkpt lat="44.12569" lon="6.19797">
        <ele>1336.85</ele>
        <time>2013-01-13T13:38:13Z</time>
      </trkpt>
      <trkpt lat="44.1256" lon="6.19807">
        <ele>1335.41</ele>
        <time>2013-01-13T13:38:29Z</time>
      </trkpt>
      <trkpt lat="44.12554" lon="6.19817">
        <ele>1333.49</ele>
        <time>2013-01-13T13:38:41Z</time>
      </trkpt>
      <trkpt lat="44.12549" lon="6.19822">
        <ele>1332.04</ele>
        <time>2013-01-13T13:38:47Z</time>
      </trkpt>
      <trkpt lat="44.12547" lon="6.19825">
        <ele>1332.52</ele>
        <time>2013-01-13T13:38:51Z</time>
      </trkpt>
      <trkpt lat="44.1254" lon="6.1983">
        <ele>1331.56</ele>
        <time>2013-01-13T13:38:58Z</time>
      </trkpt>
      <trkpt lat="44.12526" lon="6.19839">
        <ele>1330.12</ele>
        <time>2013-01-13T13:39:12Z</time>
      </trkpt>
      <trkpt lat="44.12517" lon="6.19843">
        <ele>1329.16</ele>
        <time>2013-01-13T13:39:27Z</time>
      </trkpt>
      <trkpt lat="44.12516" lon="6.19844">
        <ele>1329.64</ele>
        <time>2013-01-13T13:39:36Z</time>
      </trkpt>
      <trkpt lat="44.12502" lon="6.19848">
        <ele>1327.24</ele>
        <time>2013-01-13T13:39:51Z</time>
      </trkpt>
      <trkpt lat="44.12488" lon="6.1985">
        <ele>1327.72</ele>
        <time>2013-01-13T13:40:07Z</time>
      </trkpt>
      <trkpt lat="44.12471" lon="6.1985">
        <ele>1326.28</ele>
        <time>2013-01-13T13:40:24Z</time>
      </trkpt>
      <trkpt lat="44.12468" lon="6.19851">
        <ele>1326.28</ele>
        <time>2013-01-13T13:40:28Z</time>
      </trkpt>
      <trkpt lat="44.12461" lon="6.19849">
        <ele>1324.35</ele>
        <time>2013-01-13T13:40:34Z</time>
      </trkpt>
      <trkpt lat="44.1245" lon="6.19848">
        <ele>1322.91</ele>
        <time>2013-01-13T13:40:48Z</time>
      </trkpt>
      <trkpt lat="44.12443" lon="6.19845">
        <ele>1320.99</ele>
        <time>2013-01-13T13:40:55Z</time>
      </trkpt>
      <trkpt lat="44.12437" lon="6.19845">
        <ele>1319.55</ele>
        <time>2013-01-13T13:41:03Z</time>
      </trkpt>
      <trkpt lat="44.12426" lon="6.19849">
        <ele>1318.59</ele>
        <time>2013-01-13T13:41:13Z</time>
      </trkpt>
      <trkpt lat="44.12413" lon="6.19847">
        <ele>1315.7</ele>
        <time>2013-01-13T13:41:29Z</time>
      </trkpt>
      <trkpt lat="44.12404" lon="6.19845">
        <ele>1313.3</ele>
        <time>2013-01-13T13:41:41Z</time>
      </trkpt>
      <trkpt lat="44.12398" lon="6.19843">
        <ele>1311.86</ele>
        <time>2013-01-13T13:41:49Z</time>
      </trkpt>
      <trkpt lat="44.12396" lon="6.19842">
        <ele>1311.38</ele>
        <time>2013-01-13T13:41:51Z</time>
      </trkpt>
      <trkpt lat="44.12394" lon="6.19842">
        <ele>1311.38</ele>
        <time>2013-01-13T13:41:54Z</time>
      </trkpt>
      <trkpt lat="44.12387" lon="6.19849">
        <ele>1309.93</ele>
        <time>2013-01-13T13:42:03Z</time>
      </trkpt>
      <trkpt lat="44.12385" lon="6.19853">
        <ele>1309.93</ele>
        <time>2013-01-13T13:42:07Z</time>
      </trkpt>
      <trkpt lat="44.12381" lon="6.19854">
        <ele>1309.45</ele>
        <time>2013-01-13T13:42:15Z</time>
      </trkpt>
      <trkpt lat="44.12373" lon="6.19852">
        <ele>1307.53</ele>
        <time>2013-01-13T13:42:30Z</time>
      </trkpt>
      <trkpt lat="44.1237" lon="6.1985">
        <ele>1306.57</ele>
        <time>2013-01-13T13:42:44Z</time>
      </trkpt>
      <trkpt lat="44.12368" lon="6.19848">
        <ele>1305.61</ele>
        <time>2013-01-13T13:43:05Z</time>
      </trkpt>
      <trkpt lat="44.12363" lon="6.19847">
        <ele>1305.13</ele>
        <time>2013-01-13T13:43:21Z</time>
      </trkpt>
      <trkpt lat="44.12357" lon="6.19842">
        <ele>1303.2</ele>
        <time>2013-01-13T13:43:35Z</time>
      </trkpt>
      <trkpt lat="44.12355" lon="6.19839">
        <ele>1302.72</ele>
        <time>2013-01-13T13:43:38Z</time>
      </trkpt>
      <trkpt lat="44.12352" lon="6.19828">
        <ele>1300.8</ele>
        <time>2013-01-13T13:43:47Z</time>
      </trkpt>
      <trkpt lat="44.12343" lon="6.19819">
        <ele>1300.8</ele>
        <time>2013-01-13T13:44:02Z</time>
      </trkpt>
      <trkpt lat="44.1234" lon="6.19808">
        <ele>1299.36</ele>
        <time>2013-01-13T13:44:15Z</time>
      </trkpt>
      <trkpt lat="44.1234" lon="6.19795">
        <ele>1298.88</ele>
        <time>2013-01-13T13:44:28Z</time>
      </trkpt>
      <trkpt lat="44.12339" lon="6.19782">
        <ele>1296.48</ele>
        <time>2013-01-13T13:44:40Z</time>
      </trkpt>
      <trkpt lat="44.12339" lon="6.19775">
        <ele>1294.07</ele>
        <time>2013-01-13T13:44:54Z</time>
      </trkpt>
      <trkpt lat="44.12339" lon="6.19761">
        <ele>1291.67</ele>
        <time>2013-01-13T13:45:08Z</time>
      </trkpt>
      <trkpt lat="44.12336" lon="6.19751">
        <ele>1290.71</ele>
        <time>2013-01-13T13:45:20Z</time>
      </trkpt>
      <trkpt lat="44.12336" lon="6.19749">
        <ele>1290.23</ele>
        <time>2013-01-13T13:45:34Z</time>
      </trkpt>
      <trkpt lat="44.12335" lon="6.19749">
        <ele>1290.23</ele>
        <time>2013-01-13T13:45:36Z</time>
      </trkpt>
      <trkpt lat="44.12329" lon="6.19738">
        <ele>1288.78</ele>
        <time>2013-01-13T13:45:49Z</time>
      </trkpt>
      <trkpt lat="44.12315" lon="6.19728">
        <ele>1286.86</ele>
        <time>2013-01-13T13:46:05Z</time>
      </trkpt>
      <trkpt lat="44.12312" lon="6.19724">
        <ele>1285.9</ele>
        <time>2013-01-13T13:46:10Z</time>
      </trkpt>
      <trkpt lat="44.12299" lon="6.19719">
        <ele>1285.42</ele>
        <time>2013-01-13T13:46:25Z</time>
      </trkpt>
      <trkpt lat="44.12287" lon="6.19709">
        <ele>1285.42</ele>
        <time>2013-01-13T13:46:40Z</time>
      </trkpt>
      <trkpt lat="44.1228" lon="6.19693">
        <ele>1283.02</ele>
        <time>2013-01-13T13:46:55Z</time>
      </trkpt>
      <trkpt lat="44.12275" lon="6.19685">
        <ele>1282.06</ele>
        <time>2013-01-13T13:47:08Z</time>
      </trkpt>
      <trkpt lat="44.12274" lon="6.19684">
        <ele>1282.06</ele>
        <time>2013-01-13T13:47:09Z</time>
      </trkpt>
      <trkpt lat="44.12265" lon="6.19671">
        <ele>1279.17</ele>
        <time>2013-01-13T13:47:25Z</time>
      </trkpt>
      <trkpt lat="44.1226" lon="6.19665">
        <ele>1278.69</ele>
        <time>2013-01-13T13:47:33Z</time>
      </trkpt>
      <trkpt lat="44.12254" lon="6.19664">
        <ele>1277.25</ele>
        <time>2013-01-13T13:47:40Z</time>
      </trkpt>
      <trkpt lat="44.1224" lon="6.19669">
        <ele>1275.81</ele>
        <time>2013-01-13T13:47:55Z</time>
      </trkpt>
      <trkpt lat="44.12229" lon="6.19671">
        <ele>1273.88</ele>
        <time>2013-01-13T13:48:09Z</time>
      </trkpt>
      <trkpt lat="44.12218" lon="6.19677">
        <ele>1272.92</ele>
        <time>2013-01-13T13:48:23Z</time>
      </trkpt>
      <trkpt lat="44.12212" lon="6.19679">
        <ele>1271</ele>
        <time>2013-01-13T13:48:37Z</time>
      </trkpt>
      <trkpt lat="44.12201" lon="6.19686">
        <ele>1269.08</ele>
        <time>2013-01-13T13:48:51Z</time>
      </trkpt>
      <trkpt lat="44.12188" lon="6.19692">
        <ele>1268.6</ele>
        <time>2013-01-13T13:49:06Z</time>
      </trkpt>
      <trkpt lat="44.12175" lon="6.19686">
        <ele>1265.71</ele>
        <time>2013-01-13T13:49:22Z</time>
      </trkpt>
      <trkpt lat="44.12164" lon="6.19682">
        <ele>1264.27</ele>
        <time>2013-01-13T13:49:36Z</time>
      </trkpt>
      <trkpt lat="44.12156" lon="6.19679">
        <ele>1262.35</ele>
        <time>2013-01-13T13:49:51Z</time>
      </trkpt>
      <trkpt lat="44.12156" lon="6.19679">
        <ele>1262.83</ele>
        <time>2013-01-13T13:50:21Z</time>
      </trkpt>
      <trkpt lat="44.12154" lon="6.19682">
        <ele>1261.87</ele>
        <time>2013-01-13T13:50:41Z</time>
      </trkpt>
      <trkpt lat="44.12141" lon="6.19691">
        <ele>1258.5</ele>
        <time>2013-01-13T13:50:56Z</time>
      </trkpt>
      <trkpt lat="44.12128" lon="6.19696">
        <ele>1260.43</ele>
        <time>2013-01-13T13:51:13Z</time>
      </trkpt>
      <trkpt lat="44.12124" lon="6.19694">
        <ele>1259.94</ele>
        <time>2013-01-13T13:51:30Z</time>
      </trkpt>
      <trkpt lat="44.12124" lon="6.19694">
        <ele>1259.46</ele>
        <time>2013-01-13T13:51:57Z</time>
      </trkpt>
      <trkpt lat="44.12116" lon="6.19693">
        <ele>1258.02</ele>
        <time>2013-01-13T13:52:13Z</time>
      </trkpt>
      <trkpt lat="44.12105" lon="6.19694">
        <ele>1255.62</ele>
        <time>2013-01-13T13:52:29Z</time>
      </trkpt>
      <trkpt lat="44.12095" lon="6.197">
        <ele>1253.7</ele>
        <time>2013-01-13T13:52:44Z</time>
      </trkpt>
      <trkpt lat="44.12088" lon="6.197">
        <ele>1252.74</ele>
        <time>2013-01-13T13:52:55Z</time>
      </trkpt>
      <trkpt lat="44.12077" lon="6.19702">
        <ele>1250.81</ele>
        <time>2013-01-13T13:53:11Z</time>
      </trkpt>
      <trkpt lat="44.12067" lon="6.1969">
        <ele>1248.41</ele>
        <time>2013-01-13T13:53:27Z</time>
      </trkpt>
      <trkpt lat="44.12058" lon="6.19693">
        <ele>1247.45</ele>
        <time>2013-01-13T13:53:40Z</time>
      </trkpt>
      <trkpt lat="44.1205" lon="6.19695">
        <ele>1247.45</ele>
        <time>2013-01-13T13:53:48Z</time>
      </trkpt>
      <trkpt lat="44.12048" lon="6.19696">
        <ele>1247.45</ele>
        <time>2013-01-13T13:53:50Z</time>
      </trkpt>
      <trkpt lat="44.12033" lon="6.19702">
        <ele>1246.01</ele>
        <time>2013-01-13T13:54:06Z</time>
      </trkpt>
      <trkpt lat="44.12027" lon="6.19704">
        <ele>1244.56</ele>
        <time>2013-01-13T13:54:18Z</time>
      </trkpt>
      <trkpt lat="44.12021" lon="6.19713">
        <ele>1241.68</ele>
        <time>2013-01-13T13:54:31Z</time>
      </trkpt>
      <trkpt lat="44.12013" lon="6.19713">
        <ele>1239.28</ele>
        <time>2013-01-13T13:54:45Z</time>
      </trkpt>
      <trkpt lat="44.12009" lon="6.19711">
        <ele>1238.32</ele>
        <time>2013-01-13T13:54:49Z</time>
      </trkpt>
      <trkpt lat="44.12001" lon="6.19708">
        <ele>1235.91</ele>
        <time>2013-01-13T13:55:02Z</time>
      </trkpt>
      <trkpt lat="44.11994" lon="6.19713">
        <ele>1233.99</ele>
        <time>2013-01-13T13:55:17Z</time>
      </trkpt>
      <trkpt lat="44.11991" lon="6.19716">
        <ele>1230.62</ele>
        <time>2013-01-13T13:55:30Z</time>
      </trkpt>
      <trkpt lat="44.11988" lon="6.19719">
        <ele>1229.18</ele>
        <time>2013-01-13T13:55:39Z</time>
      </trkpt>
      <trkpt lat="44.11978" lon="6.19724">
        <ele>1227.74</ele>
        <time>2013-01-13T13:55:53Z</time>
      </trkpt>
      <trkpt lat="44.11972" lon="6.19727">
        <ele>1226.3</ele>
        <time>2013-01-13T13:56:00Z</time>
      </trkpt>
      <trkpt lat="44.11965" lon="6.19729">
        <ele>1224.38</ele>
        <time>2013-01-13T13:56:08Z</time>
      </trkpt>
      <trkpt lat="44.11955" lon="6.19734">
        <ele>1222.93</ele>
        <time>2013-01-13T13:56:19Z</time>
      </trkpt>
      <trkpt lat="44.11952" lon="6.19735">
        <ele>1222.45</ele>
        <time>2013-01-13T13:56:22Z</time>
      </trkpt>
      <trkpt lat="44.11938" lon="6.19736">
        <ele>1221.01</ele>
        <time>2013-01-13T13:56:36Z</time>
      </trkpt>
      <trkpt lat="44.11931" lon="6.19735">
        <ele>1221.01</ele>
        <time>2013-01-13T13:56:49Z</time>
      </trkpt>
      <trkpt lat="44.11918" lon="6.19736">
        <ele>1218.61</ele>
        <time>2013-01-13T13:57:02Z</time>
      </trkpt>
      <trkpt lat="44.11906" lon="6.19734">
        <ele>1217.65</ele>
        <time>2013-01-13T13:57:17Z</time>
      </trkpt>
      <trkpt lat="44.11897" lon="6.19734">
        <ele>1215.72</ele>
        <time>2013-01-13T13:57:32Z</time>
      </trkpt>
      <trkpt lat="44.11887" lon="6.19737">
        <ele>1213.8</ele>
        <time>2013-01-13T13:57:46Z</time>
      </trkpt>
      <trkpt lat="44.11883" lon="6.19737">
        <ele>1213.32</ele>
        <time>2013-01-13T13:57:51Z</time>
      </trkpt>
      <trkpt lat="44.11875" lon="6.19738">
        <ele>1212.36</ele>
        <time>2013-01-13T13:58:06Z</time>
      </trkpt>
      <trkpt lat="44.11874" lon="6.1974">
        <ele>1211.88</ele>
        <time>2013-01-13T13:58:22Z</time>
      </trkpt>
      <trkpt lat="44.11874" lon="6.1974">
        <ele>1211.88</ele>
        <time>2013-01-13T13:58:38Z</time>
      </trkpt>
      <trkpt lat="44.11876" lon="6.19737">
        <ele>1212.84</ele>
        <time>2013-01-13T13:59:00Z</time>
      </trkpt>
      <trkpt lat="44.11876" lon="6.19737">
        <ele>1210.92</ele>
        <time>2013-01-13T13:59:18Z</time>
      </trkpt>
      <trkpt lat="44.11876" lon="6.19738">
        <ele>1211.4</ele>
        <time>2013-01-13T13:59:42Z</time>
      </trkpt>
      <trkpt lat="44.11876" lon="6.19738">
        <ele>1210.92</ele>
        <time>2013-01-13T14:00:15Z</time>
      </trkpt>
      <trkpt lat="44.11876" lon="6.19738">
        <ele>1211.4</ele>
        <time>2013-01-13T14:00:47Z</time>
      </trkpt>
      <trkpt lat="44.11876" lon="6.19738">
        <ele>1211.4</ele>
        <time>2013-01-13T14:01:24Z</time>
      </trkpt>
      <trkpt lat="44.11876" lon="6.19738">
        <ele>1211.88</ele>
        <time>2013-01-13T14:01:58Z</time>
      </trkpt>
      <trkpt lat="44.11876" lon="6.19738">
        <ele>1211.4</ele>
        <time>2013-01-13T14:02:37Z</time>
      </trkpt>
      <trkpt lat="44.11875" lon="6.19738">
        <ele>1211.4</ele>
        <time>2013-01-13T14:03:11Z</time>
      </trkpt>
      <trkpt lat="44.11875" lon="6.19738">
        <ele>1211.4</ele>
        <time>2013-01-13T14:03:46Z</time>
      </trkpt>
      <trkpt lat="44.11875" lon="6.19738">
        <ele>1211.88</ele>
        <time>2013-01-13T14:04:09Z</time>
      </trkpt>
      <trkpt lat="44.11875" lon="6.19738">
        <ele>1212.36</ele>
        <time>2013-01-13T14:04:36Z</time>
      </trkpt>
      <trkpt lat="44.11875" lon="6.19738">
        <ele>1213.32</ele>
        <time>2013-01-13T14:04:55Z</time>
      </trkpt>
      <trkpt lat="44.11876" lon="6.19738">
        <ele>1212.36</ele>
        <time>2013-01-13T14:05:18Z</time>
      </trkpt>
      <trkpt lat="44.11875" lon="6.19735">
        <ele>1211.88</ele>
        <time>2013-01-13T14:05:45Z</time>
      </trkpt>
      <trkpt lat="44.11866" lon="6.1973">
        <ele>1209.96</ele>
        <time>2013-01-13T14:05:59Z</time>
      </trkpt>
      <trkpt lat="44.11858" lon="6.19726">
        <ele>1206.59</ele>
        <time>2013-01-13T14:06:12Z</time>
      </trkpt>
      <trkpt lat="44.11849" lon="6.19725">
        <ele>1203.71</ele>
        <time>2013-01-13T14:06:26Z</time>
      </trkpt>
      <trkpt lat="44.11838" lon="6.19724">
        <ele>1201.3</ele>
        <time>2013-01-13T14:06:42Z</time>
      </trkpt>
      <trkpt lat="44.11826" lon="6.1972">
        <ele>1198.42</ele>
        <time>2013-01-13T14:06:57Z</time>
      </trkpt>
      <trkpt lat="44.11818" lon="6.19718">
        <ele>1195.54</ele>
        <time>2013-01-13T14:07:12Z</time>
      </trkpt>
      <trkpt lat="44.11808" lon="6.19713">
        <ele>1193.61</ele>
        <time>2013-01-13T14:07:26Z</time>
      </trkpt>
      <trkpt lat="44.11798" lon="6.19709">
        <ele>1190.25</ele>
        <time>2013-01-13T14:07:38Z</time>
      </trkpt>
      <trkpt lat="44.11791" lon="6.19709">
        <ele>1188.33</ele>
        <time>2013-01-13T14:07:49Z</time>
      </trkpt>
      <trkpt lat="44.11776" lon="6.19708">
        <ele>1186.4</ele>
        <time>2013-01-13T14:08:05Z</time>
      </trkpt>
      <trkpt lat="44.11766" lon="6.19702">
        <ele>1183.52</ele>
        <time>2013-01-13T14:08:19Z</time>
      </trkpt>
      <trkpt lat="44.11757" lon="6.19697">
        <ele>1181.6</ele>
        <time>2013-01-13T14:08:32Z</time>
      </trkpt>
      <trkpt lat="44.11749" lon="6.19688">
        <ele>1178.71</ele>
        <time>2013-01-13T14:08:47Z</time>
      </trkpt>
      <trkpt lat="44.11745" lon="6.19671">
        <ele>1177.27</ele>
        <time>2013-01-13T14:09:03Z</time>
      </trkpt>
      <trkpt lat="44.11741" lon="6.19656">
        <ele>1173.91</ele>
        <time>2013-01-13T14:09:18Z</time>
      </trkpt>
      <trkpt lat="44.1174" lon="6.19653">
        <ele>1173.91</ele>
        <time>2013-01-13T14:09:20Z</time>
      </trkpt>
      <trkpt lat="44.11737" lon="6.19633">
        <ele>1171.5</ele>
        <time>2013-01-13T14:09:38Z</time>
      </trkpt>
      <trkpt lat="44.11734" lon="6.19614">
        <ele>1169.1</ele>
        <time>2013-01-13T14:09:54Z</time>
      </trkpt>
      <trkpt lat="44.11733" lon="6.19604">
        <ele>1168.14</ele>
        <time>2013-01-13T14:10:02Z</time>
      </trkpt>
      <trkpt lat="44.11728" lon="6.19593">
        <ele>1167.66</ele>
        <time>2013-01-13T14:10:12Z</time>
      </trkpt>
      <trkpt lat="44.11724" lon="6.19569">
        <ele>1166.22</ele>
        <time>2013-01-13T14:10:30Z</time>
      </trkpt>
      <trkpt lat="44.11719" lon="6.19551">
        <ele>1166.7</ele>
        <time>2013-01-13T14:10:46Z</time>
      </trkpt>
      <trkpt lat="44.11712" lon="6.19537">
        <ele>1167.66</ele>
        <time>2013-01-13T14:11:01Z</time>
      </trkpt>
      <trkpt lat="44.1171" lon="6.19533">
        <ele>1167.66</ele>
        <time>2013-01-13T14:11:14Z</time>
      </trkpt>
      <trkpt lat="44.11707" lon="6.19528">
        <ele>1166.22</ele>
        <time>2013-01-13T14:11:26Z</time>
      </trkpt>
      <trkpt lat="44.117" lon="6.19522">
        <ele>1164.29</ele>
        <time>2013-01-13T14:11:39Z</time>
      </trkpt>
      <trkpt lat="44.11695" lon="6.19512">
        <ele>1162.85</ele>
        <time>2013-01-13T14:11:54Z</time>
      </trkpt>
      <trkpt lat="44.11691" lon="6.19499">
        <ele>1160.93</ele>
        <time>2013-01-13T14:12:09Z</time>
      </trkpt>
      <trkpt lat="44.11684" lon="6.19486">
        <ele>1159.01</ele>
        <time>2013-01-13T14:12:25Z</time>
      </trkpt>
      <trkpt lat="44.11685" lon="6.19472">
        <ele>1157.08</ele>
        <time>2013-01-13T14:12:41Z</time>
      </trkpt>
      <trkpt lat="44.11685" lon="6.19472">
        <ele>1156.6</ele>
        <time>2013-01-13T14:13:06Z</time>
      </trkpt>
      <trkpt lat="44.1168" lon="6.19476">
        <ele>1156.12</ele>
        <time>2013-01-13T14:13:18Z</time>
      </trkpt>
      <trkpt lat="44.11676" lon="6.19492">
        <ele>1155.16</ele>
        <time>2013-01-13T14:13:33Z</time>
      </trkpt>
      <trkpt lat="44.11673" lon="6.19508">
        <ele>1153.24</ele>
        <time>2013-01-13T14:13:47Z</time>
      </trkpt>
      <trkpt lat="44.11673" lon="6.19509">
        <ele>1152.76</ele>
        <time>2013-01-13T14:13:48Z</time>
      </trkpt>
      <trkpt lat="44.11672" lon="6.19512">
        <ele>1152.28</ele>
        <time>2013-01-13T14:13:51Z</time>
      </trkpt>
      <trkpt lat="44.1167" lon="6.19521">
        <ele>1152.28</ele>
        <time>2013-01-13T14:14:00Z</time>
      </trkpt>
      <trkpt lat="44.11668" lon="6.19531">
        <ele>1149.87</ele>
        <time>2013-01-13T14:14:09Z</time>
      </trkpt>
      <trkpt lat="44.11658" lon="6.1954">
        <ele>1148.43</ele>
        <time>2013-01-13T14:14:23Z</time>
      </trkpt>
      <trkpt lat="44.11656" lon="6.19544">
        <ele>1148.43</ele>
        <time>2013-01-13T14:14:27Z</time>
      </trkpt>
      <trkpt lat="44.11646" lon="6.19548">
        <ele>1148.91</ele>
        <time>2013-01-13T14:14:40Z</time>
      </trkpt>
      <trkpt lat="44.11634" lon="6.19537">
        <ele>1146.51</ele>
        <time>2013-01-13T14:14:55Z</time>
      </trkpt>
      <trkpt lat="44.11623" lon="6.1953">
        <ele>1143.63</ele>
        <time>2013-01-13T14:15:10Z</time>
      </trkpt>
      <trkpt lat="44.11614" lon="6.19525">
        <ele>1141.7</ele>
        <time>2013-01-13T14:15:24Z</time>
      </trkpt>
      <trkpt lat="44.11602" lon="6.1952">
        <ele>1139.78</ele>
        <time>2013-01-13T14:15:41Z</time>
      </trkpt>
      <trkpt lat="44.11592" lon="6.19513">
        <ele>1136.9</ele>
        <time>2013-01-13T14:15:55Z</time>
      </trkpt>
      <trkpt lat="44.1158" lon="6.19511">
        <ele>1134.01</ele>
        <time>2013-01-13T14:16:12Z</time>
      </trkpt>
      <trkpt lat="44.1157" lon="6.19507">
        <ele>1131.61</ele>
        <time>2013-01-13T14:16:28Z</time>
      </trkpt>
      <trkpt lat="44.11565" lon="6.19507">
        <ele>1130.17</ele>
        <time>2013-01-13T14:16:44Z</time>
      </trkpt>
      <trkpt lat="44.11554" lon="6.19508">
        <ele>1127.76</ele>
        <time>2013-01-13T14:17:01Z</time>
      </trkpt>
      <trkpt lat="44.11544" lon="6.19507">
        <ele>1125.84</ele>
        <time>2013-01-13T14:17:14Z</time>
      </trkpt>
      <trkpt lat="44.11535" lon="6.19503">
        <ele>1122.96</ele>
        <time>2013-01-13T14:17:28Z</time>
      </trkpt>
      <trkpt lat="44.11523" lon="6.19501">
        <ele>1119.59</ele>
        <time>2013-01-13T14:17:46Z</time>
      </trkpt>
      <trkpt lat="44.11512" lon="6.19497">
        <ele>1117.67</ele>
        <time>2013-01-13T14:18:01Z</time>
      </trkpt>
      <trkpt lat="44.11502" lon="6.1949">
        <ele>1115.75</ele>
        <time>2013-01-13T14:18:16Z</time>
      </trkpt>
      <trkpt lat="44.1149" lon="6.19484">
        <ele>1114.31</ele>
        <time>2013-01-13T14:18:31Z</time>
      </trkpt>
      <trkpt lat="44.1148" lon="6.19488">
        <ele>1111.9</ele>
        <time>2013-01-13T14:18:46Z</time>
      </trkpt>
      <trkpt lat="44.1147" lon="6.19484">
        <ele>1109.98</ele>
        <time>2013-01-13T14:19:00Z</time>
      </trkpt>
      <trkpt lat="44.11457" lon="6.19488">
        <ele>1108.54</ele>
        <time>2013-01-13T14:19:15Z</time>
      </trkpt>
      <trkpt lat="44.11447" lon="6.19485">
        <ele>1106.61</ele>
        <time>2013-01-13T14:19:29Z</time>
      </trkpt>
      <trkpt lat="44.11447" lon="6.19485">
        <ele>1107.1</ele>
        <time>2013-01-13T14:19:52Z</time>
      </trkpt>
      <trkpt lat="44.11446" lon="6.19485">
        <ele>1105.65</ele>
        <time>2013-01-13T14:20:19Z</time>
      </trkpt>
      <trkpt lat="44.1144" lon="6.19489">
        <ele>1103.25</ele>
        <time>2013-01-13T14:20:33Z</time>
      </trkpt>
      <trkpt lat="44.11437" lon="6.19493">
        <ele>1102.77</ele>
        <time>2013-01-13T14:20:37Z</time>
      </trkpt>
      <trkpt lat="44.11431" lon="6.19507">
        <ele>1100.37</ele>
        <time>2013-01-13T14:20:50Z</time>
      </trkpt>
      <trkpt lat="44.11424" lon="6.19518">
        <ele>1098.44</ele>
        <time>2013-01-13T14:21:03Z</time>
      </trkpt>
      <trkpt lat="44.11422" lon="6.19519">
        <ele>1098.44</ele>
        <time>2013-01-13T14:21:04Z</time>
      </trkpt>
      <trkpt lat="44.11411" lon="6.19526">
        <ele>1097.48</ele>
        <time>2013-01-13T14:21:17Z</time>
      </trkpt>
      <trkpt lat="44.11409" lon="6.19528">
        <ele>1097</ele>
        <time>2013-01-13T14:21:21Z</time>
      </trkpt>
      <trkpt lat="44.11405" lon="6.19529">
        <ele>1095.56</ele>
        <time>2013-01-13T14:21:26Z</time>
      </trkpt>
      <trkpt lat="44.11397" lon="6.19535">
        <ele>1094.12</ele>
        <time>2013-01-13T14:21:36Z</time>
      </trkpt>
      <trkpt lat="44.11393" lon="6.19545">
        <ele>1094.12</ele>
        <time>2013-01-13T14:21:45Z</time>
      </trkpt>
      <trkpt lat="44.1138" lon="6.19554">
        <ele>1091.71</ele>
        <time>2013-01-13T14:22:01Z</time>
      </trkpt>
      <trkpt lat="44.11373" lon="6.1957">
        <ele>1091.23</ele>
        <time>2013-01-13T14:22:15Z</time>
      </trkpt>
      <trkpt lat="44.11369" lon="6.1957">
        <ele>1089.31</ele>
        <time>2013-01-13T14:22:28Z</time>
      </trkpt>
      <trkpt lat="44.11372" lon="6.19555">
        <ele>1086.43</ele>
        <time>2013-01-13T14:22:44Z</time>
      </trkpt>
      <trkpt lat="44.11377" lon="6.19542">
        <ele>1084.5</ele>
        <time>2013-01-13T14:22:58Z</time>
      </trkpt>
      <trkpt lat="44.11371" lon="6.19543">
        <ele>1082.58</ele>
        <time>2013-01-13T14:23:13Z</time>
      </trkpt>
      <trkpt lat="44.11368" lon="6.19545">
        <ele>1080.66</ele>
        <time>2013-01-13T14:23:23Z</time>
      </trkpt>
      <trkpt lat="44.1136" lon="6.19551">
        <ele>1078.74</ele>
        <time>2013-01-13T14:23:35Z</time>
      </trkpt>
      <trkpt lat="44.11354" lon="6.19563">
        <ele>1077.29</ele>
        <time>2013-01-13T14:23:50Z</time>
      </trkpt>
      <trkpt lat="44.11349" lon="6.19569">
        <ele>1074.89</ele>
        <time>2013-01-13T14:23:58Z</time>
      </trkpt>
      <trkpt lat="44.11342" lon="6.19582">
        <ele>1072.97</ele>
        <time>2013-01-13T14:24:12Z</time>
      </trkpt>
      <trkpt lat="44.11339" lon="6.19587">
        <ele>1072.49</ele>
        <time>2013-01-13T14:24:18Z</time>
      </trkpt>
      <trkpt lat="44.11329" lon="6.19587">
        <ele>1071.53</ele>
        <time>2013-01-13T14:24:29Z</time>
      </trkpt>
      <trkpt lat="44.11317" lon="6.19579">
        <ele>1068.64</ele>
        <time>2013-01-13T14:24:44Z</time>
      </trkpt>
      <trkpt lat="44.11308" lon="6.19578">
        <ele>1068.16</ele>
        <time>2013-01-13T14:24:57Z</time>
      </trkpt>
      <trkpt lat="44.11299" lon="6.19573">
        <ele>1065.28</ele>
        <time>2013-01-13T14:25:11Z</time>
      </trkpt>
      <trkpt lat="44.11288" lon="6.19574">
        <ele>1062.39</ele>
        <time>2013-01-13T14:25:27Z</time>
      </trkpt>
      <trkpt lat="44.11276" lon="6.19578">
        <ele>1060.47</ele>
        <time>2013-01-13T14:25:42Z</time>
      </trkpt>
      <trkpt lat="44.11271" lon="6.1958">
        <ele>1058.55</ele>
        <time>2013-01-13T14:25:50Z</time>
      </trkpt>
      <trkpt lat="44.1126" lon="6.19583">
        <ele>1056.63</ele>
        <time>2013-01-13T14:26:06Z</time>
      </trkpt>
      <trkpt lat="44.1125" lon="6.19586">
        <ele>1054.22</ele>
        <time>2013-01-13T14:26:20Z</time>
      </trkpt>
      <trkpt lat="44.11238" lon="6.19591">
        <ele>1052.78</ele>
        <time>2013-01-13T14:26:36Z</time>
      </trkpt>
      <trkpt lat="44.11229" lon="6.19592">
        <ele>1051.82</ele>
        <time>2013-01-13T14:26:47Z</time>
      </trkpt>
      <trkpt lat="44.11217" lon="6.19595">
        <ele>1049.42</ele>
        <time>2013-01-13T14:27:02Z</time>
      </trkpt>
      <trkpt lat="44.11205" lon="6.19599">
        <ele>1046.53</ele>
        <time>2013-01-13T14:27:18Z</time>
      </trkpt>
      <trkpt lat="44.11194" lon="6.19604">
        <ele>1044.61</ele>
        <time>2013-01-13T14:27:32Z</time>
      </trkpt>
      <trkpt lat="44.11183" lon="6.19612">
        <ele>1043.17</ele>
        <time>2013-01-13T14:27:50Z</time>
      </trkpt>
      <trkpt lat="44.11173" lon="6.1962">
        <ele>1041.25</ele>
        <time>2013-01-13T14:28:06Z</time>
      </trkpt>
      <trkpt lat="44.1117" lon="6.19622">
        <ele>1040.28</ele>
        <time>2013-01-13T14:28:23Z</time>
      </trkpt>
      <trkpt lat="44.1116" lon="6.19625">
        <ele>1039.32</ele>
        <time>2013-01-13T14:28:37Z</time>
      </trkpt>
      <trkpt lat="44.11151" lon="6.19625">
        <ele>1037.4</ele>
        <time>2013-01-13T14:28:50Z</time>
      </trkpt>
      <trkpt lat="44.11141" lon="6.19621">
        <ele>1035</ele>
        <time>2013-01-13T14:29:04Z</time>
      </trkpt>
      <trkpt lat="44.1113" lon="6.19618">
        <ele>1033.07</ele>
        <time>2013-01-13T14:29:19Z</time>
      </trkpt>
      <trkpt lat="44.11128" lon="6.19617">
        <ele>1032.59</ele>
        <time>2013-01-13T14:29:37Z</time>
      </trkpt>
      <trkpt lat="44.11121" lon="6.19616">
        <ele>1031.15</ele>
        <time>2013-01-13T14:29:59Z</time>
      </trkpt>
      <trkpt lat="44.11111" lon="6.19624">
        <ele>1029.23</ele>
        <time>2013-01-13T14:30:15Z</time>
      </trkpt>
      <trkpt lat="44.11108" lon="6.19628">
        <ele>1027.79</ele>
        <time>2013-01-13T14:30:19Z</time>
      </trkpt>
      <trkpt lat="44.11099" lon="6.19632">
        <ele>1025.38</ele>
        <time>2013-01-13T14:30:35Z</time>
      </trkpt>
      <trkpt lat="44.11094" lon="6.19626">
        <ele>1023.94</ele>
        <time>2013-01-13T14:30:42Z</time>
      </trkpt>
      <trkpt lat="44.11092" lon="6.19618">
        <ele>1022.5</ele>
        <time>2013-01-13T14:30:52Z</time>
      </trkpt>
      <trkpt lat="44.11087" lon="6.19618">
        <ele>1021.54</ele>
        <time>2013-01-13T14:31:01Z</time>
      </trkpt>
      <trkpt lat="44.11082" lon="6.19625">
        <ele>1020.58</ele>
        <time>2013-01-13T14:31:10Z</time>
      </trkpt>
      <trkpt lat="44.11081" lon="6.19633">
        <ele>1019.13</ele>
        <time>2013-01-13T14:31:17Z</time>
      </trkpt>
      <trkpt lat="44.11078" lon="6.19641">
        <ele>1018.17</ele>
        <time>2013-01-13T14:31:24Z</time>
      </trkpt>
      <trkpt lat="44.11076" lon="6.19658">
        <ele>1015.77</ele>
        <time>2013-01-13T14:31:39Z</time>
      </trkpt>
      <trkpt lat="44.11078" lon="6.19669">
        <ele>1013.85</ele>
        <time>2013-01-13T14:31:51Z</time>
      </trkpt>
      <trkpt lat="44.11081" lon="6.19688">
        <ele>1011.93</ele>
        <time>2013-01-13T14:32:06Z</time>
      </trkpt>
      <trkpt lat="44.11083" lon="6.19702">
        <ele>1010</ele>
        <time>2013-01-13T14:32:19Z</time>
      </trkpt>
      <trkpt lat="44.11084" lon="6.19721">
        <ele>1008.56</ele>
        <time>2013-01-13T14:32:34Z</time>
      </trkpt>
      <trkpt lat="44.11084" lon="6.19722">
        <ele>1009.04</ele>
        <time>2013-01-13T14:32:35Z</time>
      </trkpt>
      <trkpt lat="44.11084" lon="6.19732">
        <ele>1008.08</ele>
        <time>2013-01-13T14:32:42Z</time>
      </trkpt>
      <trkpt lat="44.11085" lon="6.19751">
        <ele>1006.64</ele>
        <time>2013-01-13T14:32:57Z</time>
      </trkpt>
      <trkpt lat="44.11086" lon="6.19753">
        <ele>1007.6</ele>
        <time>2013-01-13T14:32:58Z</time>
      </trkpt>
      <trkpt lat="44.11086" lon="6.19772">
        <ele>1006.16</ele>
        <time>2013-01-13T14:33:13Z</time>
      </trkpt>
      <trkpt lat="44.11078" lon="6.19787">
        <ele>1004.23</ele>
        <time>2013-01-13T14:33:27Z</time>
      </trkpt>
      <trkpt lat="44.11067" lon="6.19798">
        <ele>1003.27</ele>
        <time>2013-01-13T14:33:43Z</time>
      </trkpt>
      <trkpt lat="44.1106" lon="6.19812">
        <ele>1002.31</ele>
        <time>2013-01-13T14:33:57Z</time>
      </trkpt>
      <trkpt lat="44.11059" lon="6.19813">
        <ele>1002.79</ele>
        <time>2013-01-13T14:33:58Z</time>
      </trkpt>
      <trkpt lat="44.11053" lon="6.19821">
        <ele>1001.83</ele>
        <time>2013-01-13T14:34:14Z</time>
      </trkpt>
      <trkpt lat="44.11052" lon="6.19822">
        <ele>1001.35</ele>
        <time>2013-01-13T14:34:19Z</time>
      </trkpt>
      <trkpt lat="44.11049" lon="6.1983">
        <ele>1001.83</ele>
        <time>2013-01-13T14:34:25Z</time>
      </trkpt>
      <trkpt lat="44.11037" lon="6.19846">
        <ele>1002.31</ele>
        <time>2013-01-13T14:34:40Z</time>
      </trkpt>
      <trkpt lat="44.11035" lon="6.19851">
        <ele>1002.31</ele>
        <time>2013-01-13T14:34:44Z</time>
      </trkpt>
      <trkpt lat="44.11033" lon="6.19855">
        <ele>1002.31</ele>
        <time>2013-01-13T14:34:47Z</time>
      </trkpt>
      <trkpt lat="44.11031" lon="6.19855">
        <ele>1002.79</ele>
        <time>2013-01-13T14:34:49Z</time>
      </trkpt>
      <trkpt lat="44.11023" lon="6.19868">
        <ele>1002.31</ele>
        <time>2013-01-13T14:35:02Z</time>
      </trkpt>
      <trkpt lat="44.1101" lon="6.19876">
        <ele>1001.35</ele>
        <time>2013-01-13T14:35:18Z</time>
      </trkpt>
      <trkpt lat="44.1101" lon="6.19876">
        <ele>1000.87</ele>
        <time>2013-01-13T14:35:19Z</time>
      </trkpt>
      <trkpt lat="44.10999" lon="6.19871">
        <ele>998.47</ele>
        <time>2013-01-13T14:35:33Z</time>
      </trkpt>
      <trkpt lat="44.10993" lon="6.19867">
        <ele>996.06</ele>
        <time>2013-01-13T14:35:45Z</time>
      </trkpt>
      <trkpt lat="44.10981" lon="6.19869">
        <ele>993.18</ele>
        <time>2013-01-13T14:36:01Z</time>
      </trkpt>
      <trkpt lat="44.1097" lon="6.1987">
        <ele>990.3</ele>
        <time>2013-01-13T14:36:17Z</time>
      </trkpt>
      <trkpt lat="44.10962" lon="6.1987">
        <ele>987.89</ele>
        <time>2013-01-13T14:36:30Z</time>
      </trkpt>
      <trkpt lat="44.10956" lon="6.19876">
        <ele>986.93</ele>
        <time>2013-01-13T14:36:40Z</time>
      </trkpt>
      <trkpt lat="44.10955" lon="6.19879">
        <ele>986.45</ele>
        <time>2013-01-13T14:36:44Z</time>
      </trkpt>
      <trkpt lat="44.10954" lon="6.19891">
        <ele>985.01</ele>
        <time>2013-01-13T14:36:55Z</time>
      </trkpt>
      <trkpt lat="44.10951" lon="6.19906">
        <ele>982.12</ele>
        <time>2013-01-13T14:37:10Z</time>
      </trkpt>
      <trkpt lat="44.1095" lon="6.19908">
        <ele>981.64</ele>
        <time>2013-01-13T14:37:12Z</time>
      </trkpt>
      <trkpt lat="44.10944" lon="6.19909">
        <ele>980.2</ele>
        <time>2013-01-13T14:37:19Z</time>
      </trkpt>
      <trkpt lat="44.10933" lon="6.1991">
        <ele>977.8</ele>
        <time>2013-01-13T14:37:35Z</time>
      </trkpt>
      <trkpt lat="44.10924" lon="6.19916">
        <ele>975.39</ele>
        <time>2013-01-13T14:37:49Z</time>
      </trkpt>
      <trkpt lat="44.10912" lon="6.19922">
        <ele>972.51</ele>
        <time>2013-01-13T14:38:06Z</time>
      </trkpt>
      <trkpt lat="44.10901" lon="6.19926">
        <ele>971.07</ele>
        <time>2013-01-13T14:38:19Z</time>
      </trkpt>
      <trkpt lat="44.10893" lon="6.1994">
        <ele>968.67</ele>
        <time>2013-01-13T14:38:34Z</time>
      </trkpt>
      <trkpt lat="44.10885" lon="6.1994">
        <ele>967.7</ele>
        <time>2013-01-13T14:38:49Z</time>
      </trkpt>
      <trkpt lat="44.10881" lon="6.19947">
        <ele>966.74</ele>
        <time>2013-01-13T14:39:02Z</time>
      </trkpt>
      <trkpt lat="44.10878" lon="6.19954">
        <ele>966.26</ele>
        <time>2013-01-13T14:39:16Z</time>
      </trkpt>
      <trkpt lat="44.1087" lon="6.19965">
        <ele>964.34</ele>
        <time>2013-01-13T14:39:31Z</time>
      </trkpt>
      <trkpt lat="44.1086" lon="6.19979">
        <ele>962.9</ele>
        <time>2013-01-13T14:39:48Z</time>
      </trkpt>
      <trkpt lat="44.10859" lon="6.19985">
        <ele>961.46</ele>
        <time>2013-01-13T14:39:54Z</time>
      </trkpt>
      <trkpt lat="44.10853" lon="6.20002">
        <ele>960.01</ele>
        <time>2013-01-13T14:40:09Z</time>
      </trkpt>
      <trkpt lat="44.10845" lon="6.20018">
        <ele>959.53</ele>
        <time>2013-01-13T14:40:23Z</time>
      </trkpt>
      <trkpt lat="44.10834" lon="6.20029">
        <ele>960.49</ele>
        <time>2013-01-13T14:40:40Z</time>
      </trkpt>
      <trkpt lat="44.10828" lon="6.20038">
        <ele>961.94</ele>
        <time>2013-01-13T14:40:56Z</time>
      </trkpt>
      <trkpt lat="44.1082" lon="6.20045">
        <ele>963.86</ele>
        <time>2013-01-13T14:41:11Z</time>
      </trkpt>
      <trkpt lat="44.1081" lon="6.20052">
        <ele>964.82</ele>
        <time>2013-01-13T14:41:26Z</time>
      </trkpt>
      <trkpt lat="44.10805" lon="6.20058">
        <ele>965.3</ele>
        <time>2013-01-13T14:41:40Z</time>
      </trkpt>
      <trkpt lat="44.10804" lon="6.20062">
        <ele>965.78</ele>
        <time>2013-01-13T14:41:44Z</time>
      </trkpt>
      <trkpt lat="44.10804" lon="6.20073">
        <ele>965.78</ele>
        <time>2013-01-13T14:41:53Z</time>
      </trkpt>
      <trkpt lat="44.10799" lon="6.20092">
        <ele>964.82</ele>
        <time>2013-01-13T14:42:09Z</time>
      </trkpt>
      <trkpt lat="44.10799" lon="6.20094">
        <ele>964.82</ele>
        <time>2013-01-13T14:42:10Z</time>
      </trkpt>
      <trkpt lat="44.10794" lon="6.20111">
        <ele>963.38</ele>
        <time>2013-01-13T14:42:24Z</time>
      </trkpt>
      <trkpt lat="44.10793" lon="6.20115">
        <ele>963.86</ele>
        <time>2013-01-13T14:42:27Z</time>
      </trkpt>
      <trkpt lat="44.10787" lon="6.20132">
        <ele>963.38</ele>
        <time>2013-01-13T14:42:42Z</time>
      </trkpt>
      <trkpt lat="44.1078" lon="6.20149">
        <ele>961.94</ele>
        <time>2013-01-13T14:42:57Z</time>
      </trkpt>
      <trkpt lat="44.10777" lon="6.20154">
        <ele>961.46</ele>
        <time>2013-01-13T14:43:01Z</time>
      </trkpt>
      <trkpt lat="44.10774" lon="6.20158">
        <ele>961.46</ele>
        <time>2013-01-13T14:43:05Z</time>
      </trkpt>
      <trkpt lat="44.10765" lon="6.20177">
        <ele>960.01</ele>
        <time>2013-01-13T14:43:22Z</time>
      </trkpt>
      <trkpt lat="44.10762" lon="6.20185">
        <ele>960.01</ele>
        <time>2013-01-13T14:43:28Z</time>
      </trkpt>
      <trkpt lat="44.10754" lon="6.202">
        <ele>958.09</ele>
        <time>2013-01-13T14:43:43Z</time>
      </trkpt>
      <trkpt lat="44.10749" lon="6.20211">
        <ele>957.13</ele>
        <time>2013-01-13T14:43:53Z</time>
      </trkpt>
      <trkpt lat="44.10742" lon="6.20228">
        <ele>956.65</ele>
        <time>2013-01-13T14:44:07Z</time>
      </trkpt>
      <trkpt lat="44.10741" lon="6.20242">
        <ele>956.65</ele>
        <time>2013-01-13T14:44:18Z</time>
      </trkpt>
      <trkpt lat="44.10739" lon="6.20262">
        <ele>955.21</ele>
        <time>2013-01-13T14:44:33Z</time>
      </trkpt>
      <trkpt lat="44.10738" lon="6.20272">
        <ele>954.73</ele>
        <time>2013-01-13T14:44:40Z</time>
      </trkpt>
      <trkpt lat="44.10738" lon="6.20283">
        <ele>954.25</ele>
        <time>2013-01-13T14:44:48Z</time>
      </trkpt>
      <trkpt lat="44.10738" lon="6.20303">
        <ele>953.28</ele>
        <time>2013-01-13T14:45:03Z</time>
      </trkpt>
      <trkpt lat="44.10735" lon="6.2032">
        <ele>951.36</ele>
        <time>2013-01-13T14:45:16Z</time>
      </trkpt>
      <trkpt lat="44.10732" lon="6.2033">
        <ele>948.96</ele>
        <time>2013-01-13T14:45:24Z</time>
      </trkpt>
      <trkpt lat="44.10725" lon="6.20346">
        <ele>947.04</ele>
        <time>2013-01-13T14:45:39Z</time>
      </trkpt>
      <trkpt lat="44.10722" lon="6.20353">
        <ele>946.56</ele>
        <time>2013-01-13T14:45:45Z</time>
      </trkpt>
      <trkpt lat="44.10723" lon="6.20375">
        <ele>945.59</ele>
        <time>2013-01-13T14:46:01Z</time>
      </trkpt>
      <trkpt lat="44.10726" lon="6.20395">
        <ele>946.07</ele>
        <time>2013-01-13T14:46:16Z</time>
      </trkpt>
      <trkpt lat="44.10725" lon="6.20399">
        <ele>945.59</ele>
        <time>2013-01-13T14:46:19Z</time>
      </trkpt>
      <trkpt lat="44.10732" lon="6.20419">
        <ele>943.67</ele>
        <time>2013-01-13T14:46:34Z</time>
      </trkpt>
      <trkpt lat="44.10723" lon="6.20434">
        <ele>943.67</ele>
        <time>2013-01-13T14:46:47Z</time>
      </trkpt>
      <trkpt lat="44.10717" lon="6.2044">
        <ele>942.71</ele>
        <time>2013-01-13T14:46:54Z</time>
      </trkpt>
      <trkpt lat="44.1071" lon="6.20455">
        <ele>942.71</ele>
        <time>2013-01-13T14:47:07Z</time>
      </trkpt>
      <trkpt lat="44.10707" lon="6.20478">
        <ele>943.19</ele>
        <time>2013-01-13T14:47:25Z</time>
      </trkpt>
      <trkpt lat="44.10704" lon="6.20496">
        <ele>944.15</ele>
        <time>2013-01-13T14:47:40Z</time>
      </trkpt>
      <trkpt lat="44.10702" lon="6.20512">
        <ele>942.71</ele>
        <time>2013-01-13T14:47:54Z</time>
      </trkpt>
      <trkpt lat="44.107" lon="6.20526">
        <ele>942.23</ele>
        <time>2013-01-13T14:48:06Z</time>
      </trkpt>
      <trkpt lat="44.10699" lon="6.20535">
        <ele>942.23</ele>
        <time>2013-01-13T14:48:21Z</time>
      </trkpt>
      <trkpt lat="44.10695" lon="6.20549">
        <ele>941.27</ele>
        <time>2013-01-13T14:48:37Z</time>
      </trkpt>
      <trkpt lat="44.10687" lon="6.20562">
        <ele>939.83</ele>
        <time>2013-01-13T14:48:50Z</time>
      </trkpt>
      <trkpt lat="44.10679" lon="6.20575">
        <ele>938.38</ele>
        <time>2013-01-13T14:49:03Z</time>
      </trkpt>
      <trkpt lat="44.10672" lon="6.20594">
        <ele>936.94</ele>
        <time>2013-01-13T14:49:19Z</time>
      </trkpt>
      <trkpt lat="44.1067" lon="6.20601">
        <ele>936.46</ele>
        <time>2013-01-13T14:49:25Z</time>
      </trkpt>
      <trkpt lat="44.10667" lon="6.20608">
        <ele>935.98</ele>
        <time>2013-01-13T14:49:31Z</time>
      </trkpt>
      <trkpt lat="44.10663" lon="6.20617">
        <ele>937.42</ele>
        <time>2013-01-13T14:49:46Z</time>
      </trkpt>
      <trkpt lat="44.10663" lon="6.20616">
        <ele>937.42</ele>
        <time>2013-01-13T14:50:05Z</time>
      </trkpt>
      <trkpt lat="44.10663" lon="6.20615">
        <ele>936.46</ele>
        <time>2013-01-13T14:50:27Z</time>
      </trkpt>
      <trkpt lat="44.10663" lon="6.20614">
        <ele>936.94</ele>
        <time>2013-01-13T14:51:08Z</time>
      </trkpt>
      <trkpt lat="44.10662" lon="6.20614">
        <ele>936.46</ele>
        <time>2013-01-13T14:51:46Z</time>
      </trkpt>
      <trkpt lat="44.10662" lon="6.20614">
        <ele>936.94</ele>
        <time>2013-01-13T14:52:23Z</time>
      </trkpt>
      <trkpt lat="44.10663" lon="6.20613">
        <ele>937.42</ele>
        <time>2013-01-13T14:53:04Z</time>
      </trkpt>
      <trkpt lat="44.10663" lon="6.20613">
        <ele>937.42</ele>
        <time>2013-01-13T14:53:43Z</time>
      </trkpt>
      <trkpt lat="44.10663" lon="6.20613">
        <ele>937.42</ele>
        <time>2013-01-13T14:54:23Z</time>
      </trkpt>
      <trkpt lat="44.10663" lon="6.20613">
        <ele>937.9</ele>
        <time>2013-01-13T14:55:00Z</time>
      </trkpt>
      <trkpt lat="44.10663" lon="6.20613">
        <ele>937.42</ele>
        <time>2013-01-13T14:55:36Z</time>
      </trkpt>
      <trkpt lat="44.10663" lon="6.20612">
        <ele>937.9</ele>
        <time>2013-01-13T14:56:14Z</time>
      </trkpt>
      <trkpt lat="44.10663" lon="6.20612">
        <ele>937.9</ele>
        <time>2013-01-13T14:56:52Z</time>
      </trkpt>
      <trkpt lat="44.10663" lon="6.20612">
        <ele>937.9</ele>
        <time>2013-01-13T14:57:31Z</time>
      </trkpt>
      <trkpt lat="44.10663" lon="6.20612">
        <ele>938.38</ele>
        <time>2013-01-13T14:58:10Z</time>
      </trkpt>
      <trkpt lat="44.10663" lon="6.20612">
        <ele>938.86</ele>
        <time>2013-01-13T14:58:48Z</time>
      </trkpt>
      <trkpt lat="44.10663" lon="6.20612">
        <ele>938.38</ele>
        <time>2013-01-13T14:59:29Z</time>
      </trkpt>
      <trkpt lat="44.10663" lon="6.20611">
        <ele>938.86</ele>
        <time>2013-01-13T15:00:03Z</time>
      </trkpt>
      <trkpt lat="44.10663" lon="6.20611">
        <ele>939.35</ele>
        <time>2013-01-13T15:00:26Z</time>
      </trkpt>
      <trkpt lat="44.10662" lon="6.20613">
        <ele>939.35</ele>
        <time>2013-01-13T15:00:32Z</time>
      </trkpt>
      <trkpt lat="44.1066" lon="6.20618">
        <ele>939.35</ele>
        <time>2013-01-13T15:00:37Z</time>
      </trkpt>
      <trkpt lat="44.10658" lon="6.20623">
        <ele>939.35</ele>
        <time>2013-01-13T15:00:51Z</time>
      </trkpt>
      <trkpt lat="44.10658" lon="6.20623">
        <ele>939.83</ele>
        <time>2013-01-13T15:01:06Z</time>
      </trkpt>
      <trkpt lat="44.10655" lon="6.20633">
        <ele>939.83</ele>
        <time>2013-01-13T15:01:19Z</time>
      </trkpt>
      <trkpt lat="44.10656" lon="6.20632">
        <ele>939.35</ele>
        <time>2013-01-13T15:01:46Z</time>
      </trkpt>
      <trkpt lat="44.10659" lon="6.20632">
        <ele>939.83</ele>
        <time>2013-01-13T15:01:59Z</time>
      </trkpt>
      <trkpt lat="44.10661" lon="6.20627">
        <ele>939.83</ele>
        <time>2013-01-13T15:02:12Z</time>
      </trkpt>
      <trkpt lat="44.10664" lon="6.20612">
        <ele>939.35</ele>
        <time>2013-01-13T15:02:27Z</time>
      </trkpt>
      <trkpt lat="44.10666" lon="6.20605">
        <ele>938.38</ele>
        <time>2013-01-13T15:02:38Z</time>
      </trkpt>
      <trkpt lat="44.10666" lon="6.20595">
        <ele>937.42</ele>
        <time>2013-01-13T15:02:50Z</time>
      </trkpt>
      <trkpt lat="44.10664" lon="6.20584">
        <ele>935.02</ele>
        <time>2013-01-13T15:03:04Z</time>
      </trkpt>
      <trkpt lat="44.10659" lon="6.20571">
        <ele>932.62</ele>
        <time>2013-01-13T15:03:17Z</time>
      </trkpt>
      <trkpt lat="44.10655" lon="6.20563">
        <ele>930.21</ele>
        <time>2013-01-13T15:03:29Z</time>
      </trkpt>
      <trkpt lat="44.10649" lon="6.20564">
        <ele>928.29</ele>
        <time>2013-01-13T15:03:41Z</time>
      </trkpt>
      <trkpt lat="44.1064" lon="6.20564">
        <ele>925.89</ele>
        <time>2013-01-13T15:03:54Z</time>
      </trkpt>
      <trkpt lat="44.10634" lon="6.20567">
        <ele>923.48</ele>
        <time>2013-01-13T15:04:07Z</time>
      </trkpt>
      <trkpt lat="44.10627" lon="6.20566">
        <ele>921.56</ele>
        <time>2013-01-13T15:04:19Z</time>
      </trkpt>
      <trkpt lat="44.10625" lon="6.20567">
        <ele>921.08</ele>
        <time>2013-01-13T15:04:28Z</time>
      </trkpt>
      <trkpt lat="44.10618" lon="6.20565">
        <ele>919.16</ele>
        <time>2013-01-13T15:04:38Z</time>
      </trkpt>
      <trkpt lat="44.10614" lon="6.20565">
        <ele>918.68</ele>
        <time>2013-01-13T15:04:42Z</time>
      </trkpt>
      <trkpt lat="44.10608" lon="6.20569">
        <ele>916.75</ele>
        <time>2013-01-13T15:04:54Z</time>
      </trkpt>
      <trkpt lat="44.10605" lon="6.20573">
        <ele>916.27</ele>
        <time>2013-01-13T15:04:59Z</time>
      </trkpt>
      <trkpt lat="44.10594" lon="6.2058">
        <ele>914.83</ele>
        <time>2013-01-13T15:05:13Z</time>
      </trkpt>
      <trkpt lat="44.10585" lon="6.20585">
        <ele>912.43</ele>
        <time>2013-01-13T15:05:28Z</time>
      </trkpt>
      <trkpt lat="44.10583" lon="6.20585">
        <ele>911.47</ele>
        <time>2013-01-13T15:05:39Z</time>
      </trkpt>
      <trkpt lat="44.10583" lon="6.20586">
        <ele>911.95</ele>
        <time>2013-01-13T15:05:52Z</time>
      </trkpt>
      <trkpt lat="44.10578" lon="6.20593">
        <ele>911.47</ele>
        <time>2013-01-13T15:05:59Z</time>
      </trkpt>
      <trkpt lat="44.10575" lon="6.20594">
        <ele>911.47</ele>
        <time>2013-01-13T15:06:10Z</time>
      </trkpt>
      <trkpt lat="44.10567" lon="6.206">
        <ele>911.47</ele>
        <time>2013-01-13T15:06:22Z</time>
      </trkpt>
      <trkpt lat="44.10564" lon="6.20604">
        <ele>911.47</ele>
        <time>2013-01-13T15:06:36Z</time>
      </trkpt>
      <trkpt lat="44.10562" lon="6.20608">
        <ele>911.95</ele>
        <time>2013-01-13T15:06:54Z</time>
      </trkpt>
      <trkpt lat="44.10561" lon="6.20609">
        <ele>911.47</ele>
        <time>2013-01-13T15:07:09Z</time>
      </trkpt>
      <trkpt lat="44.10561" lon="6.20609">
        <ele>911.47</ele>
        <time>2013-01-13T15:07:41Z</time>
      </trkpt>
      <trkpt lat="44.10561" lon="6.20609">
        <ele>911.47</ele>
        <time>2013-01-13T15:07:43Z</time>
      </trkpt>
      <trkpt lat="44.1056" lon="6.20609">
        <ele>911.95</ele>
        <time>2013-01-13T15:08:21Z</time>
      </trkpt>
      <trkpt lat="44.10558" lon="6.20608">
        <ele>912.43</ele>
        <time>2013-01-13T15:08:51Z</time>
      </trkpt>
      <trkpt lat="44.10558" lon="6.20608">
        <ele>912.91</ele>
        <time>2013-01-13T15:09:21Z</time>
      </trkpt>
      <trkpt lat="44.10558" lon="6.20608">
        <ele>912.91</ele>
        <time>2013-01-13T15:09:54Z</time>
      </trkpt>
      <trkpt lat="44.10558" lon="6.20608">
        <ele>913.87</ele>
        <time>2013-01-13T15:10:28Z</time>
      </trkpt>
      <trkpt lat="44.10558" lon="6.20608">
        <ele>913.39</ele>
        <time>2013-01-13T15:11:02Z</time>
      </trkpt>
      <trkpt lat="44.10558" lon="6.20608">
        <ele>914.35</ele>
        <time>2013-01-13T15:11:38Z</time>
      </trkpt>
      <trkpt lat="44.10558" lon="6.20608">
        <ele>914.83</ele>
        <time>2013-01-13T15:12:10Z</time>
      </trkpt>
      <trkpt lat="44.10558" lon="6.20608">
        <ele>914.83</ele>
        <time>2013-01-13T15:12:43Z</time>
      </trkpt>
      <trkpt lat="44.10558" lon="6.20608">
        <ele>914.35</ele>
        <time>2013-01-13T15:13:18Z</time>
      </trkpt>
      <trkpt lat="44.10557" lon="6.20608">
        <ele>914.35</ele>
        <time>2013-01-13T15:13:56Z</time>
      </trkpt>
      <trkpt lat="44.10557" lon="6.20608">
        <ele>914.35</ele>
        <time>2013-01-13T15:14:24Z</time>
      </trkpt>
      <trkpt lat="44.10559" lon="6.20604">
        <ele>914.83</ele>
        <time>2013-01-13T15:14:50Z</time>
      </trkpt>
      <trkpt lat="44.1058" lon="6.20579">
        <ele>915.31</ele>
        <time>2013-01-13T15:15:07Z</time>
      </trkpt>
      <trkpt lat="44.10545" lon="6.20536">
        <ele>912.91</ele>
        <time>2013-01-13T15:15:20Z</time>
      </trkpt>
      <trkpt lat="44.10505" lon="6.20526">
        <ele>911.47</ele>
        <time>2013-01-13T15:15:31Z</time>
      </trkpt>
      <trkpt lat="44.10477" lon="6.20526">
        <ele>908.58</ele>
        <time>2013-01-13T15:15:36Z</time>
      </trkpt>
      <trkpt lat="44.10472" lon="6.20527">
        <ele>908.58</ele>
        <time>2013-01-13T15:15:37Z</time>
      </trkpt>
      <trkpt lat="44.10467" lon="6.20529">
        <ele>907.62</ele>
        <time>2013-01-13T15:15:38Z</time>
      </trkpt>
      <trkpt lat="44.10462" lon="6.20532">
        <ele>908.1</ele>
        <time>2013-01-13T15:15:39Z</time>
      </trkpt>
      <trkpt lat="44.10458" lon="6.20536">
        <ele>907.62</ele>
        <time>2013-01-13T15:15:40Z</time>
      </trkpt>
      <trkpt lat="44.10453" lon="6.20539">
        <ele>907.62</ele>
        <time>2013-01-13T15:15:41Z</time>
      </trkpt>
      <trkpt lat="44.10415" lon="6.2056">
        <ele>904.74</ele>
        <time>2013-01-13T15:15:52Z</time>
      </trkpt>
      <trkpt lat="44.10413" lon="6.20557">
        <ele>904.74</ele>
        <time>2013-01-13T15:15:53Z</time>
      </trkpt>
      <trkpt lat="44.10411" lon="6.20553">
        <ele>903.78</ele>
        <time>2013-01-13T15:15:54Z</time>
      </trkpt>
      <trkpt lat="44.1041" lon="6.20548">
        <ele>903.78</ele>
        <time>2013-01-13T15:15:55Z</time>
      </trkpt>
      <trkpt lat="44.1041" lon="6.20542">
        <ele>903.3</ele>
        <time>2013-01-13T15:15:56Z</time>
      </trkpt>
      <trkpt lat="44.1041" lon="6.20535">
        <ele>903.78</ele>
        <time>2013-01-13T15:15:57Z</time>
      </trkpt>
      <trkpt lat="44.10408" lon="6.20529">
        <ele>902.33</ele>
        <time>2013-01-13T15:15:58Z</time>
      </trkpt>
      <trkpt lat="44.10407" lon="6.20522">
        <ele>901.85</ele>
        <time>2013-01-13T15:15:59Z</time>
      </trkpt>
      <trkpt lat="44.10405" lon="6.20515">
        <ele>901.37</ele>
        <time>2013-01-13T15:16:00Z</time>
      </trkpt>
      <trkpt lat="44.10403" lon="6.2051">
        <ele>900.89</ele>
        <time>2013-01-13T15:16:01Z</time>
      </trkpt>
      <trkpt lat="44.104" lon="6.20504">
        <ele>900.89</ele>
        <time>2013-01-13T15:16:02Z</time>
      </trkpt>
      <trkpt lat="44.10399" lon="6.20498">
        <ele>900.41</ele>
        <time>2013-01-13T15:16:03Z</time>
      </trkpt>
      <trkpt lat="44.10398" lon="6.20491">
        <ele>899.93</ele>
        <time>2013-01-13T15:16:04Z</time>
      </trkpt>
      <trkpt lat="44.10399" lon="6.20452">
        <ele>898.49</ele>
        <time>2013-01-13T15:16:09Z</time>
      </trkpt>
      <trkpt lat="44.10399" lon="6.20443">
        <ele>897.53</ele>
        <time>2013-01-13T15:16:10Z</time>
      </trkpt>
      <trkpt lat="44.10398" lon="6.20434">
        <ele>897.53</ele>
        <time>2013-01-13T15:16:11Z</time>
      </trkpt>
      <trkpt lat="44.10397" lon="6.20426">
        <ele>897.05</ele>
        <time>2013-01-13T15:16:12Z</time>
      </trkpt>
      <trkpt lat="44.10392" lon="6.20388">
        <ele>894.16</ele>
        <time>2013-01-13T15:16:17Z</time>
      </trkpt>
      <trkpt lat="44.10391" lon="6.20383">
        <ele>894.64</ele>
        <time>2013-01-13T15:16:18Z</time>
      </trkpt>
      <trkpt lat="44.10389" lon="6.20379">
        <ele>893.68</ele>
        <time>2013-01-13T15:16:19Z</time>
      </trkpt>
      <trkpt lat="44.10386" lon="6.20376">
        <ele>893.2</ele>
        <time>2013-01-13T15:16:20Z</time>
      </trkpt>
      <trkpt lat="44.10383" lon="6.20377">
        <ele>892.72</ele>
        <time>2013-01-13T15:16:21Z</time>
      </trkpt>
      <trkpt lat="44.1038" lon="6.20381">
        <ele>892.24</ele>
        <time>2013-01-13T15:16:22Z</time>
      </trkpt>
      <trkpt lat="44.10378" lon="6.20386">
        <ele>891.76</ele>
        <time>2013-01-13T15:16:23Z</time>
      </trkpt>
      <trkpt lat="44.10377" lon="6.20393">
        <ele>891.76</ele>
        <time>2013-01-13T15:16:24Z</time>
      </trkpt>
      <trkpt lat="44.10376" lon="6.20401">
        <ele>891.28</ele>
        <time>2013-01-13T15:16:25Z</time>
      </trkpt>
      <trkpt lat="44.10363" lon="6.20458">
        <ele>887.43</ele>
        <time>2013-01-13T15:16:32Z</time>
      </trkpt>
      <trkpt lat="44.10362" lon="6.20467">
        <ele>886.95</ele>
        <time>2013-01-13T15:16:33Z</time>
      </trkpt>
      <trkpt lat="44.10355" lon="6.20493">
        <ele>885.51</ele>
        <time>2013-01-13T15:16:36Z</time>
      </trkpt>
      <trkpt lat="44.1035" lon="6.20509">
        <ele>884.07</ele>
        <time>2013-01-13T15:16:38Z</time>
      </trkpt>
      <trkpt lat="44.10347" lon="6.20516">
        <ele>884.55</ele>
        <time>2013-01-13T15:16:39Z</time>
      </trkpt>
      <trkpt lat="44.10337" lon="6.20535">
        <ele>882.63</ele>
        <time>2013-01-13T15:16:42Z</time>
      </trkpt>
      <trkpt lat="44.10334" lon="6.20542">
        <ele>882.15</ele>
        <time>2013-01-13T15:16:43Z</time>
      </trkpt>
      <trkpt lat="44.10334" lon="6.20549">
        <ele>881.67</ele>
        <time>2013-01-13T15:16:44Z</time>
      </trkpt>
      <trkpt lat="44.10334" lon="6.20557">
        <ele>880.22</ele>
        <time>2013-01-13T15:16:45Z</time>
      </trkpt>
      <trkpt lat="44.10334" lon="6.20565">
        <ele>880.71</ele>
        <time>2013-01-13T15:16:46Z</time>
      </trkpt>
      <trkpt lat="44.10337" lon="6.20573">
        <ele>880.22</ele>
        <time>2013-01-13T15:16:47Z</time>
      </trkpt>
      <trkpt lat="44.1034" lon="6.2058">
        <ele>879.74</ele>
        <time>2013-01-13T15:16:48Z</time>
      </trkpt>
      <trkpt lat="44.10345" lon="6.20588">
        <ele>878.78</ele>
        <time>2013-01-13T15:16:49Z</time>
      </trkpt>
      <trkpt lat="44.10349" lon="6.20596">
        <ele>877.82</ele>
        <time>2013-01-13T15:16:50Z</time>
      </trkpt>
      <trkpt lat="44.10354" lon="6.20605">
        <ele>877.82</ele>
        <time>2013-01-13T15:16:51Z</time>
      </trkpt>
      <trkpt lat="44.10366" lon="6.2063">
        <ele>875.42</ele>
        <time>2013-01-13T15:16:54Z</time>
      </trkpt>
      <trkpt lat="44.10371" lon="6.20637">
        <ele>874.94</ele>
        <time>2013-01-13T15:16:55Z</time>
      </trkpt>
      <trkpt lat="44.10383" lon="6.20657">
        <ele>873.01</ele>
        <time>2013-01-13T15:16:58Z</time>
      </trkpt>
      <trkpt lat="44.10386" lon="6.20665">
        <ele>872.53</ele>
        <time>2013-01-13T15:16:59Z</time>
      </trkpt>
      <trkpt lat="44.10387" lon="6.20675">
        <ele>872.05</ele>
        <time>2013-01-13T15:17:00Z</time>
      </trkpt>
      <trkpt lat="44.10387" lon="6.20685">
        <ele>872.05</ele>
        <time>2013-01-13T15:17:01Z</time>
      </trkpt>
      <trkpt lat="44.10387" lon="6.20695">
        <ele>871.09</ele>
        <time>2013-01-13T15:17:02Z</time>
      </trkpt>
      <trkpt lat="44.10387" lon="6.20704">
        <ele>870.61</ele>
        <time>2013-01-13T15:17:03Z</time>
      </trkpt>
      <trkpt lat="44.10388" lon="6.20714">
        <ele>870.13</ele>
        <time>2013-01-13T15:17:04Z</time>
      </trkpt>
      <trkpt lat="44.1039" lon="6.20723">
        <ele>869.65</ele>
        <time>2013-01-13T15:17:05Z</time>
      </trkpt>
      <trkpt lat="44.10393" lon="6.20732">
        <ele>869.17</ele>
        <time>2013-01-13T15:17:06Z</time>
      </trkpt>
      <trkpt lat="44.104" lon="6.20768">
        <ele>867.25</ele>
        <time>2013-01-13T15:17:10Z</time>
      </trkpt>
      <trkpt lat="44.10403" lon="6.20821">
        <ele>863.88</ele>
        <time>2013-01-13T15:17:15Z</time>
      </trkpt>
      <trkpt lat="44.10404" lon="6.2085">
        <ele>862.44</ele>
        <time>2013-01-13T15:17:18Z</time>
      </trkpt>
      <trkpt lat="44.10403" lon="6.20868">
        <ele>861.96</ele>
        <time>2013-01-13T15:17:20Z</time>
      </trkpt>
      <trkpt lat="44.10402" lon="6.20877">
        <ele>861</ele>
        <time>2013-01-13T15:17:21Z</time>
      </trkpt>
      <trkpt lat="44.104" lon="6.20886">
        <ele>860.52</ele>
        <time>2013-01-13T15:17:22Z</time>
      </trkpt>
      <trkpt lat="44.10394" lon="6.20911">
        <ele>858.59</ele>
        <time>2013-01-13T15:17:25Z</time>
      </trkpt>
      <trkpt lat="44.10394" lon="6.20919">
        <ele>858.11</ele>
        <time>2013-01-13T15:17:26Z</time>
      </trkpt>
      <trkpt lat="44.10396" lon="6.20926">
        <ele>857.63</ele>
        <time>2013-01-13T15:17:27Z</time>
      </trkpt>
      <trkpt lat="44.10399" lon="6.20932">
        <ele>857.63</ele>
        <time>2013-01-13T15:17:28Z</time>
      </trkpt>
      <trkpt lat="44.10402" lon="6.20937">
        <ele>857.15</ele>
        <time>2013-01-13T15:17:29Z</time>
      </trkpt>
      <trkpt lat="44.10406" lon="6.20941">
        <ele>857.63</ele>
        <time>2013-01-13T15:17:30Z</time>
      </trkpt>
      <trkpt lat="44.1041" lon="6.20944">
        <ele>856.19</ele>
        <time>2013-01-13T15:17:31Z</time>
      </trkpt>
      <trkpt lat="44.10413" lon="6.20948">
        <ele>855.71</ele>
        <time>2013-01-13T15:17:32Z</time>
      </trkpt>
      <trkpt lat="44.10415" lon="6.20953">
        <ele>855.71</ele>
        <time>2013-01-13T15:17:33Z</time>
      </trkpt>
      <trkpt lat="44.10415" lon="6.20957">
        <ele>855.71</ele>
        <time>2013-01-13T15:17:34Z</time>
      </trkpt>
      <trkpt lat="44.10413" lon="6.20961">
        <ele>855.23</ele>
        <time>2013-01-13T15:17:35Z</time>
      </trkpt>
      <trkpt lat="44.10409" lon="6.20963">
        <ele>855.23</ele>
        <time>2013-01-13T15:17:36Z</time>
      </trkpt>
      <trkpt lat="44.10403" lon="6.20962">
        <ele>854.27</ele>
        <time>2013-01-13T15:17:37Z</time>
      </trkpt>
      <trkpt lat="44.10398" lon="6.20958">
        <ele>854.27</ele>
        <time>2013-01-13T15:17:38Z</time>
      </trkpt>
      <trkpt lat="44.10392" lon="6.20953">
        <ele>853.31</ele>
        <time>2013-01-13T15:17:39Z</time>
      </trkpt>
      <trkpt lat="44.10376" lon="6.20939">
        <ele>851.87</ele>
        <time>2013-01-13T15:17:42Z</time>
      </trkpt>
      <trkpt lat="44.10372" lon="6.20933">
        <ele>851.38</ele>
        <time>2013-01-13T15:17:43Z</time>
      </trkpt>
      <trkpt lat="44.10368" lon="6.20926">
        <ele>850.9</ele>
        <time>2013-01-13T15:17:44Z</time>
      </trkpt>
      <trkpt lat="44.10365" lon="6.20916">
        <ele>850.42</ele>
        <time>2013-01-13T15:17:45Z</time>
      </trkpt>
      <trkpt lat="44.10363" lon="6.20906">
        <ele>849.46</ele>
        <time>2013-01-13T15:17:46Z</time>
      </trkpt>
      <trkpt lat="44.10362" lon="6.20895">
        <ele>849.46</ele>
        <time>2013-01-13T15:17:47Z</time>
      </trkpt>
      <trkpt lat="44.1036" lon="6.20841">
        <ele>846.58</ele>
        <time>2013-01-13T15:17:52Z</time>
      </trkpt>
      <trkpt lat="44.1036" lon="6.20831">
        <ele>845.62</ele>
        <time>2013-01-13T15:17:53Z</time>
      </trkpt>
      <trkpt lat="44.10358" lon="6.20821">
        <ele>845.14</ele>
        <time>2013-01-13T15:17:54Z</time>
      </trkpt>
      <trkpt lat="44.10355" lon="6.20812">
        <ele>844.18</ele>
        <time>2013-01-13T15:17:55Z</time>
      </trkpt>
      <trkpt lat="44.10351" lon="6.20803">
        <ele>844.18</ele>
        <time>2013-01-13T15:17:56Z</time>
      </trkpt>
      <trkpt lat="44.10346" lon="6.20795">
        <ele>843.21</ele>
        <time>2013-01-13T15:17:57Z</time>
      </trkpt>
      <trkpt lat="44.10341" lon="6.20787">
        <ele>842.73</ele>
        <time>2013-01-13T15:17:58Z</time>
      </trkpt>
      <trkpt lat="44.10335" lon="6.20779">
        <ele>841.29</ele>
        <time>2013-01-13T15:17:59Z</time>
      </trkpt>
      <trkpt lat="44.10329" lon="6.20771">
        <ele>841.77</ele>
        <time>2013-01-13T15:18:00Z</time>
      </trkpt>
      <trkpt lat="44.10312" lon="6.2075">
        <ele>839.37</ele>
        <time>2013-01-13T15:18:03Z</time>
      </trkpt>
      <trkpt lat="44.10306" lon="6.20745">
        <ele>838.89</ele>
        <time>2013-01-13T15:18:04Z</time>
      </trkpt>
      <trkpt lat="44.103" lon="6.20742">
        <ele>838.41</ele>
        <time>2013-01-13T15:18:05Z</time>
      </trkpt>
      <trkpt lat="44.10295" lon="6.20741">
        <ele>837.93</ele>
        <time>2013-01-13T15:18:06Z</time>
      </trkpt>
      <trkpt lat="44.10289" lon="6.2074">
        <ele>837.45</ele>
        <time>2013-01-13T15:18:07Z</time>
      </trkpt>
      <trkpt lat="44.10282" lon="6.2074">
        <ele>836.96</ele>
        <time>2013-01-13T15:18:08Z</time>
      </trkpt>
      <trkpt lat="44.10238" lon="6.2074">
        <ele>834.08</ele>
        <time>2013-01-13T15:18:14Z</time>
      </trkpt>
      <trkpt lat="44.10217" lon="6.20739">
        <ele>832.64</ele>
        <time>2013-01-13T15:18:17Z</time>
      </trkpt>
      <trkpt lat="44.10201" lon="6.20735">
        <ele>831.68</ele>
        <time>2013-01-13T15:18:19Z</time>
      </trkpt>
      <trkpt lat="44.10193" lon="6.2073">
        <ele>831.2</ele>
        <time>2013-01-13T15:18:20Z</time>
      </trkpt>
      <trkpt lat="44.10184" lon="6.20724">
        <ele>831.2</ele>
        <time>2013-01-13T15:18:21Z</time>
      </trkpt>
      <trkpt lat="44.10176" lon="6.20716">
        <ele>831.2</ele>
        <time>2013-01-13T15:18:22Z</time>
      </trkpt>
      <trkpt lat="44.10167" lon="6.20708">
        <ele>830.24</ele>
        <time>2013-01-13T15:18:23Z</time>
      </trkpt>
      <trkpt lat="44.10132" lon="6.20664">
        <ele>827.83</ele>
        <time>2013-01-13T15:18:28Z</time>
      </trkpt>
      <trkpt lat="44.1012" lon="6.20646">
        <ele>826.87</ele>
        <time>2013-01-13T15:18:30Z</time>
      </trkpt>
      <trkpt lat="44.10116" lon="6.20637">
        <ele>826.39</ele>
        <time>2013-01-13T15:18:31Z</time>
      </trkpt>
      <trkpt lat="44.10112" lon="6.20627">
        <ele>826.39</ele>
        <time>2013-01-13T15:18:32Z</time>
      </trkpt>
      <trkpt lat="44.1008" lon="6.20566">
        <ele>822.55</ele>
        <time>2013-01-13T15:18:39Z</time>
      </trkpt>
      <trkpt lat="44.10075" lon="6.20557">
        <ele>822.06</ele>
        <time>2013-01-13T15:18:40Z</time>
      </trkpt>
      <trkpt lat="44.10065" lon="6.2054">
        <ele>821.58</ele>
        <time>2013-01-13T15:18:42Z</time>
      </trkpt>
      <trkpt lat="44.10059" lon="6.20531">
        <ele>821.1</ele>
        <time>2013-01-13T15:18:43Z</time>
      </trkpt>
      <trkpt lat="44.10052" lon="6.20524">
        <ele>820.14</ele>
        <time>2013-01-13T15:18:44Z</time>
      </trkpt>
      <trkpt lat="44.10045" lon="6.20517">
        <ele>820.14</ele>
        <time>2013-01-13T15:18:45Z</time>
      </trkpt>
      <trkpt lat="44.10037" lon="6.20511">
        <ele>820.14</ele>
        <time>2013-01-13T15:18:46Z</time>
      </trkpt>
      <trkpt lat="44.10029" lon="6.20506">
        <ele>819.66</ele>
        <time>2013-01-13T15:18:47Z</time>
      </trkpt>
      <trkpt lat="44.10007" lon="6.20489">
        <ele>817.74</ele>
        <time>2013-01-13T15:18:50Z</time>
      </trkpt>
      <trkpt lat="44.09984" lon="6.2046">
        <ele>814.37</ele>
        <time>2013-01-13T15:18:54Z</time>
      </trkpt>
      <trkpt lat="44.09979" lon="6.20453">
        <ele>814.37</ele>
        <time>2013-01-13T15:18:55Z</time>
      </trkpt>
      <trkpt lat="44.09968" lon="6.20441">
        <ele>813.89</ele>
        <time>2013-01-13T15:18:57Z</time>
      </trkpt>
      <trkpt lat="44.09961" lon="6.20437">
        <ele>813.89</ele>
        <time>2013-01-13T15:18:58Z</time>
      </trkpt>
      <trkpt lat="44.09954" lon="6.20435">
        <ele>813.41</ele>
        <time>2013-01-13T15:18:59Z</time>
      </trkpt>
      <trkpt lat="44.09947" lon="6.20435">
        <ele>813.41</ele>
        <time>2013-01-13T15:19:00Z</time>
      </trkpt>
      <trkpt lat="44.09939" lon="6.20434">
        <ele>812.93</ele>
        <time>2013-01-13T15:19:01Z</time>
      </trkpt>
      <trkpt lat="44.09924" lon="6.20434">
        <ele>811.49</ele>
        <time>2013-01-13T15:19:03Z</time>
      </trkpt>
      <trkpt lat="44.09917" lon="6.20435">
        <ele>811.97</ele>
        <time>2013-01-13T15:19:04Z</time>
      </trkpt>
      <trkpt lat="44.0991" lon="6.20437">
        <ele>811.01</ele>
        <time>2013-01-13T15:19:05Z</time>
      </trkpt>
      <trkpt lat="44.09903" lon="6.20441">
        <ele>810.05</ele>
        <time>2013-01-13T15:19:06Z</time>
      </trkpt>
      <trkpt lat="44.09896" lon="6.20445">
        <ele>810.05</ele>
        <time>2013-01-13T15:19:07Z</time>
      </trkpt>
      <trkpt lat="44.09877" lon="6.20452">
        <ele>808.61</ele>
        <time>2013-01-13T15:19:10Z</time>
      </trkpt>
      <trkpt lat="44.0987" lon="6.20453">
        <ele>808.61</ele>
        <time>2013-01-13T15:19:11Z</time>
      </trkpt>
      <trkpt lat="44.09864" lon="6.20452">
        <ele>807.64</ele>
        <time>2013-01-13T15:19:12Z</time>
      </trkpt>
      <trkpt lat="44.09857" lon="6.20449">
        <ele>807.64</ele>
        <time>2013-01-13T15:19:13Z</time>
      </trkpt>
      <trkpt lat="44.09851" lon="6.20444">
        <ele>807.16</ele>
        <time>2013-01-13T15:19:14Z</time>
      </trkpt>
      <trkpt lat="44.09845" lon="6.20438">
        <ele>806.2</ele>
        <time>2013-01-13T15:19:15Z</time>
      </trkpt>
      <trkpt lat="44.0984" lon="6.20432">
        <ele>805.72</ele>
        <time>2013-01-13T15:19:16Z</time>
      </trkpt>
      <trkpt lat="44.09834" lon="6.20426">
        <ele>805.72</ele>
        <time>2013-01-13T15:19:17Z</time>
      </trkpt>
      <trkpt lat="44.09825" lon="6.20414">
        <ele>804.76</ele>
        <time>2013-01-13T15:19:19Z</time>
      </trkpt>
      <trkpt lat="44.09821" lon="6.20408">
        <ele>804.76</ele>
        <time>2013-01-13T15:19:20Z</time>
      </trkpt>
      <trkpt lat="44.09818" lon="6.20401">
        <ele>804.28</ele>
        <time>2013-01-13T15:19:21Z</time>
      </trkpt>
      <trkpt lat="44.09817" lon="6.20393">
        <ele>803.32</ele>
        <time>2013-01-13T15:19:22Z</time>
      </trkpt>
      <trkpt lat="44.09817" lon="6.20385">
        <ele>802.84</ele>
        <time>2013-01-13T15:19:23Z</time>
      </trkpt>
      <trkpt lat="44.09819" lon="6.20377">
        <ele>802.84</ele>
        <time>2013-01-13T15:19:24Z</time>
      </trkpt>
      <trkpt lat="44.09821" lon="6.20368">
        <ele>801.88</ele>
        <time>2013-01-13T15:19:25Z</time>
      </trkpt>
      <trkpt lat="44.09824" lon="6.20359">
        <ele>801.88</ele>
        <time>2013-01-13T15:19:26Z</time>
      </trkpt>
      <trkpt lat="44.09834" lon="6.20316">
        <ele>798.99</ele>
        <time>2013-01-13T15:19:32Z</time>
      </trkpt>
      <trkpt lat="44.09834" lon="6.20303">
        <ele>798.99</ele>
        <time>2013-01-13T15:19:34Z</time>
      </trkpt>
      <trkpt lat="44.09834" lon="6.20297">
        <ele>798.51</ele>
        <time>2013-01-13T15:19:35Z</time>
      </trkpt>
      <trkpt lat="44.09832" lon="6.20292">
        <ele>798.51</ele>
        <time>2013-01-13T15:19:36Z</time>
      </trkpt>
      <trkpt lat="44.0983" lon="6.20286">
        <ele>798.03</ele>
        <time>2013-01-13T15:19:37Z</time>
      </trkpt>
      <trkpt lat="44.09826" lon="6.20283">
        <ele>797.55</ele>
        <time>2013-01-13T15:19:38Z</time>
      </trkpt>
      <trkpt lat="44.09821" lon="6.20282">
        <ele>796.59</ele>
        <time>2013-01-13T15:19:39Z</time>
      </trkpt>
      <trkpt lat="44.09816" lon="6.20284">
        <ele>796.11</ele>
        <time>2013-01-13T15:19:40Z</time>
      </trkpt>
      <trkpt lat="44.09811" lon="6.20289">
        <ele>796.11</ele>
        <time>2013-01-13T15:19:41Z</time>
      </trkpt>
      <trkpt lat="44.09807" lon="6.20296">
        <ele>796.11</ele>
        <time>2013-01-13T15:19:42Z</time>
      </trkpt>
      <trkpt lat="44.09803" lon="6.20304">
        <ele>795.63</ele>
        <time>2013-01-13T15:19:43Z</time>
      </trkpt>
      <trkpt lat="44.09798" lon="6.20313">
        <ele>795.15</ele>
        <time>2013-01-13T15:19:44Z</time>
      </trkpt>
      <trkpt lat="44.09782" lon="6.20351">
        <ele>792.74</ele>
        <time>2013-01-13T15:19:48Z</time>
      </trkpt>
      <trkpt lat="44.09777" lon="6.20358">
        <ele>792.26</ele>
        <time>2013-01-13T15:19:49Z</time>
      </trkpt>
      <trkpt lat="44.09771" lon="6.20362">
        <ele>792.26</ele>
        <time>2013-01-13T15:19:50Z</time>
      </trkpt>
      <trkpt lat="44.09765" lon="6.20365">
        <ele>791.3</ele>
        <time>2013-01-13T15:19:51Z</time>
      </trkpt>
      <trkpt lat="44.09759" lon="6.20369">
        <ele>791.3</ele>
        <time>2013-01-13T15:19:52Z</time>
      </trkpt>
      <trkpt lat="44.09754" lon="6.20373">
        <ele>790.34</ele>
        <time>2013-01-13T15:19:53Z</time>
      </trkpt>
      <trkpt lat="44.0975" lon="6.20378">
        <ele>789.86</ele>
        <time>2013-01-13T15:19:54Z</time>
      </trkpt>
      <trkpt lat="44.09747" lon="6.20386">
        <ele>789.86</ele>
        <time>2013-01-13T15:19:55Z</time>
      </trkpt>
      <trkpt lat="44.09745" lon="6.20395">
        <ele>788.9</ele>
        <time>2013-01-13T15:19:56Z</time>
      </trkpt>
      <trkpt lat="44.09745" lon="6.20405">
        <ele>788.9</ele>
        <time>2013-01-13T15:19:57Z</time>
      </trkpt>
      <trkpt lat="44.09748" lon="6.20416">
        <ele>787.94</ele>
        <time>2013-01-13T15:19:58Z</time>
      </trkpt>
      <trkpt lat="44.09751" lon="6.20428">
        <ele>787.94</ele>
        <time>2013-01-13T15:19:59Z</time>
      </trkpt>
      <trkpt lat="44.09755" lon="6.20439">
        <ele>787.46</ele>
        <time>2013-01-13T15:20:00Z</time>
      </trkpt>
      <trkpt lat="44.0976" lon="6.20451">
        <ele>787.46</ele>
        <time>2013-01-13T15:20:01Z</time>
      </trkpt>
      <trkpt lat="44.09766" lon="6.20462">
        <ele>786.5</ele>
        <time>2013-01-13T15:20:02Z</time>
      </trkpt>
      <trkpt lat="44.09773" lon="6.20472">
        <ele>785.53</ele>
        <time>2013-01-13T15:20:03Z</time>
      </trkpt>
      <trkpt lat="44.09795" lon="6.20504">
        <ele>783.61</ele>
        <time>2013-01-13T15:20:06Z</time>
      </trkpt>
      <trkpt lat="44.09822" lon="6.20542">
        <ele>780.73</ele>
        <time>2013-01-13T15:20:10Z</time>
      </trkpt>
      <trkpt lat="44.09844" lon="6.20578">
        <ele>777.84</ele>
        <time>2013-01-13T15:20:14Z</time>
      </trkpt>
      <trkpt lat="44.09849" lon="6.20587">
        <ele>777.36</ele>
        <time>2013-01-13T15:20:15Z</time>
      </trkpt>
      <trkpt lat="44.09853" lon="6.20596">
        <ele>776.88</ele>
        <time>2013-01-13T15:20:16Z</time>
      </trkpt>
      <trkpt lat="44.09858" lon="6.20606">
        <ele>776.4</ele>
        <time>2013-01-13T15:20:17Z</time>
      </trkpt>
      <trkpt lat="44.09861" lon="6.20616">
        <ele>776.4</ele>
        <time>2013-01-13T15:20:18Z</time>
      </trkpt>
      <trkpt lat="44.09867" lon="6.20637">
        <ele>774.48</ele>
        <time>2013-01-13T15:20:20Z</time>
      </trkpt>
      <trkpt lat="44.09868" lon="6.20648">
        <ele>773.52</ele>
        <time>2013-01-13T15:20:21Z</time>
      </trkpt>
      <trkpt lat="44.09869" lon="6.20659">
        <ele>773.52</ele>
        <time>2013-01-13T15:20:22Z</time>
      </trkpt>
      <trkpt lat="44.09868" lon="6.2067">
        <ele>773.04</ele>
        <time>2013-01-13T15:20:23Z</time>
      </trkpt>
      <trkpt lat="44.09865" lon="6.2068">
        <ele>772.56</ele>
        <time>2013-01-13T15:20:24Z</time>
      </trkpt>
      <trkpt lat="44.09861" lon="6.20689">
        <ele>772.08</ele>
        <time>2013-01-13T15:20:25Z</time>
      </trkpt>
      <trkpt lat="44.09856" lon="6.20696">
        <ele>771.6</ele>
        <time>2013-01-13T15:20:26Z</time>
      </trkpt>
      <trkpt lat="44.09849" lon="6.207">
        <ele>770.63</ele>
        <time>2013-01-13T15:20:27Z</time>
      </trkpt>
      <trkpt lat="44.09841" lon="6.20701">
        <ele>770.15</ele>
        <time>2013-01-13T15:20:28Z</time>
      </trkpt>
      <trkpt lat="44.09833" lon="6.20701">
        <ele>769.67</ele>
        <time>2013-01-13T15:20:29Z</time>
      </trkpt>
      <trkpt lat="44.09825" lon="6.20701">
        <ele>769.19</ele>
        <time>2013-01-13T15:20:30Z</time>
      </trkpt>
      <trkpt lat="44.09818" lon="6.20701">
        <ele>768.71</ele>
        <time>2013-01-13T15:20:31Z</time>
      </trkpt>
      <trkpt lat="44.0981" lon="6.20703">
        <ele>768.23</ele>
        <time>2013-01-13T15:20:32Z</time>
      </trkpt>
      <trkpt lat="44.09804" lon="6.20708">
        <ele>767.27</ele>
        <time>2013-01-13T15:20:33Z</time>
      </trkpt>
      <trkpt lat="44.09798" lon="6.20715">
        <ele>767.27</ele>
        <time>2013-01-13T15:20:34Z</time>
      </trkpt>
      <trkpt lat="44.09794" lon="6.20723">
        <ele>766.79</ele>
        <time>2013-01-13T15:20:35Z</time>
      </trkpt>
      <trkpt lat="44.0979" lon="6.20731">
        <ele>766.31</ele>
        <time>2013-01-13T15:20:36Z</time>
      </trkpt>
      <trkpt lat="44.09762" lon="6.20775">
        <ele>763.42</ele>
        <time>2013-01-13T15:20:42Z</time>
      </trkpt>
      <trkpt lat="44.0973" lon="6.20814">
        <ele>760.54</ele>
        <time>2013-01-13T15:20:48Z</time>
      </trkpt>
      <trkpt lat="44.09726" lon="6.20821">
        <ele>759.58</ele>
        <time>2013-01-13T15:20:49Z</time>
      </trkpt>
      <trkpt lat="44.09723" lon="6.20829">
        <ele>759.58</ele>
        <time>2013-01-13T15:20:50Z</time>
      </trkpt>
      <trkpt lat="44.09721" lon="6.20838">
        <ele>758.62</ele>
        <time>2013-01-13T15:20:51Z</time>
      </trkpt>
      <trkpt lat="44.0972" lon="6.20847">
        <ele>758.62</ele>
        <time>2013-01-13T15:20:52Z</time>
      </trkpt>
      <trkpt lat="44.09719" lon="6.20856">
        <ele>758.14</ele>
        <time>2013-01-13T15:20:53Z</time>
      </trkpt>
      <trkpt lat="44.09719" lon="6.20864">
        <ele>757.66</ele>
        <time>2013-01-13T15:20:54Z</time>
      </trkpt>
      <trkpt lat="44.0972" lon="6.20872">
        <ele>757.66</ele>
        <time>2013-01-13T15:20:55Z</time>
      </trkpt>
      <trkpt lat="44.09722" lon="6.20879">
        <ele>757.18</ele>
        <time>2013-01-13T15:20:56Z</time>
      </trkpt>
      <trkpt lat="44.09725" lon="6.20884">
        <ele>757.18</ele>
        <time>2013-01-13T15:20:57Z</time>
      </trkpt>
      <trkpt lat="44.0973" lon="6.20886">
        <ele>756.69</ele>
        <time>2013-01-13T15:20:58Z</time>
      </trkpt>
      <trkpt lat="44.09735" lon="6.20886">
        <ele>756.21</ele>
        <time>2013-01-13T15:20:59Z</time>
      </trkpt>
      <trkpt lat="44.0974" lon="6.20884">
        <ele>755.73</ele>
        <time>2013-01-13T15:21:00Z</time>
      </trkpt>
      <trkpt lat="44.09746" lon="6.2088">
        <ele>755.73</ele>
        <time>2013-01-13T15:21:01Z</time>
      </trkpt>
      <trkpt lat="44.09752" lon="6.20876">
        <ele>755.25</ele>
        <time>2013-01-13T15:21:02Z</time>
      </trkpt>
      <trkpt lat="44.09758" lon="6.20873">
        <ele>755.25</ele>
        <time>2013-01-13T15:21:03Z</time>
      </trkpt>
      <trkpt lat="44.09766" lon="6.20871">
        <ele>754.29</ele>
        <time>2013-01-13T15:21:04Z</time>
      </trkpt>
      <trkpt lat="44.09773" lon="6.20871">
        <ele>753.81</ele>
        <time>2013-01-13T15:21:05Z</time>
      </trkpt>
      <trkpt lat="44.0978" lon="6.20873">
        <ele>753.33</ele>
        <time>2013-01-13T15:21:06Z</time>
      </trkpt>
      <trkpt lat="44.09786" lon="6.20877">
        <ele>752.37</ele>
        <time>2013-01-13T15:21:07Z</time>
      </trkpt>
      <trkpt lat="44.09792" lon="6.20882">
        <ele>751.41</ele>
        <time>2013-01-13T15:21:08Z</time>
      </trkpt>
      <trkpt lat="44.09798" lon="6.20888">
        <ele>751.41</ele>
        <time>2013-01-13T15:21:09Z</time>
      </trkpt>
      <trkpt lat="44.09816" lon="6.20904">
        <ele>750.45</ele>
        <time>2013-01-13T15:21:12Z</time>
      </trkpt>
      <trkpt lat="44.09821" lon="6.2091">
        <ele>749.97</ele>
        <time>2013-01-13T15:21:13Z</time>
      </trkpt>
      <trkpt lat="44.09826" lon="6.20918">
        <ele>749.49</ele>
        <time>2013-01-13T15:21:14Z</time>
      </trkpt>
      <trkpt lat="44.09837" lon="6.20934">
        <ele>748.52</ele>
        <time>2013-01-13T15:21:16Z</time>
      </trkpt>
      <trkpt lat="44.0985" lon="6.20949">
        <ele>747.08</ele>
        <time>2013-01-13T15:21:18Z</time>
      </trkpt>
      <trkpt lat="44.09856" lon="6.20958">
        <ele>747.08</ele>
        <time>2013-01-13T15:21:19Z</time>
      </trkpt>
      <trkpt lat="44.09861" lon="6.20968">
        <ele>746.6</ele>
        <time>2013-01-13T15:21:20Z</time>
      </trkpt>
      <trkpt lat="44.09871" lon="6.20988">
        <ele>744.68</ele>
        <time>2013-01-13T15:21:22Z</time>
      </trkpt>
      <trkpt lat="44.09876" lon="6.20996">
        <ele>744.2</ele>
        <time>2013-01-13T15:21:23Z</time>
      </trkpt>
      <trkpt lat="44.0989" lon="6.2101">
        <ele>743.24</ele>
        <time>2013-01-13T15:21:25Z</time>
      </trkpt>
      <trkpt lat="44.09896" lon="6.21018">
        <ele>741.79</ele>
        <time>2013-01-13T15:21:26Z</time>
      </trkpt>
      <trkpt lat="44.09901" lon="6.21027">
        <ele>742.28</ele>
        <time>2013-01-13T15:21:27Z</time>
      </trkpt>
      <trkpt lat="44.09906" lon="6.21037">
        <ele>741.31</ele>
        <time>2013-01-13T15:21:28Z</time>
      </trkpt>
      <trkpt lat="44.09911" lon="6.21048">
        <ele>740.35</ele>
        <time>2013-01-13T15:21:29Z</time>
      </trkpt>
      <trkpt lat="44.09915" lon="6.21058">
        <ele>740.35</ele>
        <time>2013-01-13T15:21:30Z</time>
      </trkpt>
      <trkpt lat="44.09927" lon="6.21089">
        <ele>737.95</ele>
        <time>2013-01-13T15:21:33Z</time>
      </trkpt>
      <trkpt lat="44.09933" lon="6.21109">
        <ele>736.51</ele>
        <time>2013-01-13T15:21:35Z</time>
      </trkpt>
      <trkpt lat="44.09937" lon="6.21118">
        <ele>736.51</ele>
        <time>2013-01-13T15:21:36Z</time>
      </trkpt>
      <trkpt lat="44.09942" lon="6.21125">
        <ele>736.03</ele>
        <time>2013-01-13T15:21:37Z</time>
      </trkpt>
      <trkpt lat="44.09948" lon="6.21131">
        <ele>735.55</ele>
        <time>2013-01-13T15:21:38Z</time>
      </trkpt>
      <trkpt lat="44.09955" lon="6.21135">
        <ele>735.55</ele>
        <time>2013-01-13T15:21:39Z</time>
      </trkpt>
      <trkpt lat="44.09961" lon="6.21138">
        <ele>734.1</ele>
        <time>2013-01-13T15:21:40Z</time>
      </trkpt>
      <trkpt lat="44.09968" lon="6.21141">
        <ele>734.1</ele>
        <time>2013-01-13T15:21:41Z</time>
      </trkpt>
      <trkpt lat="44.09975" lon="6.21145">
        <ele>733.14</ele>
        <time>2013-01-13T15:21:42Z</time>
      </trkpt>
      <trkpt lat="44.09981" lon="6.2115">
        <ele>732.66</ele>
        <time>2013-01-13T15:21:43Z</time>
      </trkpt>
      <trkpt lat="44.09987" lon="6.21157">
        <ele>731.7</ele>
        <time>2013-01-13T15:21:44Z</time>
      </trkpt>
      <trkpt lat="44.09992" lon="6.21165">
        <ele>730.74</ele>
        <time>2013-01-13T15:21:45Z</time>
      </trkpt>
      <trkpt lat="44.09998" lon="6.21171">
        <ele>731.22</ele>
        <time>2013-01-13T15:21:46Z</time>
      </trkpt>
      <trkpt lat="44.10004" lon="6.21177">
        <ele>730.74</ele>
        <time>2013-01-13T15:21:47Z</time>
      </trkpt>
      <trkpt lat="44.10009" lon="6.21184">
        <ele>729.3</ele>
        <time>2013-01-13T15:21:48Z</time>
      </trkpt>
      <trkpt lat="44.10014" lon="6.21192">
        <ele>729.78</ele>
        <time>2013-01-13T15:21:49Z</time>
      </trkpt>
      <trkpt lat="44.10016" lon="6.212">
        <ele>728.82</ele>
        <time>2013-01-13T15:21:50Z</time>
      </trkpt>
      <trkpt lat="44.10017" lon="6.2121">
        <ele>728.82</ele>
        <time>2013-01-13T15:21:51Z</time>
      </trkpt>
      <trkpt lat="44.10017" lon="6.2122">
        <ele>728.34</ele>
        <time>2013-01-13T15:21:52Z</time>
      </trkpt>
      <trkpt lat="44.10014" lon="6.21228">
        <ele>727.37</ele>
        <time>2013-01-13T15:21:53Z</time>
      </trkpt>
      <trkpt lat="44.1001" lon="6.21234">
        <ele>727.37</ele>
        <time>2013-01-13T15:21:54Z</time>
      </trkpt>
      <trkpt lat="44.10004" lon="6.21239">
        <ele>727.37</ele>
        <time>2013-01-13T15:21:55Z</time>
      </trkpt>
      <trkpt lat="44.09998" lon="6.21241">
        <ele>726.89</ele>
        <time>2013-01-13T15:21:56Z</time>
      </trkpt>
      <trkpt lat="44.09991" lon="6.21242">
        <ele>726.41</ele>
        <time>2013-01-13T15:21:57Z</time>
      </trkpt>
      <trkpt lat="44.09983" lon="6.21242">
        <ele>725.45</ele>
        <time>2013-01-13T15:21:58Z</time>
      </trkpt>
      <trkpt lat="44.09975" lon="6.21242">
        <ele>725.45</ele>
        <time>2013-01-13T15:21:59Z</time>
      </trkpt>
      <trkpt lat="44.09951" lon="6.21247">
        <ele>724.01</ele>
        <time>2013-01-13T15:22:02Z</time>
      </trkpt>
      <trkpt lat="44.0991" lon="6.21266">
        <ele>721.13</ele>
        <time>2013-01-13T15:22:07Z</time>
      </trkpt>
      <trkpt lat="44.09895" lon="6.21272">
        <ele>721.13</ele>
        <time>2013-01-13T15:22:09Z</time>
      </trkpt>
      <trkpt lat="44.09888" lon="6.21273">
        <ele>720.65</ele>
        <time>2013-01-13T15:22:10Z</time>
      </trkpt>
      <trkpt lat="44.0988" lon="6.21272">
        <ele>720.16</ele>
        <time>2013-01-13T15:22:11Z</time>
      </trkpt>
      <trkpt lat="44.09858" lon="6.21267">
        <ele>718.24</ele>
        <time>2013-01-13T15:22:14Z</time>
      </trkpt>
      <trkpt lat="44.09852" lon="6.2127">
        <ele>718.24</ele>
        <time>2013-01-13T15:22:15Z</time>
      </trkpt>
      <trkpt lat="44.09846" lon="6.21275">
        <ele>717.28</ele>
        <time>2013-01-13T15:22:16Z</time>
      </trkpt>
      <trkpt lat="44.09841" lon="6.21281">
        <ele>717.76</ele>
        <time>2013-01-13T15:22:17Z</time>
      </trkpt>
      <trkpt lat="44.09836" lon="6.2129">
        <ele>716.8</ele>
        <time>2013-01-13T15:22:18Z</time>
      </trkpt>
      <trkpt lat="44.09831" lon="6.21299">
        <ele>716.32</ele>
        <time>2013-01-13T15:22:19Z</time>
      </trkpt>
      <trkpt lat="44.09826" lon="6.21307">
        <ele>715.84</ele>
        <time>2013-01-13T15:22:20Z</time>
      </trkpt>
      <trkpt lat="44.09819" lon="6.21315">
        <ele>715.36</ele>
        <time>2013-01-13T15:22:21Z</time>
      </trkpt>
      <trkpt lat="44.09812" lon="6.21321">
        <ele>714.4</ele>
        <time>2013-01-13T15:22:22Z</time>
      </trkpt>
      <trkpt lat="44.09804" lon="6.21328">
        <ele>713.44</ele>
        <time>2013-01-13T15:22:23Z</time>
      </trkpt>
      <trkpt lat="44.09788" lon="6.21341">
        <ele>712.47</ele>
        <time>2013-01-13T15:22:25Z</time>
      </trkpt>
      <trkpt lat="44.09752" lon="6.21378">
        <ele>709.59</ele>
        <time>2013-01-13T15:22:30Z</time>
      </trkpt>
      <trkpt lat="44.09732" lon="6.21395">
        <ele>708.15</ele>
        <time>2013-01-13T15:22:33Z</time>
      </trkpt>
      <trkpt lat="44.09727" lon="6.21402">
        <ele>708.15</ele>
        <time>2013-01-13T15:22:34Z</time>
      </trkpt>
      <trkpt lat="44.09722" lon="6.21411">
        <ele>707.67</ele>
        <time>2013-01-13T15:22:35Z</time>
      </trkpt>
      <trkpt lat="44.09719" lon="6.21421">
        <ele>707.19</ele>
        <time>2013-01-13T15:22:36Z</time>
      </trkpt>
      <trkpt lat="44.09717" lon="6.21432">
        <ele>706.71</ele>
        <time>2013-01-13T15:22:37Z</time>
      </trkpt>
      <trkpt lat="44.09715" lon="6.21443">
        <ele>705.75</ele>
        <time>2013-01-13T15:22:38Z</time>
      </trkpt>
      <trkpt lat="44.09711" lon="6.21478">
        <ele>704.78</ele>
        <time>2013-01-13T15:22:41Z</time>
      </trkpt>
      <trkpt lat="44.09707" lon="6.21525">
        <ele>703.82</ele>
        <time>2013-01-13T15:22:45Z</time>
      </trkpt>
      <trkpt lat="44.09704" lon="6.21536">
        <ele>702.86</ele>
        <time>2013-01-13T15:22:46Z</time>
      </trkpt>
      <trkpt lat="44.09701" lon="6.21548">
        <ele>703.34</ele>
        <time>2013-01-13T15:22:47Z</time>
      </trkpt>
      <trkpt lat="44.09675" lon="6.21617">
        <ele>701.42</ele>
        <time>2013-01-13T15:22:54Z</time>
      </trkpt>
      <trkpt lat="44.09673" lon="6.21626">
        <ele>700.94</ele>
        <time>2013-01-13T15:22:55Z</time>
      </trkpt>
      <trkpt lat="44.09672" lon="6.21636">
        <ele>700.46</ele>
        <time>2013-01-13T15:22:56Z</time>
      </trkpt>
      <trkpt lat="44.09672" lon="6.21648">
        <ele>699.98</ele>
        <time>2013-01-13T15:22:57Z</time>
      </trkpt>
      <trkpt lat="44.09673" lon="6.21659">
        <ele>699.98</ele>
        <time>2013-01-13T15:22:58Z</time>
      </trkpt>
      <trkpt lat="44.09673" lon="6.21669">
        <ele>699.5</ele>
        <time>2013-01-13T15:22:59Z</time>
      </trkpt>
      <trkpt lat="44.09674" lon="6.21685">
        <ele>698.53</ele>
        <time>2013-01-13T15:23:01Z</time>
      </trkpt>
      <trkpt lat="44.09672" lon="6.21691">
        <ele>698.05</ele>
        <time>2013-01-13T15:23:02Z</time>
      </trkpt>
      <trkpt lat="44.09668" lon="6.21696">
        <ele>697.57</ele>
        <time>2013-01-13T15:23:03Z</time>
      </trkpt>
      <trkpt lat="44.09663" lon="6.21697">
        <ele>696.61</ele>
        <time>2013-01-13T15:23:04Z</time>
      </trkpt>
      <trkpt lat="44.09658" lon="6.21697">
        <ele>696.61</ele>
        <time>2013-01-13T15:23:05Z</time>
      </trkpt>
      <trkpt lat="44.09651" lon="6.21695">
        <ele>696.13</ele>
        <time>2013-01-13T15:23:06Z</time>
      </trkpt>
      <trkpt lat="44.09644" lon="6.21693">
        <ele>695.65</ele>
        <time>2013-01-13T15:23:07Z</time>
      </trkpt>
      <trkpt lat="44.09607" lon="6.2168">
        <ele>692.77</ele>
        <time>2013-01-13T15:23:12Z</time>
      </trkpt>
      <trkpt lat="44.09599" lon="6.21679">
        <ele>692.77</ele>
        <time>2013-01-13T15:23:13Z</time>
      </trkpt>
      <trkpt lat="44.09591" lon="6.2168">
        <ele>691.81</ele>
        <time>2013-01-13T15:23:14Z</time>
      </trkpt>
      <trkpt lat="44.09575" lon="6.21683">
        <ele>690.36</ele>
        <time>2013-01-13T15:23:16Z</time>
      </trkpt>
      <trkpt lat="44.09567" lon="6.21684">
        <ele>689.88</ele>
        <time>2013-01-13T15:23:17Z</time>
      </trkpt>
      <trkpt lat="44.09559" lon="6.21683">
        <ele>689.4</ele>
        <time>2013-01-13T15:23:18Z</time>
      </trkpt>
      <trkpt lat="44.09551" lon="6.21681">
        <ele>688.44</ele>
        <time>2013-01-13T15:23:19Z</time>
      </trkpt>
      <trkpt lat="44.09543" lon="6.21679">
        <ele>687.96</ele>
        <time>2013-01-13T15:23:20Z</time>
      </trkpt>
      <trkpt lat="44.09535" lon="6.21675">
        <ele>687.96</ele>
        <time>2013-01-13T15:23:21Z</time>
      </trkpt>
      <trkpt lat="44.09528" lon="6.21671">
        <ele>687.96</ele>
        <time>2013-01-13T15:23:22Z</time>
      </trkpt>
      <trkpt lat="44.09521" lon="6.21666">
        <ele>687.48</ele>
        <time>2013-01-13T15:23:23Z</time>
      </trkpt>
      <trkpt lat="44.09464" lon="6.21623">
        <ele>684.12</ele>
        <time>2013-01-13T15:23:31Z</time>
      </trkpt>
      <trkpt lat="44.09448" lon="6.21611">
        <ele>682.67</ele>
        <time>2013-01-13T15:23:33Z</time>
      </trkpt>
      <trkpt lat="44.0944" lon="6.21603">
        <ele>681.71</ele>
        <time>2013-01-13T15:23:34Z</time>
      </trkpt>
      <trkpt lat="44.09424" lon="6.21587">
        <ele>680.75</ele>
        <time>2013-01-13T15:23:36Z</time>
      </trkpt>
      <trkpt lat="44.09383" lon="6.21551">
        <ele>677.39</ele>
        <time>2013-01-13T15:23:41Z</time>
      </trkpt>
      <trkpt lat="44.09358" lon="6.21527">
        <ele>674.02</ele>
        <time>2013-01-13T15:23:44Z</time>
      </trkpt>
      <trkpt lat="44.09331" lon="6.21505">
        <ele>672.1</ele>
        <time>2013-01-13T15:23:47Z</time>
      </trkpt>
      <trkpt lat="44.09321" lon="6.215">
        <ele>671.62</ele>
        <time>2013-01-13T15:23:48Z</time>
      </trkpt>
      <trkpt lat="44.0931" lon="6.21496">
        <ele>670.18</ele>
        <time>2013-01-13T15:23:49Z</time>
      </trkpt>
      <trkpt lat="44.09299" lon="6.21495">
        <ele>669.7</ele>
        <time>2013-01-13T15:23:50Z</time>
      </trkpt>
      <trkpt lat="44.09287" lon="6.21494">
        <ele>668.73</ele>
        <time>2013-01-13T15:23:51Z</time>
      </trkpt>
      <trkpt lat="44.09277" lon="6.21491">
        <ele>667.77</ele>
        <time>2013-01-13T15:23:52Z</time>
      </trkpt>
      <trkpt lat="44.09267" lon="6.21487">
        <ele>666.81</ele>
        <time>2013-01-13T15:23:53Z</time>
      </trkpt>
      <trkpt lat="44.0925" lon="6.2148">
        <ele>665.37</ele>
        <time>2013-01-13T15:23:55Z</time>
      </trkpt>
      <trkpt lat="44.09241" lon="6.2148">
        <ele>664.41</ele>
        <time>2013-01-13T15:23:56Z</time>
      </trkpt>
      <trkpt lat="44.09223" lon="6.21482">
        <ele>662.97</ele>
        <time>2013-01-13T15:23:58Z</time>
      </trkpt>
      <trkpt lat="44.09187" lon="6.21488">
        <ele>660.08</ele>
        <time>2013-01-13T15:24:02Z</time>
      </trkpt>
      <trkpt lat="44.09179" lon="6.21486">
        <ele>659.12</ele>
        <time>2013-01-13T15:24:03Z</time>
      </trkpt>
      <trkpt lat="44.09171" lon="6.21482">
        <ele>658.64</ele>
        <time>2013-01-13T15:24:04Z</time>
      </trkpt>
      <trkpt lat="44.09165" lon="6.21475">
        <ele>658.16</ele>
        <time>2013-01-13T15:24:05Z</time>
      </trkpt>
      <trkpt lat="44.09159" lon="6.21467">
        <ele>657.68</ele>
        <time>2013-01-13T15:24:06Z</time>
      </trkpt>
      <trkpt lat="44.09154" lon="6.21459">
        <ele>657.2</ele>
        <time>2013-01-13T15:24:07Z</time>
      </trkpt>
      <trkpt lat="44.09145" lon="6.21445">
        <ele>655.28</ele>
        <time>2013-01-13T15:24:09Z</time>
      </trkpt>
      <trkpt lat="44.0914" lon="6.2144">
        <ele>655.76</ele>
        <time>2013-01-13T15:24:10Z</time>
      </trkpt>
      <trkpt lat="44.09133" lon="6.21437">
        <ele>654.31</ele>
        <time>2013-01-13T15:24:11Z</time>
      </trkpt>
      <trkpt lat="44.09125" lon="6.21437">
        <ele>653.83</ele>
        <time>2013-01-13T15:24:12Z</time>
      </trkpt>
      <trkpt lat="44.09117" lon="6.21439">
        <ele>653.35</ele>
        <time>2013-01-13T15:24:13Z</time>
      </trkpt>
      <trkpt lat="44.09108" lon="6.21442">
        <ele>652.39</ele>
        <time>2013-01-13T15:24:14Z</time>
      </trkpt>
      <trkpt lat="44.0909" lon="6.21447">
        <ele>651.91</ele>
        <time>2013-01-13T15:24:16Z</time>
      </trkpt>
      <trkpt lat="44.09058" lon="6.21461">
        <ele>648.07</ele>
        <time>2013-01-13T15:24:20Z</time>
      </trkpt>
      <trkpt lat="44.09051" lon="6.21465">
        <ele>647.59</ele>
        <time>2013-01-13T15:24:21Z</time>
      </trkpt>
      <trkpt lat="44.09039" lon="6.21474">
        <ele>646.62</ele>
        <time>2013-01-13T15:24:23Z</time>
      </trkpt>
      <trkpt lat="44.09033" lon="6.21479">
        <ele>646.14</ele>
        <time>2013-01-13T15:24:24Z</time>
      </trkpt>
      <trkpt lat="44.09028" lon="6.21485">
        <ele>645.66</ele>
        <time>2013-01-13T15:24:25Z</time>
      </trkpt>
      <trkpt lat="44.09023" lon="6.21493">
        <ele>645.18</ele>
        <time>2013-01-13T15:24:26Z</time>
      </trkpt>
      <trkpt lat="44.0902" lon="6.21503">
        <ele>644.7</ele>
        <time>2013-01-13T15:24:27Z</time>
      </trkpt>
      <trkpt lat="44.09016" lon="6.21513">
        <ele>644.7</ele>
        <time>2013-01-13T15:24:28Z</time>
      </trkpt>
      <trkpt lat="44.09014" lon="6.21525">
        <ele>643.26</ele>
        <time>2013-01-13T15:24:29Z</time>
      </trkpt>
      <trkpt lat="44.08997" lon="6.21578">
        <ele>639.89</ele>
        <time>2013-01-13T15:24:34Z</time>
      </trkpt>
      <trkpt lat="44.08989" lon="6.21609">
        <ele>638.45</ele>
        <time>2013-01-13T15:24:37Z</time>
      </trkpt>
      <trkpt lat="44.08987" lon="6.2162">
        <ele>638.45</ele>
        <time>2013-01-13T15:24:38Z</time>
      </trkpt>
      <trkpt lat="44.08983" lon="6.21672">
        <ele>635.09</ele>
        <time>2013-01-13T15:24:42Z</time>
      </trkpt>
      <trkpt lat="44.08982" lon="6.217">
        <ele>633.17</ele>
        <time>2013-01-13T15:24:45Z</time>
      </trkpt>
      <trkpt lat="44.08983" lon="6.21709">
        <ele>632.68</ele>
        <time>2013-01-13T15:24:46Z</time>
      </trkpt>
      <trkpt lat="44.08985" lon="6.21718">
        <ele>632.2</ele>
        <time>2013-01-13T15:24:47Z</time>
      </trkpt>
      <trkpt lat="44.08988" lon="6.21727">
        <ele>632.2</ele>
        <time>2013-01-13T15:24:48Z</time>
      </trkpt>
      <trkpt lat="44.08991" lon="6.21736">
        <ele>631.72</ele>
        <time>2013-01-13T15:24:49Z</time>
      </trkpt>
      <trkpt lat="44.08996" lon="6.21745">
        <ele>630.76</ele>
        <time>2013-01-13T15:24:50Z</time>
      </trkpt>
      <trkpt lat="44.09002" lon="6.21754">
        <ele>630.28</ele>
        <time>2013-01-13T15:24:51Z</time>
      </trkpt>
      <trkpt lat="44.09009" lon="6.21761">
        <ele>629.32</ele>
        <time>2013-01-13T15:24:52Z</time>
      </trkpt>
      <trkpt lat="44.09016" lon="6.21767">
        <ele>628.84</ele>
        <time>2013-01-13T15:24:53Z</time>
      </trkpt>
      <trkpt lat="44.09043" lon="6.21804">
        <ele>625.47</ele>
        <time>2013-01-13T15:24:58Z</time>
      </trkpt>
      <trkpt lat="44.09045" lon="6.2181">
        <ele>624.99</ele>
        <time>2013-01-13T15:24:59Z</time>
      </trkpt>
      <trkpt lat="44.09045" lon="6.21817">
        <ele>624.51</ele>
        <time>2013-01-13T15:25:00Z</time>
      </trkpt>
      <trkpt lat="44.09044" lon="6.21823">
        <ele>624.99</ele>
        <time>2013-01-13T15:25:01Z</time>
      </trkpt>
      <trkpt lat="44.09041" lon="6.21828">
        <ele>624.51</ele>
        <time>2013-01-13T15:25:02Z</time>
      </trkpt>
      <trkpt lat="44.09036" lon="6.21833">
        <ele>623.55</ele>
        <time>2013-01-13T15:25:03Z</time>
      </trkpt>
      <trkpt lat="44.09031" lon="6.21839">
        <ele>623.55</ele>
        <time>2013-01-13T15:25:04Z</time>
      </trkpt>
      <trkpt lat="44.09026" lon="6.21846">
        <ele>623.55</ele>
        <time>2013-01-13T15:25:05Z</time>
      </trkpt>
      <trkpt lat="44.09021" lon="6.21854">
        <ele>623.07</ele>
        <time>2013-01-13T15:25:06Z</time>
      </trkpt>
      <trkpt lat="44.09018" lon="6.21863">
        <ele>622.59</ele>
        <time>2013-01-13T15:25:07Z</time>
      </trkpt>
      <trkpt lat="44.09013" lon="6.21873">
        <ele>621.63</ele>
        <time>2013-01-13T15:25:08Z</time>
      </trkpt>
      <trkpt lat="44.09002" lon="6.21902">
        <ele>620.19</ele>
        <time>2013-01-13T15:25:11Z</time>
      </trkpt>
      <trkpt lat="44.08981" lon="6.21964">
        <ele>617.78</ele>
        <time>2013-01-13T15:25:17Z</time>
      </trkpt>
      <trkpt lat="44.08972" lon="6.22012">
        <ele>614.42</ele>
        <time>2013-01-13T15:25:21Z</time>
      </trkpt>
      <trkpt lat="44.08969" lon="6.2205">
        <ele>612.5</ele>
        <time>2013-01-13T15:25:24Z</time>
      </trkpt>
      <trkpt lat="44.08966" lon="6.22062">
        <ele>611.54</ele>
        <time>2013-01-13T15:25:25Z</time>
      </trkpt>
      <trkpt lat="44.08963" lon="6.22073">
        <ele>611.06</ele>
        <time>2013-01-13T15:25:26Z</time>
      </trkpt>
      <trkpt lat="44.0896" lon="6.22084">
        <ele>611.06</ele>
        <time>2013-01-13T15:25:27Z</time>
      </trkpt>
      <trkpt lat="44.08957" lon="6.22097">
        <ele>610.09</ele>
        <time>2013-01-13T15:25:28Z</time>
      </trkpt>
      <trkpt lat="44.08954" lon="6.2211">
        <ele>609.13</ele>
        <time>2013-01-13T15:25:29Z</time>
      </trkpt>
      <trkpt lat="44.0895" lon="6.22137">
        <ele>608.17</ele>
        <time>2013-01-13T15:25:31Z</time>
      </trkpt>
      <trkpt lat="44.08947" lon="6.22161">
        <ele>606.73</ele>
        <time>2013-01-13T15:25:33Z</time>
      </trkpt>
      <trkpt lat="44.08944" lon="6.22195">
        <ele>603.85</ele>
        <time>2013-01-13T15:25:36Z</time>
      </trkpt>
      <trkpt lat="44.08942" lon="6.22206">
        <ele>603.36</ele>
        <time>2013-01-13T15:25:37Z</time>
      </trkpt>
      <trkpt lat="44.08931" lon="6.22251">
        <ele>600.96</ele>
        <time>2013-01-13T15:25:41Z</time>
      </trkpt>
      <trkpt lat="44.08928" lon="6.2226">
        <ele>600</ele>
        <time>2013-01-13T15:25:42Z</time>
      </trkpt>
      <trkpt lat="44.08924" lon="6.22266">
        <ele>599.04</ele>
        <time>2013-01-13T15:25:43Z</time>
      </trkpt>
      <trkpt lat="44.0892" lon="6.22271">
        <ele>598.08</ele>
        <time>2013-01-13T15:25:44Z</time>
      </trkpt>
      <trkpt lat="44.08916" lon="6.22275">
        <ele>598.56</ele>
        <time>2013-01-13T15:25:45Z</time>
      </trkpt>
      <trkpt lat="44.08913" lon="6.22277">
        <ele>597.6</ele>
        <time>2013-01-13T15:25:46Z</time>
      </trkpt>
      <trkpt lat="44.0891" lon="6.22279">
        <ele>597.6</ele>
        <time>2013-01-13T15:25:47Z</time>
      </trkpt>
      <trkpt lat="44.08909" lon="6.22278">
        <ele>597.6</ele>
        <time>2013-01-13T15:25:48Z</time>
      </trkpt>
      <trkpt lat="44.08909" lon="6.22275">
        <ele>597.12</ele>
        <time>2013-01-13T15:25:49Z</time>
      </trkpt>
      <trkpt lat="44.08908" lon="6.22274">
        <ele>597.12</ele>
        <time>2013-01-13T15:25:50Z</time>
      </trkpt>
      <trkpt lat="44.08907" lon="6.22275">
        <ele>596.64</ele>
        <time>2013-01-13T15:25:51Z</time>
      </trkpt>
      <trkpt lat="44.08906" lon="6.22278">
        <ele>596.64</ele>
        <time>2013-01-13T15:25:52Z</time>
      </trkpt>
      <trkpt lat="44.08905" lon="6.22282">
        <ele>596.64</ele>
        <time>2013-01-13T15:25:53Z</time>
      </trkpt>
      <trkpt lat="44.08905" lon="6.22288">
        <ele>596.64</ele>
        <time>2013-01-13T15:25:54Z</time>
      </trkpt>
      <trkpt lat="44.08906" lon="6.22295">
        <ele>597.12</ele>
        <time>2013-01-13T15:25:55Z</time>
      </trkpt>
      <trkpt lat="44.08907" lon="6.22302">
        <ele>597.12</ele>
        <time>2013-01-13T15:25:56Z</time>
      </trkpt>
      <trkpt lat="44.08919" lon="6.22399">
        <ele>594.71</ele>
        <time>2013-01-13T15:26:04Z</time>
      </trkpt>
      <trkpt lat="44.08921" lon="6.22427">
        <ele>593.75</ele>
        <time>2013-01-13T15:26:06Z</time>
      </trkpt>
      <trkpt lat="44.08921" lon="6.22442">
        <ele>593.27</ele>
        <time>2013-01-13T15:26:07Z</time>
      </trkpt>
      <trkpt lat="44.0892" lon="6.22457">
        <ele>593.27</ele>
        <time>2013-01-13T15:26:08Z</time>
      </trkpt>
      <trkpt lat="44.08913" lon="6.22516">
        <ele>589.91</ele>
        <time>2013-01-13T15:26:13Z</time>
      </trkpt>
      <trkpt lat="44.0891" lon="6.22522">
        <ele>589.43</ele>
        <time>2013-01-13T15:26:14Z</time>
      </trkpt>
      <trkpt lat="44.08905" lon="6.22524">
        <ele>588.46</ele>
        <time>2013-01-13T15:26:15Z</time>
      </trkpt>
      <trkpt lat="44.089" lon="6.22523">
        <ele>588.46</ele>
        <time>2013-01-13T15:26:16Z</time>
      </trkpt>
      <trkpt lat="44.08887" lon="6.22521">
        <ele>587.98</ele>
        <time>2013-01-13T15:26:18Z</time>
      </trkpt>
      <trkpt lat="44.08881" lon="6.22523">
        <ele>587.5</ele>
        <time>2013-01-13T15:26:19Z</time>
      </trkpt>
      <trkpt lat="44.08876" lon="6.22527">
        <ele>587.02</ele>
        <time>2013-01-13T15:26:20Z</time>
      </trkpt>
      <trkpt lat="44.08873" lon="6.22533">
        <ele>586.54</ele>
        <time>2013-01-13T15:26:21Z</time>
      </trkpt>
      <trkpt lat="44.08872" lon="6.2254">
        <ele>586.54</ele>
        <time>2013-01-13T15:26:22Z</time>
      </trkpt>
      <trkpt lat="44.08872" lon="6.22547">
        <ele>586.54</ele>
        <time>2013-01-13T15:26:23Z</time>
      </trkpt>
      <trkpt lat="44.08874" lon="6.22554">
        <ele>586.06</ele>
        <time>2013-01-13T15:26:24Z</time>
      </trkpt>
      <trkpt lat="44.08877" lon="6.22561">
        <ele>586.06</ele>
        <time>2013-01-13T15:26:25Z</time>
      </trkpt>
      <trkpt lat="44.08881" lon="6.22568">
        <ele>587.02</ele>
        <time>2013-01-13T15:26:26Z</time>
      </trkpt>
      <trkpt lat="44.08886" lon="6.22575">
        <ele>587.02</ele>
        <time>2013-01-13T15:26:27Z</time>
      </trkpt>
      <trkpt lat="44.0893" lon="6.22667">
        <ele>587.98</ele>
        <time>2013-01-13T15:26:36Z</time>
      </trkpt>
      <trkpt lat="44.08954" lon="6.22764">
        <ele>588.46</ele>
        <time>2013-01-13T15:26:46Z</time>
      </trkpt>
      <trkpt lat="44.08955" lon="6.22769">
        <ele>588.95</ele>
        <time>2013-01-13T15:26:52Z</time>
      </trkpt>
      <trkpt lat="44.08955" lon="6.22771">
        <ele>588.46</ele>
        <time>2013-01-13T15:26:53Z</time>
      </trkpt>
      <trkpt lat="44.08954" lon="6.22775">
        <ele>588.46</ele>
        <time>2013-01-13T15:26:54Z</time>
      </trkpt>
      <trkpt lat="44.0895" lon="6.22777">
        <ele>588.46</ele>
        <time>2013-01-13T15:26:55Z</time>
      </trkpt>
      <trkpt lat="44.08947" lon="6.22778">
        <ele>588.46</ele>
        <time>2013-01-13T15:26:56Z</time>
      </trkpt>
      <trkpt lat="44.08942" lon="6.22777">
        <ele>588.95</ele>
        <time>2013-01-13T15:26:57Z</time>
      </trkpt>
      <trkpt lat="44.08937" lon="6.22774">
        <ele>588.95</ele>
        <time>2013-01-13T15:26:58Z</time>
      </trkpt>
      <trkpt lat="44.0893" lon="6.22768">
        <ele>588.95</ele>
        <time>2013-01-13T15:26:59Z</time>
      </trkpt>
      <trkpt lat="44.08854" lon="6.22704">
        <ele>587.98</ele>
        <time>2013-01-13T15:27:07Z</time>
      </trkpt>
      <trkpt lat="44.08714" lon="6.22582">
        <ele>584.62</ele>
        <time>2013-01-13T15:27:18Z</time>
      </trkpt>
      <trkpt lat="44.08582" lon="6.22457">
        <ele>582.22</ele>
        <time>2013-01-13T15:27:27Z</time>
      </trkpt>
      <trkpt lat="44.0857" lon="6.22438">
        <ele>581.73</ele>
        <time>2013-01-13T15:27:28Z</time>
      </trkpt>
      <trkpt lat="44.08424" lon="6.22162">
        <ele>580.29</ele>
        <time>2013-01-13T15:27:41Z</time>
      </trkpt>
      <trkpt lat="44.0829" lon="6.21875">
        <ele>577.41</ele>
        <time>2013-01-13T15:27:54Z</time>
      </trkpt>
      <trkpt lat="44.08265" lon="6.21804">
        <ele>576.93</ele>
        <time>2013-01-13T15:27:58Z</time>
      </trkpt>
      <trkpt lat="44.08257" lon="6.21765">
        <ele>576.93</ele>
        <time>2013-01-13T15:28:01Z</time>
      </trkpt>
      <trkpt lat="44.08257" lon="6.21755">
        <ele>576.93</ele>
        <time>2013-01-13T15:28:02Z</time>
      </trkpt>
      <trkpt lat="44.08258" lon="6.21748">
        <ele>576.93</ele>
        <time>2013-01-13T15:28:03Z</time>
      </trkpt>
      <trkpt lat="44.08259" lon="6.21745">
        <ele>576.93</ele>
        <time>2013-01-13T15:28:04Z</time>
      </trkpt>
      <trkpt lat="44.0826" lon="6.21743">
        <ele>576.93</ele>
        <time>2013-01-13T15:28:05Z</time>
      </trkpt>
      <trkpt lat="44.08266" lon="6.21723">
        <ele>576.93</ele>
        <time>2013-01-13T15:28:10Z</time>
      </trkpt>
      <trkpt lat="44.08266" lon="6.21716">
        <ele>577.41</ele>
        <time>2013-01-13T15:28:11Z</time>
      </trkpt>
      <trkpt lat="44.08265" lon="6.21708">
        <ele>577.41</ele>
        <time>2013-01-13T15:28:12Z</time>
      </trkpt>
      <trkpt lat="44.0826" lon="6.21702">
        <ele>577.41</ele>
        <time>2013-01-13T15:28:13Z</time>
      </trkpt>
      <trkpt lat="44.08255" lon="6.21696">
        <ele>577.41</ele>
        <time>2013-01-13T15:28:14Z</time>
      </trkpt>
      <trkpt lat="44.08249" lon="6.21689">
        <ele>577.41</ele>
        <time>2013-01-13T15:28:15Z</time>
      </trkpt>
      <trkpt lat="44.08242" lon="6.2168">
        <ele>577.41</ele>
        <time>2013-01-13T15:28:16Z</time>
      </trkpt>
      <trkpt lat="44.08235" lon="6.21669">
        <ele>577.41</ele>
        <time>2013-01-13T15:28:17Z</time>
      </trkpt>
      <trkpt lat="44.08228" lon="6.21657">
        <ele>577.89</ele>
        <time>2013-01-13T15:28:18Z</time>
      </trkpt>
      <trkpt lat="44.08168" lon="6.21522">
        <ele>576.45</ele>
        <time>2013-01-13T15:28:26Z</time>
      </trkpt>
      <trkpt lat="44.08093" lon="6.21339">
        <ele>575.49</ele>
        <time>2013-01-13T15:28:34Z</time>
      </trkpt>
      <trkpt lat="44.08002" lon="6.21095">
        <ele>572.6</ele>
        <time>2013-01-13T15:28:43Z</time>
      </trkpt>
      <trkpt lat="44.07914" lon="6.20792">
        <ele>569.72</ele>
        <time>2013-01-13T15:28:54Z</time>
      </trkpt>
      <trkpt lat="44.07909" lon="6.20764">
        <ele>569.72</ele>
        <time>2013-01-13T15:28:55Z</time>
      </trkpt>
      <trkpt lat="44.07872" lon="6.2047">
        <ele>568.76</ele>
        <time>2013-01-13T15:29:05Z</time>
      </trkpt>
      <trkpt lat="44.07864" lon="6.20163">
        <ele>567.32</ele>
        <time>2013-01-13T15:29:15Z</time>
      </trkpt>
      <trkpt lat="44.07844" lon="6.19883">
        <ele>564.43</ele>
        <time>2013-01-13T15:29:24Z</time>
      </trkpt>
      <trkpt lat="44.07797" lon="6.19489">
        <ele>561.55</ele>
        <time>2013-01-13T15:29:37Z</time>
      </trkpt>
      <trkpt lat="44.07755" lon="6.19344">
        <ele>560.59</ele>
        <time>2013-01-13T15:29:42Z</time>
      </trkpt>
      <trkpt lat="44.07654" lon="6.19115">
        <ele>557.7</ele>
        <time>2013-01-13T15:29:51Z</time>
      </trkpt>
      <trkpt lat="44.07631" lon="6.19074">
        <ele>556.74</ele>
        <time>2013-01-13T15:29:53Z</time>
      </trkpt>
      <trkpt lat="44.07599" lon="6.1902">
        <ele>555.3</ele>
        <time>2013-01-13T15:29:56Z</time>
      </trkpt>
      <trkpt lat="44.07537" lon="6.18894">
        <ele>552.9</ele>
        <time>2013-01-13T15:30:04Z</time>
      </trkpt>
      <trkpt lat="44.07532" lon="6.18882">
        <ele>552.41</ele>
        <time>2013-01-13T15:30:05Z</time>
      </trkpt>
      <trkpt lat="44.0753" lon="6.18871">
        <ele>552.41</ele>
        <time>2013-01-13T15:30:06Z</time>
      </trkpt>
      <trkpt lat="44.07529" lon="6.18861">
        <ele>551.93</ele>
        <time>2013-01-13T15:30:07Z</time>
      </trkpt>
      <trkpt lat="44.07528" lon="6.18852">
        <ele>551.93</ele>
        <time>2013-01-13T15:30:08Z</time>
      </trkpt>
      <trkpt lat="44.07526" lon="6.18844">
        <ele>551.93</ele>
        <time>2013-01-13T15:30:09Z</time>
      </trkpt>
      <trkpt lat="44.07523" lon="6.18837">
        <ele>552.9</ele>
        <time>2013-01-13T15:30:10Z</time>
      </trkpt>
      <trkpt lat="44.07518" lon="6.18833">
        <ele>552.9</ele>
        <time>2013-01-13T15:30:11Z</time>
      </trkpt>
      <trkpt lat="44.07511" lon="6.1883">
        <ele>552.41</ele>
        <time>2013-01-13T15:30:12Z</time>
      </trkpt>
      <trkpt lat="44.07503" lon="6.18826">
        <ele>551.93</ele>
        <time>2013-01-13T15:30:13Z</time>
      </trkpt>
      <trkpt lat="44.07495" lon="6.1882">
        <ele>551.93</ele>
        <time>2013-01-13T15:30:14Z</time>
      </trkpt>
      <trkpt lat="44.07486" lon="6.1881">
        <ele>552.9</ele>
        <time>2013-01-13T15:30:15Z</time>
      </trkpt>
      <trkpt lat="44.07476" lon="6.18799">
        <ele>551.93</ele>
        <time>2013-01-13T15:30:16Z</time>
      </trkpt>
      <trkpt lat="44.07394" lon="6.18681">
        <ele>552.9</ele>
        <time>2013-01-13T15:30:23Z</time>
      </trkpt>
      <trkpt lat="44.07244" lon="6.18467">
        <ele>551.93</ele>
        <time>2013-01-13T15:30:33Z</time>
      </trkpt>
      <trkpt lat="44.07097" lon="6.18281">
        <ele>553.86</ele>
        <time>2013-01-13T15:30:42Z</time>
      </trkpt>
      <trkpt lat="44.06952" lon="6.18045">
        <ele>550.49</ele>
        <time>2013-01-13T15:30:52Z</time>
      </trkpt>
      <trkpt lat="44.06902" lon="6.17943">
        <ele>546.65</ele>
        <time>2013-01-13T15:30:56Z</time>
      </trkpt>
      <trkpt lat="44.0689" lon="6.17917">
        <ele>546.65</ele>
        <time>2013-01-13T15:30:57Z</time>
      </trkpt>
      <trkpt lat="44.06741" lon="6.17542">
        <ele>544.24</ele>
        <time>2013-01-13T15:31:11Z</time>
      </trkpt>
      <trkpt lat="44.06718" lon="6.17494">
        <ele>544.24</ele>
        <time>2013-01-13T15:31:13Z</time>
      </trkpt>
      <trkpt lat="44.06705" lon="6.17473">
        <ele>543.76</ele>
        <time>2013-01-13T15:31:14Z</time>
      </trkpt>
      <trkpt lat="44.06691" lon="6.17454">
        <ele>543.28</ele>
        <time>2013-01-13T15:31:15Z</time>
      </trkpt>
      <trkpt lat="44.06622" lon="6.17355">
        <ele>542.8</ele>
        <time>2013-01-13T15:31:21Z</time>
      </trkpt>
      <trkpt lat="44.06617" lon="6.1734">
        <ele>542.8</ele>
        <time>2013-01-13T15:31:22Z</time>
      </trkpt>
      <trkpt lat="44.06613" lon="6.17326">
        <ele>543.28</ele>
        <time>2013-01-13T15:31:23Z</time>
      </trkpt>
      <trkpt lat="44.06612" lon="6.17312">
        <ele>542.8</ele>
        <time>2013-01-13T15:31:24Z</time>
      </trkpt>
      <trkpt lat="44.06613" lon="6.173">
        <ele>542.8</ele>
        <time>2013-01-13T15:31:25Z</time>
      </trkpt>
      <trkpt lat="44.06616" lon="6.17288">
        <ele>542.8</ele>
        <time>2013-01-13T15:31:26Z</time>
      </trkpt>
      <trkpt lat="44.06619" lon="6.17277">
        <ele>542.32</ele>
        <time>2013-01-13T15:31:27Z</time>
      </trkpt>
      <trkpt lat="44.0662" lon="6.17266">
        <ele>542.8</ele>
        <time>2013-01-13T15:31:28Z</time>
      </trkpt>
      <trkpt lat="44.0662" lon="6.17254">
        <ele>542.32</ele>
        <time>2013-01-13T15:31:29Z</time>
      </trkpt>
      <trkpt lat="44.06616" lon="6.17242">
        <ele>542.8</ele>
        <time>2013-01-13T15:31:30Z</time>
      </trkpt>
      <trkpt lat="44.0661" lon="6.17233">
        <ele>542.32</ele>
        <time>2013-01-13T15:31:31Z</time>
      </trkpt>
      <trkpt lat="44.06602" lon="6.17225">
        <ele>542.8</ele>
        <time>2013-01-13T15:31:32Z</time>
      </trkpt>
      <trkpt lat="44.06593" lon="6.17219">
        <ele>542.8</ele>
        <time>2013-01-13T15:31:33Z</time>
      </trkpt>
      <trkpt lat="44.06583" lon="6.17215">
        <ele>543.28</ele>
        <time>2013-01-13T15:31:34Z</time>
      </trkpt>
      <trkpt lat="44.06573" lon="6.17208">
        <ele>543.28</ele>
        <time>2013-01-13T15:31:35Z</time>
      </trkpt>
      <trkpt lat="44.06564" lon="6.17198">
        <ele>543.28</ele>
        <time>2013-01-13T15:31:36Z</time>
      </trkpt>
      <trkpt lat="44.06555" lon="6.17185">
        <ele>543.28</ele>
        <time>2013-01-13T15:31:37Z</time>
      </trkpt>
      <trkpt lat="44.06467" lon="6.17075">
        <ele>542.8</ele>
        <time>2013-01-13T15:31:44Z</time>
      </trkpt>
      <trkpt lat="44.06437" lon="6.17045">
        <ele>541.84</ele>
        <time>2013-01-13T15:31:46Z</time>
      </trkpt>
      <trkpt lat="44.06311" lon="6.16923">
        <ele>537.99</ele>
        <time>2013-01-13T15:31:54Z</time>
      </trkpt>
      <trkpt lat="44.0616" lon="6.16742">
        <ele>536.07</ele>
        <time>2013-01-13T15:32:04Z</time>
      </trkpt>
      <trkpt lat="44.0597" lon="6.16487">
        <ele>532.71</ele>
        <time>2013-01-13T15:32:16Z</time>
      </trkpt>
      <trkpt lat="44.05734" lon="6.16184">
        <ele>529.34</ele>
        <time>2013-01-13T15:32:31Z</time>
      </trkpt>
      <trkpt lat="44.0546" lon="6.15837">
        <ele>527.42</ele>
        <time>2013-01-13T15:32:49Z</time>
      </trkpt>
      <trkpt lat="44.05387" lon="6.15688">
        <ele>526.94</ele>
        <time>2013-01-13T15:32:56Z</time>
      </trkpt>
      <trkpt lat="44.05366" lon="6.15507">
        <ele>527.42</ele>
        <time>2013-01-13T15:33:03Z</time>
      </trkpt>
      <trkpt lat="44.05359" lon="6.15401">
        <ele>527.9</ele>
        <time>2013-01-13T15:33:07Z</time>
      </trkpt>
      <trkpt lat="44.05354" lon="6.15375">
        <ele>528.38</ele>
        <time>2013-01-13T15:33:08Z</time>
      </trkpt>
      <trkpt lat="44.05347" lon="6.1535">
        <ele>528.38</ele>
        <time>2013-01-13T15:33:09Z</time>
      </trkpt>
      <trkpt lat="44.05338" lon="6.15326">
        <ele>527.9</ele>
        <time>2013-01-13T15:33:10Z</time>
      </trkpt>
      <trkpt lat="44.05327" lon="6.15302">
        <ele>527.9</ele>
        <time>2013-01-13T15:33:11Z</time>
      </trkpt>
      <trkpt lat="44.05315" lon="6.15279">
        <ele>527.9</ele>
        <time>2013-01-13T15:33:12Z</time>
      </trkpt>
      <trkpt lat="44.05303" lon="6.15258">
        <ele>527.9</ele>
        <time>2013-01-13T15:33:13Z</time>
      </trkpt>
      <trkpt lat="44.05166" lon="6.15048">
        <ele>526.94</ele>
        <time>2013-01-13T15:33:24Z</time>
      </trkpt>
      <trkpt lat="44.05055" lon="6.14813">
        <ele>526.46</ele>
        <time>2013-01-13T15:33:37Z</time>
      </trkpt>
      <trkpt lat="44.04976" lon="6.14617">
        <ele>523.58</ele>
        <time>2013-01-13T15:33:45Z</time>
      </trkpt>
      <trkpt lat="44.0494" lon="6.14426">
        <ele>521.65</ele>
        <time>2013-01-13T15:33:53Z</time>
      </trkpt>
      <trkpt lat="44.04935" lon="6.14321">
        <ele>521.17</ele>
        <time>2013-01-13T15:33:57Z</time>
      </trkpt>
      <trkpt lat="44.04931" lon="6.14295">
        <ele>521.17</ele>
        <time>2013-01-13T15:33:58Z</time>
      </trkpt>
      <trkpt lat="44.04926" lon="6.14269">
        <ele>521.17</ele>
        <time>2013-01-13T15:33:59Z</time>
      </trkpt>
      <trkpt lat="44.04849" lon="6.14003">
        <ele>519.25</ele>
        <time>2013-01-13T15:34:10Z</time>
      </trkpt>
      <trkpt lat="44.04807" lon="6.13922">
        <ele>517.81</ele>
        <time>2013-01-13T15:34:14Z</time>
      </trkpt>
      <trkpt lat="44.04747" lon="6.13834">
        <ele>514.92</ele>
        <time>2013-01-13T15:34:19Z</time>
      </trkpt>
      <trkpt lat="44.04664" lon="6.13657">
        <ele>512.04</ele>
        <time>2013-01-13T15:34:28Z</time>
      </trkpt>
      <trkpt lat="44.04606" lon="6.13486">
        <ele>511.56</ele>
        <time>2013-01-13T15:34:36Z</time>
      </trkpt>
      <trkpt lat="44.0444" lon="6.13207">
        <ele>510.12</ele>
        <time>2013-01-13T15:34:50Z</time>
      </trkpt>
      <trkpt lat="44.04408" lon="6.13144">
        <ele>508.19</ele>
        <time>2013-01-13T15:34:53Z</time>
      </trkpt>
      <trkpt lat="44.04399" lon="6.13122">
        <ele>507.71</ele>
        <time>2013-01-13T15:34:54Z</time>
      </trkpt>
      <trkpt lat="44.04393" lon="6.131">
        <ele>506.75</ele>
        <time>2013-01-13T15:34:55Z</time>
      </trkpt>
      <trkpt lat="44.0433" lon="6.12915">
        <ele>504.35</ele>
        <time>2013-01-13T15:35:05Z</time>
      </trkpt>
      <trkpt lat="44.04232" lon="6.12736">
        <ele>501.95</ele>
        <time>2013-01-13T15:35:18Z</time>
      </trkpt>
      <trkpt lat="44.0408" lon="6.1251">
        <ele>501.46</ele>
        <time>2013-01-13T15:35:37Z</time>
      </trkpt>
      <trkpt lat="44.03942" lon="6.12304">
        <ele>498.1</ele>
        <time>2013-01-13T15:35:52Z</time>
      </trkpt>
      <trkpt lat="44.03828" lon="6.12103">
        <ele>494.74</ele>
        <time>2013-01-13T15:36:04Z</time>
      </trkpt>
      <trkpt lat="44.03785" lon="6.11915">
        <ele>493.77</ele>
        <time>2013-01-13T15:36:12Z</time>
      </trkpt>
      <trkpt lat="44.03729" lon="6.11592">
        <ele>490.41</ele>
        <time>2013-01-13T15:36:25Z</time>
      </trkpt>
      <trkpt lat="44.03672" lon="6.11262">
        <ele>490.41</ele>
        <time>2013-01-13T15:36:38Z</time>
      </trkpt>
      <trkpt lat="44.03624" lon="6.1103">
        <ele>491.37</ele>
        <time>2013-01-13T15:36:45Z</time>
      </trkpt>
      <trkpt lat="44.03542" lon="6.1061">
        <ele>489.45</ele>
        <time>2013-01-13T15:36:58Z</time>
      </trkpt>
      <trkpt lat="44.03441" lon="6.10109">
        <ele>488.49</ele>
        <time>2013-01-13T15:37:14Z</time>
      </trkpt>
      <trkpt lat="44.03323" lon="6.09522">
        <ele>486.56</ele>
        <time>2013-01-13T15:37:33Z</time>
      </trkpt>
      <trkpt lat="44.03305" lon="6.09434">
        <ele>485.12</ele>
        <time>2013-01-13T15:37:36Z</time>
      </trkpt>
      <trkpt lat="44.03292" lon="6.0935">
        <ele>484.64</ele>
        <time>2013-01-13T15:37:39Z</time>
      </trkpt>
      <trkpt lat="44.03291" lon="6.09322">
        <ele>484.64</ele>
        <time>2013-01-13T15:37:40Z</time>
      </trkpt>
      <trkpt lat="44.03291" lon="6.09295">
        <ele>484.16</ele>
        <time>2013-01-13T15:37:41Z</time>
      </trkpt>
      <trkpt lat="44.03294" lon="6.09268">
        <ele>483.68</ele>
        <time>2013-01-13T15:37:42Z</time>
      </trkpt>
      <trkpt lat="44.03298" lon="6.0924">
        <ele>484.16</ele>
        <time>2013-01-13T15:37:43Z</time>
      </trkpt>
      <trkpt lat="44.03328" lon="6.09072">
        <ele>482.24</ele>
        <time>2013-01-13T15:37:49Z</time>
      </trkpt>
      <trkpt lat="44.03342" lon="6.09014">
        <ele>480.8</ele>
        <time>2013-01-13T15:37:51Z</time>
      </trkpt>
      <trkpt lat="44.03421" lon="6.08767">
        <ele>480.8</ele>
        <time>2013-01-13T15:38:00Z</time>
      </trkpt>
      <trkpt lat="44.03473" lon="6.08582">
        <ele>477.91</ele>
        <time>2013-01-13T15:38:07Z</time>
      </trkpt>
      <trkpt lat="44.03502" lon="6.08507">
        <ele>475.03</ele>
        <time>2013-01-13T15:38:10Z</time>
      </trkpt>
      <trkpt lat="44.03524" lon="6.0846">
        <ele>473.59</ele>
        <time>2013-01-13T15:38:12Z</time>
      </trkpt>
      <trkpt lat="44.03565" lon="6.08361">
        <ele>471.66</ele>
        <time>2013-01-13T15:38:16Z</time>
      </trkpt>
      <trkpt lat="44.03651" lon="6.08168">
        <ele>471.18</ele>
        <time>2013-01-13T15:38:24Z</time>
      </trkpt>
      <trkpt lat="44.03751" lon="6.07971">
        <ele>470.7</ele>
        <time>2013-01-13T15:38:33Z</time>
      </trkpt>
      <trkpt lat="44.0382" lon="6.07838">
        <ele>467.34</ele>
        <time>2013-01-13T15:38:39Z</time>
      </trkpt>
      <trkpt lat="44.0387" lon="6.07745">
        <ele>465.9</ele>
        <time>2013-01-13T15:38:43Z</time>
      </trkpt>
      <trkpt lat="44.03973" lon="6.07548">
        <ele>464.93</ele>
        <time>2013-01-13T15:38:52Z</time>
      </trkpt>
      <trkpt lat="44.04017" lon="6.07431">
        <ele>463.49</ele>
        <time>2013-01-13T15:38:57Z</time>
      </trkpt>
      <trkpt lat="44.04052" lon="6.07273">
        <ele>459.65</ele>
        <time>2013-01-13T15:39:03Z</time>
      </trkpt>
      <trkpt lat="44.04059" lon="6.07245">
        <ele>459.65</ele>
        <time>2013-01-13T15:39:04Z</time>
      </trkpt>
      <trkpt lat="44.04107" lon="6.0711">
        <ele>456.76</ele>
        <time>2013-01-13T15:39:09Z</time>
      </trkpt>
      <trkpt lat="44.04248" lon="6.06725">
        <ele>457.72</ele>
        <time>2013-01-13T15:39:24Z</time>
      </trkpt>
      <trkpt lat="44.04376" lon="6.06329">
        <ele>458.69</ele>
        <time>2013-01-13T15:39:39Z</time>
      </trkpt>
      <trkpt lat="44.04421" lon="6.06194">
        <ele>455.8</ele>
        <time>2013-01-13T15:39:44Z</time>
      </trkpt>
      <trkpt lat="44.04465" lon="6.06057">
        <ele>452.92</ele>
        <time>2013-01-13T15:39:49Z</time>
      </trkpt>
      <trkpt lat="44.04488" lon="6.05975">
        <ele>451.48</ele>
        <time>2013-01-13T15:39:52Z</time>
      </trkpt>
      <trkpt lat="44.04533" lon="6.05753">
        <ele>448.59</ele>
        <time>2013-01-13T15:40:00Z</time>
      </trkpt>
      <trkpt lat="44.04585" lon="6.0537">
        <ele>450.52</ele>
        <time>2013-01-13T15:40:14Z</time>
      </trkpt>
      <trkpt lat="44.04606" lon="6.05233">
        <ele>447.15</ele>
        <time>2013-01-13T15:40:19Z</time>
      </trkpt>
      <trkpt lat="44.04623" lon="6.05118">
        <ele>444.75</ele>
        <time>2013-01-13T15:40:23Z</time>
      </trkpt>
      <trkpt lat="44.04667" lon="6.04755">
        <ele>442.34</ele>
        <time>2013-01-13T15:40:36Z</time>
      </trkpt>
      <trkpt lat="44.04665" lon="6.04728">
        <ele>442.82</ele>
        <time>2013-01-13T15:40:37Z</time>
      </trkpt>
      <trkpt lat="44.04661" lon="6.04702">
        <ele>442.34</ele>
        <time>2013-01-13T15:40:38Z</time>
      </trkpt>
      <trkpt lat="44.04636" lon="6.04553">
        <ele>441.86</ele>
        <time>2013-01-13T15:40:45Z</time>
      </trkpt>
      <trkpt lat="44.04636" lon="6.04537">
        <ele>441.86</ele>
        <time>2013-01-13T15:40:46Z</time>
      </trkpt>
      <trkpt lat="44.04638" lon="6.04522">
        <ele>440.9</ele>
        <time>2013-01-13T15:40:47Z</time>
      </trkpt>
      <trkpt lat="44.0464" lon="6.04509">
        <ele>440.9</ele>
        <time>2013-01-13T15:40:48Z</time>
      </trkpt>
      <trkpt lat="44.04644" lon="6.04485">
        <ele>441.86</ele>
        <time>2013-01-13T15:40:50Z</time>
      </trkpt>
      <trkpt lat="44.04644" lon="6.04473">
        <ele>441.38</ele>
        <time>2013-01-13T15:40:51Z</time>
      </trkpt>
      <trkpt lat="44.04642" lon="6.04462">
        <ele>441.86</ele>
        <time>2013-01-13T15:40:52Z</time>
      </trkpt>
      <trkpt lat="44.04638" lon="6.04451">
        <ele>440.9</ele>
        <time>2013-01-13T15:40:53Z</time>
      </trkpt>
      <trkpt lat="44.04635" lon="6.04439">
        <ele>441.38</ele>
        <time>2013-01-13T15:40:54Z</time>
      </trkpt>
      <trkpt lat="44.04632" lon="6.04425">
        <ele>441.38</ele>
        <time>2013-01-13T15:40:55Z</time>
      </trkpt>
      <trkpt lat="44.04631" lon="6.04409">
        <ele>441.86</ele>
        <time>2013-01-13T15:40:56Z</time>
      </trkpt>
      <trkpt lat="44.04632" lon="6.04391">
        <ele>441.86</ele>
        <time>2013-01-13T15:40:57Z</time>
      </trkpt>
      <trkpt lat="44.04634" lon="6.0437">
        <ele>442.34</ele>
        <time>2013-01-13T15:40:58Z</time>
      </trkpt>
      <trkpt lat="44.04624" lon="6.04199">
        <ele>438.98</ele>
        <time>2013-01-13T15:41:05Z</time>
      </trkpt>
      <trkpt lat="44.04612" lon="6.04048">
        <ele>436.58</ele>
        <time>2013-01-13T15:41:10Z</time>
      </trkpt>
      <trkpt lat="44.04612" lon="6.0393">
        <ele>435.13</ele>
        <time>2013-01-13T15:41:14Z</time>
      </trkpt>
      <trkpt lat="44.04622" lon="6.03629">
        <ele>432.73</ele>
        <time>2013-01-13T15:41:25Z</time>
      </trkpt>
      <trkpt lat="44.04628" lon="6.03419">
        <ele>430.81</ele>
        <time>2013-01-13T15:41:34Z</time>
      </trkpt>
      <trkpt lat="44.04641" lon="6.03184">
        <ele>427.44</ele>
        <time>2013-01-13T15:41:45Z</time>
      </trkpt>
      <trkpt lat="44.04656" lon="6.02939">
        <ele>425.52</ele>
        <time>2013-01-13T15:41:58Z</time>
      </trkpt>
      <trkpt lat="44.04691" lon="6.02759">
        <ele>424.08</ele>
        <time>2013-01-13T15:42:08Z</time>
      </trkpt>
      <trkpt lat="44.0476" lon="6.02651">
        <ele>423.12</ele>
        <time>2013-01-13T15:42:15Z</time>
      </trkpt>
      <trkpt lat="44.04874" lon="6.02571">
        <ele>422.64</ele>
        <time>2013-01-13T15:42:23Z</time>
      </trkpt>
      <trkpt lat="44.05048" lon="6.02477">
        <ele>422.16</ele>
        <time>2013-01-13T15:42:33Z</time>
      </trkpt>
      <trkpt lat="44.05156" lon="6.02381">
        <ele>421.68</ele>
        <time>2013-01-13T15:42:40Z</time>
      </trkpt>
      <trkpt lat="44.0524" lon="6.02246">
        <ele>425.04</ele>
        <time>2013-01-13T15:42:46Z</time>
      </trkpt>
      <trkpt lat="44.05257" lon="6.02222">
        <ele>425.04</ele>
        <time>2013-01-13T15:42:47Z</time>
      </trkpt>
      <trkpt lat="44.05291" lon="6.02176">
        <ele>426.96</ele>
        <time>2013-01-13T15:42:49Z</time>
      </trkpt>
      <trkpt lat="44.05362" lon="6.02087">
        <ele>431.29</ele>
        <time>2013-01-13T15:42:53Z</time>
      </trkpt>
      <trkpt lat="44.0538" lon="6.02068">
        <ele>431.77</ele>
        <time>2013-01-13T15:42:54Z</time>
      </trkpt>
      <trkpt lat="44.05484" lon="6.01986">
        <ele>433.21</ele>
        <time>2013-01-13T15:43:00Z</time>
      </trkpt>
      <trkpt lat="44.05602" lon="6.01945">
        <ele>429.85</ele>
        <time>2013-01-13T15:43:07Z</time>
      </trkpt>
      <trkpt lat="44.05682" lon="6.01943">
        <ele>426</ele>
        <time>2013-01-13T15:43:12Z</time>
      </trkpt>
      <trkpt lat="44.05699" lon="6.01946">
        <ele>426</ele>
        <time>2013-01-13T15:43:13Z</time>
      </trkpt>
      <trkpt lat="44.05842" lon="6.01995">
        <ele>425.04</ele>
        <time>2013-01-13T15:43:21Z</time>
      </trkpt>
      <trkpt lat="44.06092" lon="6.02089">
        <ele>425.52</ele>
        <time>2013-01-13T15:43:33Z</time>
      </trkpt>
      <trkpt lat="44.06389" lon="6.02132">
        <ele>427.44</ele>
        <time>2013-01-13T15:43:46Z</time>
      </trkpt>
      <trkpt lat="44.06815" lon="6.02202">
        <ele>430.33</ele>
        <time>2013-01-13T15:44:04Z</time>
      </trkpt>
      <trkpt lat="44.07133" lon="6.02231">
        <ele>432.73</ele>
        <time>2013-01-13T15:44:18Z</time>
      </trkpt>
      <trkpt lat="44.07328" lon="6.02195">
        <ele>433.69</ele>
        <time>2013-01-13T15:44:27Z</time>
      </trkpt>
      <trkpt lat="44.07509" lon="6.02075">
        <ele>435.61</ele>
        <time>2013-01-13T15:44:36Z</time>
      </trkpt>
      <trkpt lat="44.07779" lon="6.01872">
        <ele>434.65</ele>
        <time>2013-01-13T15:44:50Z</time>
      </trkpt>
      <trkpt lat="44.08022" lon="6.01727">
        <ele>433.21</ele>
        <time>2013-01-13T15:45:02Z</time>
      </trkpt>
      <trkpt lat="44.08198" lon="6.01696">
        <ele>433.21</ele>
        <time>2013-01-13T15:45:10Z</time>
      </trkpt>
      <trkpt lat="44.08344" lon="6.01617">
        <ele>433.21</ele>
        <time>2013-01-13T15:45:17Z</time>
      </trkpt>
      <trkpt lat="44.08461" lon="6.01475">
        <ele>436.1</ele>
        <time>2013-01-13T15:45:24Z</time>
      </trkpt>
      <trkpt lat="44.08497" lon="6.01401">
        <ele>439.46</ele>
        <time>2013-01-13T15:45:27Z</time>
      </trkpt>
      <trkpt lat="44.08517" lon="6.01348">
        <ele>440.42</ele>
        <time>2013-01-13T15:45:29Z</time>
      </trkpt>
      <trkpt lat="44.08596" lon="6.01082">
        <ele>439.46</ele>
        <time>2013-01-13T15:45:39Z</time>
      </trkpt>
      <trkpt lat="44.08605" lon="6.01061">
        <ele>439.46</ele>
        <time>2013-01-13T15:45:40Z</time>
      </trkpt>
      <trkpt lat="44.08616" lon="6.01042">
        <ele>439.46</ele>
        <time>2013-01-13T15:45:41Z</time>
      </trkpt>
      <trkpt lat="44.0863" lon="6.01027">
        <ele>438.98</ele>
        <time>2013-01-13T15:45:42Z</time>
      </trkpt>
      <trkpt lat="44.08646" lon="6.01015">
        <ele>438.98</ele>
        <time>2013-01-13T15:45:43Z</time>
      </trkpt>
      <trkpt lat="44.08663" lon="6.01007">
        <ele>439.94</ele>
        <time>2013-01-13T15:45:44Z</time>
      </trkpt>
      <trkpt lat="44.08682" lon="6.01004">
        <ele>439.94</ele>
        <time>2013-01-13T15:45:45Z</time>
      </trkpt>
      <trkpt lat="44.08702" lon="6.01006">
        <ele>440.42</ele>
        <time>2013-01-13T15:45:46Z</time>
      </trkpt>
      <trkpt lat="44.08722" lon="6.01011">
        <ele>439.94</ele>
        <time>2013-01-13T15:45:47Z</time>
      </trkpt>
      <trkpt lat="44.08742" lon="6.01019">
        <ele>439.94</ele>
        <time>2013-01-13T15:45:48Z</time>
      </trkpt>
      <trkpt lat="44.089" lon="6.01067">
        <ele>436.1</ele>
        <time>2013-01-13T15:45:56Z</time>
      </trkpt>
      <trkpt lat="44.09023" lon="6.01035">
        <ele>439.46</ele>
        <time>2013-01-13T15:46:02Z</time>
      </trkpt>
      <trkpt lat="44.09111" lon="6.00982">
        <ele>442.82</ele>
        <time>2013-01-13T15:46:07Z</time>
      </trkpt>
      <trkpt lat="44.09201" lon="6.00931">
        <ele>445.23</ele>
        <time>2013-01-13T15:46:14Z</time>
      </trkpt>
      <trkpt lat="44.09269" lon="6.00906">
        <ele>445.71</ele>
        <time>2013-01-13T15:46:23Z</time>
      </trkpt>
      <trkpt lat="44.09275" lon="6.00905">
        <ele>445.71</ele>
        <time>2013-01-13T15:46:24Z</time>
      </trkpt>
      <trkpt lat="44.09281" lon="6.00905">
        <ele>445.71</ele>
        <time>2013-01-13T15:46:25Z</time>
      </trkpt>
      <trkpt lat="44.09287" lon="6.00908">
        <ele>445.71</ele>
        <time>2013-01-13T15:46:26Z</time>
      </trkpt>
      <trkpt lat="44.09294" lon="6.00911">
        <ele>445.71</ele>
        <time>2013-01-13T15:46:27Z</time>
      </trkpt>
      <trkpt lat="44.093" lon="6.00915">
        <ele>445.23</ele>
        <time>2013-01-13T15:46:28Z</time>
      </trkpt>
      <trkpt lat="44.09307" lon="6.00921">
        <ele>445.71</ele>
        <time>2013-01-13T15:46:29Z</time>
      </trkpt>
      <trkpt lat="44.09346" lon="6.00948">
        <ele>442.82</ele>
        <time>2013-01-13T15:46:35Z</time>
      </trkpt>
      <trkpt lat="44.09348" lon="6.00952">
        <ele>442.82</ele>
        <time>2013-01-13T15:46:36Z</time>
      </trkpt>
      <trkpt lat="44.09349" lon="6.00957">
        <ele>442.82</ele>
        <time>2013-01-13T15:46:37Z</time>
      </trkpt>
      <trkpt lat="44.09349" lon="6.00963">
        <ele>441.86</ele>
        <time>2013-01-13T15:46:38Z</time>
      </trkpt>
      <trkpt lat="44.0935" lon="6.00978">
        <ele>441.38</ele>
        <time>2013-01-13T15:46:40Z</time>
      </trkpt>
      <trkpt lat="44.09351" lon="6.00987">
        <ele>440.42</ele>
        <time>2013-01-13T15:46:41Z</time>
      </trkpt>
      <trkpt lat="44.09353" lon="6.00996">
        <ele>440.42</ele>
        <time>2013-01-13T15:46:42Z</time>
      </trkpt>
      <trkpt lat="44.0936" lon="6.01027">
        <ele>438.5</ele>
        <time>2013-01-13T15:46:45Z</time>
      </trkpt>
      <trkpt lat="44.09382" lon="6.01115">
        <ele>435.61</ele>
        <time>2013-01-13T15:46:52Z</time>
      </trkpt>
      <trkpt lat="44.094" lon="6.01172">
        <ele>434.17</ele>
        <time>2013-01-13T15:46:57Z</time>
      </trkpt>
      <trkpt lat="44.09401" lon="6.01182">
        <ele>433.69</ele>
        <time>2013-01-13T15:46:58Z</time>
      </trkpt>
      <trkpt lat="44.09401" lon="6.0119">
        <ele>433.21</ele>
        <time>2013-01-13T15:46:59Z</time>
      </trkpt>
      <trkpt lat="44.09397" lon="6.01197">
        <ele>432.73</ele>
        <time>2013-01-13T15:47:00Z</time>
      </trkpt>
      <trkpt lat="44.09391" lon="6.01202">
        <ele>432.73</ele>
        <time>2013-01-13T15:47:01Z</time>
      </trkpt>
      <trkpt lat="44.09384" lon="6.01205">
        <ele>432.25</ele>
        <time>2013-01-13T15:47:02Z</time>
      </trkpt>
      <trkpt lat="44.09377" lon="6.01208">
        <ele>431.77</ele>
        <time>2013-01-13T15:47:03Z</time>
      </trkpt>
      <trkpt lat="44.0936" lon="6.01212">
        <ele>431.29</ele>
        <time>2013-01-13T15:47:05Z</time>
      </trkpt>
      <trkpt lat="44.09351" lon="6.01211">
        <ele>430.81</ele>
        <time>2013-01-13T15:47:06Z</time>
      </trkpt>
      <trkpt lat="44.09324" lon="6.01207">
        <ele>429.37</ele>
        <time>2013-01-13T15:47:09Z</time>
      </trkpt>
      <trkpt lat="44.09317" lon="6.01207">
        <ele>428.89</ele>
        <time>2013-01-13T15:47:10Z</time>
      </trkpt>
      <trkpt lat="44.0931" lon="6.0121">
        <ele>428.4</ele>
        <time>2013-01-13T15:47:11Z</time>
      </trkpt>
      <trkpt lat="44.09304" lon="6.01216">
        <ele>428.4</ele>
        <time>2013-01-13T15:47:12Z</time>
      </trkpt>
      <trkpt lat="44.09302" lon="6.01225">
        <ele>428.89</ele>
        <time>2013-01-13T15:47:13Z</time>
      </trkpt>
      <trkpt lat="44.09303" lon="6.01234">
        <ele>428.4</ele>
        <time>2013-01-13T15:47:14Z</time>
      </trkpt>
      <trkpt lat="44.09306" lon="6.01241">
        <ele>428.4</ele>
        <time>2013-01-13T15:47:15Z</time>
      </trkpt>
      <trkpt lat="44.09312" lon="6.01245">
        <ele>428.89</ele>
        <time>2013-01-13T15:47:16Z</time>
      </trkpt>
      <trkpt lat="44.09319" lon="6.01246">
        <ele>429.37</ele>
        <time>2013-01-13T15:47:17Z</time>
      </trkpt>
      <trkpt lat="44.09326" lon="6.01245">
        <ele>430.33</ele>
        <time>2013-01-13T15:47:18Z</time>
      </trkpt>
      <trkpt lat="44.09332" lon="6.01244">
        <ele>430.33</ele>
        <time>2013-01-13T15:47:19Z</time>
      </trkpt>
      <trkpt lat="44.09339" lon="6.01243">
        <ele>430.81</ele>
        <time>2013-01-13T15:47:20Z</time>
      </trkpt>
      <trkpt lat="44.09347" lon="6.01243">
        <ele>430.81</ele>
        <time>2013-01-13T15:47:21Z</time>
      </trkpt>
      <trkpt lat="44.09356" lon="6.01245">
        <ele>431.77</ele>
        <time>2013-01-13T15:47:22Z</time>
      </trkpt>
      <trkpt lat="44.09378" lon="6.0125">
        <ele>432.73</ele>
        <time>2013-01-13T15:47:24Z</time>
      </trkpt>
      <trkpt lat="44.0951" lon="6.01277">
        <ele>433.69</ele>
        <time>2013-01-13T15:47:32Z</time>
      </trkpt>
      <trkpt lat="44.0967" lon="6.01296">
        <ele>434.17</ele>
        <time>2013-01-13T15:47:42Z</time>
      </trkpt>
      <trkpt lat="44.09806" lon="6.01271">
        <ele>434.17</ele>
        <time>2013-01-13T15:47:53Z</time>
      </trkpt>
      <trkpt lat="44.09844" lon="6.01262">
        <ele>432.73</ele>
        <time>2013-01-13T15:47:59Z</time>
      </trkpt>
      <trkpt lat="44.09846" lon="6.01265">
        <ele>432.73</ele>
        <time>2013-01-13T15:48:00Z</time>
      </trkpt>
      <trkpt lat="44.09848" lon="6.0127">
        <ele>432.73</ele>
        <time>2013-01-13T15:48:01Z</time>
      </trkpt>
      <trkpt lat="44.09848" lon="6.01276">
        <ele>433.21</ele>
        <time>2013-01-13T15:48:02Z</time>
      </trkpt>
      <trkpt lat="44.09849" lon="6.01283">
        <ele>432.73</ele>
        <time>2013-01-13T15:48:03Z</time>
      </trkpt>
      <trkpt lat="44.09855" lon="6.01337">
        <ele>432.73</ele>
        <time>2013-01-13T15:48:10Z</time>
      </trkpt>
      <trkpt lat="44.09856" lon="6.01342">
        <ele>432.73</ele>
        <time>2013-01-13T15:48:11Z</time>
      </trkpt>
      <trkpt lat="44.09859" lon="6.01345">
        <ele>432.73</ele>
        <time>2013-01-13T15:48:12Z</time>
      </trkpt>
      <trkpt lat="44.09861" lon="6.01348">
        <ele>432.73</ele>
        <time>2013-01-13T15:48:13Z</time>
      </trkpt>
      <trkpt lat="44.09864" lon="6.01349">
        <ele>432.73</ele>
        <time>2013-01-13T15:48:14Z</time>
      </trkpt>
      <trkpt lat="44.09866" lon="6.0135">
        <ele>432.25</ele>
        <time>2013-01-13T15:48:15Z</time>
      </trkpt>
      <trkpt lat="44.09867" lon="6.0135">
        <ele>432.25</ele>
        <time>2013-01-13T15:48:16Z</time>
      </trkpt>
      <trkpt lat="44.09869" lon="6.0135">
        <ele>432.25</ele>
        <time>2013-01-13T15:48:17Z</time>
      </trkpt>
      <trkpt lat="44.0987" lon="6.01349">
        <ele>432.73</ele>
        <time>2013-01-13T15:48:18Z</time>
      </trkpt>
      <trkpt lat="44.09871" lon="6.01348">
        <ele>432.25</ele>
        <time>2013-01-13T15:48:19Z</time>
      </trkpt>
      <trkpt lat="44.09871" lon="6.01348">
        <ele>434.17</ele>
        <time>2013-01-13T15:48:22Z</time>
      </trkpt>
      <trkpt lat="44.09871" lon="6.01348">
        <ele>434.17</ele>
        <time>2013-01-13T15:48:56Z</time>
      </trkpt>
      <trkpt lat="44.09871" lon="6.01348">
        <ele>432.25</ele>
        <time>2013-01-13T15:49:15Z</time>
      </trkpt>
      <trkpt lat="44.09871" lon="6.01348">
        <ele>434.17</ele>
        <time>2013-01-13T15:49:53Z</time>
      </trkpt>
      <trkpt lat="44.09871" lon="6.01348">
        <ele>434.17</ele>
        <time>2013-01-13T15:50:38Z</time>
      </trkpt>
      <trkpt lat="44.09871" lon="6.01348">
        <ele>434.17</ele>
        <time>2013-01-13T15:51:21Z</time>
      </trkpt>
      <trkpt lat="44.09871" lon="6.01348">
        <ele>434.65</ele>
        <time>2013-01-13T15:51:55Z</time>
      </trkpt>
      <trkpt lat="44.09871" lon="6.01349">
        <ele>434.65</ele>
        <time>2013-01-13T15:52:33Z</time>
      </trkpt>
      <trkpt lat="44.09871" lon="6.01348">
        <ele>435.13</ele>
        <time>2013-01-13T15:53:10Z</time>
      </trkpt>
      <trkpt lat="44.09871" lon="6.01348">
        <ele>434.65</ele>
        <time>2013-01-13T15:53:44Z</time>
      </trkpt>
      <trkpt lat="44.09869" lon="6.01347">
        <ele>434.65</ele>
        <time>2013-01-13T15:53:56Z</time>
      </trkpt>
      <trkpt lat="44.09869" lon="6.01349">
        <ele>435.13</ele>
        <time>2013-01-13T15:54:03Z</time>
      </trkpt>
      <trkpt lat="44.09872" lon="6.0135">
        <ele>435.13</ele>
        <time>2013-01-13T15:54:06Z</time>
      </trkpt>
      <trkpt lat="44.09876" lon="6.01355">
        <ele>435.13</ele>
        <time>2013-01-13T15:54:12Z</time>
      </trkpt>
      <trkpt lat="44.09877" lon="6.01355">
        <ele>435.13</ele>
        <time>2013-01-13T15:54:13Z</time>
      </trkpt>
      <trkpt lat="44.09885" lon="6.01362">
        <ele>435.13</ele>
        <time>2013-01-13T15:54:25Z</time>
      </trkpt>
      <trkpt lat="44.09888" lon="6.01365">
        <ele>435.61</ele>
        <time>2013-01-13T15:54:37Z</time>
      </trkpt>
      <trkpt lat="44.0989" lon="6.01362">
        <ele>435.61</ele>
        <time>2013-01-13T15:54:48Z</time>
      </trkpt>
      <trkpt lat="44.09892" lon="6.01362">
        <ele>436.58</ele>
        <time>2013-01-13T15:55:03Z</time>
      </trkpt>
      <trkpt lat="44.09893" lon="6.01363">
        <ele>436.1</ele>
        <time>2013-01-13T15:55:14Z</time>
      </trkpt>
      <trkpt lat="44.09893" lon="6.01363">
        <ele>436.1</ele>
        <time>2013-01-13T15:55:38Z</time>
      </trkpt>
      <trkpt lat="44.09893" lon="6.01362">
        <ele>436.58</ele>
        <time>2013-01-13T15:56:12Z</time>
      </trkpt>
      <trkpt lat="44.09893" lon="6.01362">
        <ele>436.1</ele>
        <time>2013-01-13T15:56:45Z</time>
      </trkpt>
      <trkpt lat="44.09893" lon="6.01362">
        <ele>436.1</ele>
        <time>2013-01-13T15:57:18Z</time>
      </trkpt>
      <trkpt lat="44.09893" lon="6.01362">
        <ele>436.58</ele>
        <time>2013-01-13T15:57:52Z</time>
      </trkpt>
      <trkpt lat="44.09893" lon="6.01362">
        <ele>437.06</ele>
        <time>2013-01-13T15:58:25Z</time>
      </trkpt>
      <trkpt lat="44.09893" lon="6.01361">
        <ele>436.1</ele>
        <time>2013-01-13T15:58:53Z</time>
      </trkpt>
      <trkpt lat="44.09893" lon="6.01361">
        <ele>436.58</ele>
        <time>2013-01-13T15:59:25Z</time>
      </trkpt>
      <trkpt lat="44.09893" lon="6.01361">
        <ele>436.58</ele>
        <time>2013-01-13T15:59:50Z</time>
      </trkpt>
      <trkpt lat="44.09893" lon="6.01361">
        <ele>437.06</ele>
        <time>2013-01-13T16:00:21Z</time>
      </trkpt>
      <trkpt lat="44.09893" lon="6.01361">
        <ele>437.54</ele>
        <time>2013-01-13T16:00:57Z</time>
      </trkpt>
      <trkpt lat="44.09893" lon="6.01361">
        <ele>438.02</ele>
        <time>2013-01-13T16:01:31Z</time>
      </trkpt>
      <trkpt lat="44.09893" lon="6.01361">
        <ele>437.54</ele>
        <time>2013-01-13T16:01:59Z</time>
      </trkpt>
      <trkpt lat="44.09893" lon="6.01361">
        <ele>438.02</ele>
        <time>2013-01-13T16:02:33Z</time>
      </trkpt>
      <trkpt lat="44.09893" lon="6.01361">
        <ele>438.02</ele>
        <time>2013-01-13T16:03:07Z</time>
      </trkpt>
      <trkpt lat="44.09893" lon="6.01361">
        <ele>438.02</ele>
        <time>2013-01-13T16:03:44Z</time>
      </trkpt>
      <trkpt lat="44.09893" lon="6.0136">
        <ele>438.98</ele>
        <time>2013-01-13T16:04:21Z</time>
      </trkpt>
      <trkpt lat="44.09893" lon="6.0136">
        <ele>438.5</ele>
        <time>2013-01-13T16:04:57Z</time>
      </trkpt>
      <trkpt lat="44.09893" lon="6.0136">
        <ele>438.5</ele>
        <time>2013-01-13T16:05:34Z</time>
      </trkpt>
      <trkpt lat="44.09893" lon="6.0136">
        <ele>438.5</ele>
        <time>2013-01-13T16:06:07Z</time>
      </trkpt>
      <trkpt lat="44.09893" lon="6.0136">
        <ele>438.98</ele>
        <time>2013-01-13T16:06:42Z</time>
      </trkpt>
      <trkpt lat="44.09894" lon="6.0136">
        <ele>438.98</ele>
        <time>2013-01-13T16:07:17Z</time>
      </trkpt>
      <trkpt lat="44.09894" lon="6.0136">
        <ele>438.98</ele>
        <time>2013-01-13T16:07:47Z</time>
      </trkpt>
      <trkpt lat="44.09894" lon="6.0136">
        <ele>438.98</ele>
        <time>2013-01-13T16:08:21Z</time>
      </trkpt>
      <trkpt lat="44.09894" lon="6.01359">
        <ele>438.98</ele>
        <time>2013-01-13T16:08:58Z</time>
      </trkpt>
      <trkpt lat="44.09894" lon="6.01359">
        <ele>437.54</ele>
        <time>2013-01-13T16:09:06Z</time>
      </trkpt>
      <trkpt lat="44.09894" lon="6.01359">
        <ele>439.94</ele>
        <time>2013-01-13T16:09:08Z</time>
      </trkpt>
      <trkpt lat="44.09893" lon="6.01359">
        <ele>440.9</ele>
        <time>2013-01-13T16:09:33Z</time>
      </trkpt>
      <trkpt lat="44.09894" lon="6.01357">
        <ele>439.94</ele>
        <time>2013-01-13T16:09:39Z</time>
      </trkpt>
      <trkpt lat="44.09895" lon="6.01357">
        <ele>440.42</ele>
        <time>2013-01-13T16:09:40Z</time>
      </trkpt>
      <trkpt lat="44.09896" lon="6.01356">
        <ele>439.94</ele>
        <time>2013-01-13T16:10:01Z</time>
      </trkpt>
      <trkpt lat="44.09896" lon="6.01356">
        <ele>440.42</ele>
        <time>2013-01-13T16:10:34Z</time>
      </trkpt>
    </trkseg>
  </trk>
</gpx>